[[{"header":{"parameterUnit":"m.s-1","parameterCategory":1,"la1":31.0,"la2":29.5877,"lo1":-88.7671,"lo2":-86.6584,"dy":0.0162,"dx":0.0185,"nx":115,"ny":88,"refTime":"2024-11-28T06:00:00:Z","depth":0,"parameterNumber":2,"parameterNumberName":"U-component_of_WINDS"},"data":[0.0,0.0,0.0,0.0,0.0,0.0,0.0,0.0,0.0,0.0,0.0,0.0,0.0,0.0,0.0,0.0,0.0,0.0,0.0,0.0,0.0,0.0,0.0,0.0,0.0,0.0,0.0,0.0,0.0,0.0,0.0,0.0,0.0,0.0,0.0,0.0,0.0,0.0,0.0,0.0,0.0,0.0,0.0,0.0,0.0,0.0,0.0,0.0,0.0,0.0,0.0,0.0,0.0,0.0,0.0,0.0,0.0,0.0,0.0,0.0,0.0,0.0,0.0,0.0,0.0,0.0,0.0,0.0,0.0,0.0,0.0,0.0,0.0,0.0,0.0,0.0,0.0,0.0,0.0,0.0,0.0,0.0,0.0,0.0,0.0,0.0,0.0,0.0,0.0,0.0,0.0,0.0,0.0,0.0,0.0,0.0,0.0,0.0,0.0,0.0,0.0,0.0,0.0,0.0,0.0,0.0,0.0,0.0,0.0,0.0,0.0,0.0,0.0,0.0,0.0,0.0,0.0,0.0,0.0,0.0,0.0,0.0,0.0,0.0,0.0,0.0,0.0,0.0,0.0,0.0,0.0,0.0,0.0,0.0,0.0,0.0,0.0,0.0,0.0,0.0,0.0,0.0,0.0,0.0,0.0,0.0,0.0,0.0,0.0,0.0,0.0,0.0,0.0,0.0,0.0,0.0,0.0,0.0,0.0,0.0,0.0,0.0,0.0,0.0,0.0,0.0,0.0,0.0,0.0,0.0,0.0,0.0,0.0,0.0,0.0,0.0,0.0,0.0,0.0,0.0,0.0,0.0,0.0,0.0,0.0,0.0,0.0,0.0,0.0,0.0,0.0,0.0,0.0,0.0,0.0,0.0,0.0,0.0,0.0,0.0,0.0,0.0,0.0,0.0,0.0,0.0,0.0,0.0,0.0,0.0,0.0,0.0,0.0,0.0,0.0,0.0,0.0,0.0,0.0,0.0,0.0,0.0,0.0,0.0,0.0,0.0,0.0,0.0,0.0,0.0,0.0,0.0,0.0,0.0,0.0,0.0,0.0,0.0,0.0,0.0,0.0,0.0,0.0,0.0,0.0,0.0,0.0,0.0,0.0,0.0,0.0,0.0,0.0,0.0,0.0,0.0,0.0,0.0,0.0,0.0,0.0,0.0,0.0,0.0,0.0,0.0,0.0,0.0,0.0,0.0,0.0,0.0,0.0,0.0,0.0,0.0,0.0,0.0,0.0,0.0,0.0,0.0,0.0,0.0,0.0,0.0,0.0,0.0,0.0,0.0,0.0,0.0,0.0,0.0,0.0,0.0,0.0,0.0,0.0,0.0,0.0,0.0,0.0,0.0,0.0,0.0,0.0,0.0,0.0,0.0,0.0,0.0,0.0,0.0,0.0,0.0,0.0,0.0,0.0,0.0,0.0,0.0,0.0,0.0,0.0,0.0,0.0,0.0,0.0,0.0,0.0,0.0,0.0,0.0,0.0,0.0,0.0,0.0,0.0,0.0,0.0,0.0,0.0,0.0,0.0,0.0,0.0,0.0,0.0,0.0,0.0,0.0,0.0,0.0,0.0,0.0,0.0,0.0,0.0,0.0,0.0,0.0,0.0,0.0,0.0,0.0,0.0,0.0,0.0,0.0,0.0,0.0,0.0,0.0,0.0,0.0,0.0,0.0,0.0,0.0,0.0,0.0,0.0,0.0,0.0,0.0,0.0,0.0,0.0,0.0,0.0,0.0,0.0,0.0,0.0,0.0,0.0,0.0,0.0,0.0,0.0,0.0,0.0,0.0,0.0,0.0,0.0,0.0,0.0,0.0,0.0,0.0,0.0,0.0,0.0,0.0,0.0,0.0,0.0,0.0,0.0,0.0,0.0,0.0,0.0,0.0,0.0,0.0,0.0,0.0,0.0,0.0,0.0,0.0,0.0,0.0,0.0,0.0,0.0,0.0,0.0,0.0,0.0,0.0,0.0,0.0,0.0,0.0,0.0,0.0,0.0,0.0,0.0,0.0,0.0,0.0,0.0,0.0,0.0,0.0,0.0,0.0,0.0,0.0,0.0,0.0,0.0,0.0,0.0,0.0,0.0,0.0,0.0,0.0,0.0,0.0,0.0,0.0,0.0,0.0,0.0,0.0,0.0,0.0,0.0,0.0,0.0,0.0,0.0,0.0,0.0,0.0,0.0,0.0,0.0,0.0,0.0,0.0,0.0,0.0,0.0,0.0,0.0,0.0,0.0,0.0,0.0,0.0,0.0,0.0,0.0,0.0,0.0,0.0,0.0,0.0,0.0,0.0,0.0,0.0,0.0,0.0,0.0,0.0,0.0,0.0,0.0,0.0,0.0,0.0,0.0,0.0,0.0,0.0,0.0,0.0,0.0,0.0,0.0,0.0,0.0,0.0,0.0,0.0,0.0,0.0,0.0,0.0,0.0,0.0,0.0,0.0,0.0,0.0,0.0,0.0,0.0,0.0,0.0,0.0,0.0,0.0,0.0,0.0,0.0,0.0,0.0,0.0,0.0,0.0,0.0,0.0,0.0,0.0,0.0,0.0,0.0,0.0,0.0,0.0,0.0,0.0,0.0,0.0,0.0,0.0,0.0,0.0,0.0,0.0,0.0,0.0,0.0,0.0,0.0,0.0,0.0,0.0,0.0,0.0,0.0,0.0,0.0,0.0,0.0,0.0,0.0,0.0,0.0,0.0,0.0,0.0,0.0,0.0,0.0,0.0,0.0,0.0,0.0,0.0,0.0,0.0,0.0,0.0,0.0,0.0,0.0,0.0,0.0,0.0,0.0,0.0,0.0,0.0,0.0,0.0,0.0,0.0,0.0,0.0,0.0,0.0,0.0,0.0,0.0,0.0,0.0,0.0,0.0,0.0,0.0,0.0,0.0,0.0,0.0,0.0,0.0,0.0,0.0,0.0,0.0,0.0,0.0,0.0,0.0,0.0,0.0,0.0,0.0,0.0,0.0,0.0,0.0,0.0,0.0,0.0,0.0,0.0,0.0,0.0,0.0,0.0,0.0,0.0,0.0,0.0,0.0,0.0,0.0,0.0,0.0,0.0,0.0,0.0,0.0,0.0,0.0,0.0,0.0,0.0,0.0,0.0,0.0,0.0,0.0,0.0,0.0,0.0,0.0,0.0,0.0,0.0,0.0,0.0,0.0,0.0,0.0,0.0,0.0,0.0,0.0,0.0,0.0,0.0,0.0,0.0,0.0,0.0,0.0,0.0,0.0,0.0,0.0,0.0,0.0,0.0,0.0,0.0,0.0,0.0,0.0,0.0,0.0,0.0,0.0,0.0,0.0,0.0,0.0,0.0,0.0,0.0,0.0,0.0,0.0,0.0,0.0,0.0,0.0,0.0,0.0,0.0,0.0,0.0,0.0,0.0,0.0,0.0,0.0,0.0,0.0,0.0,0.0,0.0,0.0,0.0,0.0,0.0,0.0,0.0,0.0,0.0,0.0,0.0,0.0,0.0,0.0,0.0,0.0,0.0,0.0,0.0,0.0,0.0,0.0,0.0,0.0,0.0,0.0,0.0,0.0,0.0,0.0,0.0,0.0,0.0,0.0,0.0,0.0,0.0,0.0,0.0,0.0,0.0,0.0,0.0,0.0,0.0,0.0,0.0,0.0,0.0,0.0,0.0,0.0,0.0,0.0,0.0,0.0,0.0,0.0,0.0,0.0,0.0,0.0,0.0,0.0,0.0,0.0,0.0,0.0,0.0,0.0,0.0,0.0,0.0,0.0,0.0,0.0,0.0,0.0,0.0,0.0,0.0,0.0,0.0,0.0,0.0,0.0,0.0,0.0,0.0,0.0,0.0,0.0,0.0,0.0,0.0,0.0,0.0,0.0,0.0,0.0,0.0,0.0,0.0,0.0,0.0,0.0,0.0,0.0,0.0,0.0,0.0,0.0,0.0,0.0,0.0,0.0,0.0,0.0,0.0,0.0,0.0,0.0,0.0,0.0,0.0,0.0,0.0,0.0,0.0,0.0,0.0,0.0,0.0,0.0,0.0,0.0,0.0,0.0,0.0,0.0,0.0,0.0,0.0,0.0,0.0,0.0,0.0,0.0,0.0,0.0,0.0,0.0,0.0,0.0,0.0,0.0,0.0,0.0,0.0,0.0,0.0,0.0,0.0,0.0,0.0,0.0,0.0,0.0,0.0,0.0,0.0,0.0,0.0,0.0,0.0,0.0,0.0,0.0,0.0,0.0,0.0,0.0,0.0,0.0,0.0,0.0,0.0,0.0,0.0,0.0,0.0,0.0,0.0,5.0697,0.0,0.0,0.0,0.0,0.0,0.0,0.0,0.0,0.0,0.0,0.0,0.0,0.0,0.0,0.0,0.0,0.0,0.0,0.0,0.0,0.0,0.0,0.0,0.0,0.0,0.0,0.0,0.0,0.0,0.0,0.0,0.0,0.0,0.0,0.0,0.0,0.0,0.0,0.0,0.0,0.0,0.0,0.0,0.0,0.0,0.0,0.0,0.0,0.0,0.0,0.0,0.0,0.0,0.0,0.0,0.0,0.0,0.0,0.0,0.0,0.0,0.0,0.0,0.0,0.0,0.0,0.0,0.0,0.0,0.0,0.0,0.0,0.0,0.0,0.0,0.0,0.0,0.0,0.0,0.0,0.0,0.0,0.0,0.0,0.0,0.0,0.0,0.0,0.0,0.0,0.0,0.0,0.0,0.0,0.0,0.0,0.0,0.0,0.0,0.0,0.0,0.0,0.0,0.0,0.0,0.0,0.0,0.0,0.0,0.0,5.1178,5.1089,5.1048,5.102,5.0937,0.0,0.0,0.0,0.0,0.0,0.0,0.0,0.0,0.0,0.0,0.0,0.0,0.0,0.0,0.0,0.0,0.0,0.0,0.0,0.0,0.0,0.0,0.0,0.0,0.0,0.0,0.0,0.0,0.0,0.0,0.0,0.0,0.0,0.0,0.0,0.0,0.0,0.0,0.0,0.0,0.0,0.0,0.0,0.0,0.0,0.0,0.0,0.0,0.0,0.0,0.0,0.0,0.0,0.0,0.0,0.0,0.0,0.0,0.0,0.0,0.0,0.0,0.0,0.0,0.0,0.0,0.0,0.0,0.0,0.0,0.0,0.0,0.0,0.0,0.0,0.0,0.0,0.0,0.0,0.0,0.0,0.0,0.0,0.0,0.0,0.0,0.0,0.0,0.0,0.0,0.0,0.0,0.0,0.0,0.0,0.0,0.0,0.0,0.0,0.0,0.0,0.0,0.0,0.0,0.0,0.0,0.0,0.0,0.0,0.0,0.0,0.0,5.1319,5.1184,5.096,0.0,0.0,0.0,0.0,0.0,0.0,0.0,0.0,0.0,0.0,0.0,0.0,0.0,0.0,0.0,0.0,0.0,0.0,0.0,0.0,0.0,0.0,0.0,0.0,0.0,0.0,0.0,0.0,0.0,0.0,0.0,0.0,0.0,0.0,0.0,0.0,0.0,0.0,0.0,0.0,0.0,0.0,0.0,0.0,0.0,0.0,0.0,0.0,0.0,0.0,0.0,0.0,0.0,0.0,0.0,0.0,0.0,0.0,0.0,0.0,0.0,0.0,0.0,0.0,0.0,0.0,0.0,0.0,0.0,0.0,0.0,0.0,0.0,0.0,0.0,0.0,0.0,0.0,0.0,0.0,0.0,0.0,0.0,0.0,0.0,0.0,0.0,0.0,0.0,0.0,0.0,0.0,0.0,0.0,0.0,0.0,0.0,0.0,0.0,0.0,0.0,0.0,0.0,0.0,0.0,0.0,0.0,0.0,0.0,0.0,5.149,5.224,5.2211,0.0,5.0885,0.0,0.0,0.0,0.0,0.0,0.0,0.0,0.0,0.0,0.0,0.0,0.0,0.0,0.0,0.0,0.0,0.0,0.0,0.0,0.0,0.0,0.0,0.0,0.0,0.0,0.0,0.0,0.0,0.0,0.0,0.0,0.0,0.0,0.0,0.0,0.0,0.0,0.0,0.0,0.0,0.0,0.0,0.0,0.0,0.0,0.0,0.0,0.0,0.0,0.0,0.0,0.0,0.0,0.0,0.0,0.0,0.0,0.0,0.0,0.0,0.0,0.0,0.0,0.0,0.0,0.0,0.0,0.0,0.0,0.0,0.0,0.0,0.0,0.0,0.0,0.0,0.0,0.0,0.0,0.0,0.0,0.0,0.0,0.0,0.0,0.0,0.0,0.0,0.0,0.0,0.0,0.0,0.0,0.0,0.0,0.0,0.0,0.0,0.0,0.0,0.0,0.0,0.0,0.0,0.0,0.0,0.0,0.0,0.0,0.0,0.0,5.2395,5.2327,5.1827,0.0,0.0,0.0,0.0,0.0,0.0,0.0,0.0,0.0,0.0,0.0,0.0,0.0,0.0,0.0,0.0,0.0,0.0,0.0,0.0,0.0,0.0,0.0,0.0,0.0,0.0,0.0,0.0,0.0,0.0,0.0,0.0,0.0,0.0,0.0,0.0,0.0,0.0,0.0,0.0,0.0,0.0,0.0,0.0,0.0,0.0,0.0,0.0,0.0,0.0,0.0,0.0,0.0,0.0,0.0,0.0,0.0,0.0,0.0,0.0,0.0,0.0,0.0,0.0,0.0,0.0,0.0,0.0,0.0,0.0,0.0,0.0,0.0,0.0,0.0,0.0,0.0,0.0,0.0,0.0,0.0,0.0,0.0,0.0,0.0,0.0,0.0,0.0,0.0,0.0,0.0,0.0,0.0,0.0,0.0,0.0,0.0,0.0,0.0,0.0,0.0,0.0,0.0,0.0,0.0,0.0,0.0,0.0,0.0,0.0,5.2227,0.0,5.2718,5.2676,5.1997,5.0619,0.0,0.0,0.0,0.0,0.0,0.0,0.0,0.0,0.0,0.0,0.0,0.0,0.0,0.0,0.0,0.0,0.0,0.0,0.0,0.0,0.0,0.0,0.0,0.0,0.0,0.0,0.0,0.0,0.0,0.0,0.0,0.0,0.0,0.0,0.0,0.0,0.0,0.0,0.0,0.0,0.0,0.0,0.0,0.0,0.0,0.0,0.0,0.0,0.0,0.0,0.0,0.0,0.0,0.0,0.0,0.0,0.0,0.0,0.0,0.0,0.0,0.0,0.0,0.0,0.0,0.0,0.0,0.0,0.0,0.0,0.0,0.0,0.0,0.0,0.0,0.0,0.0,0.0,0.0,0.0,0.0,0.0,0.0,0.0,0.0,0.0,0.0,0.0,0.0,0.0,0.0,0.0,0.0,0.0,0.0,0.0,0.0,0.0,0.0,0.0,0.0,0.0,0.0,0.0,0.0,0.0,0.0,0.0,0.0,5.2783,5.2783,5.3499,5.3529,5.2322,0.0,0.0,0.0,0.0,0.0,0.0,0.0,0.0,0.0,0.0,0.0,0.0,0.0,0.0,0.0,0.0,0.0,0.0,0.0,0.0,0.0,0.0,0.0,0.0,0.0,0.0,0.0,0.0,0.0,0.0,0.0,0.0,0.0,0.0,0.0,0.0,0.0,0.0,0.0,0.0,0.0,0.0,0.0,0.0,0.0,0.0,0.0,0.0,0.0,0.0,0.0,0.0,0.0,0.0,0.0,0.0,0.0,0.0,0.0,0.0,0.0,0.0,0.0,0.0,0.0,0.0,0.0,0.0,0.0,0.0,0.0,0.0,0.0,0.0,0.0,0.0,0.0,0.0,0.0,0.0,0.0,0.0,0.0,0.0,0.0,0.0,0.0,0.0,0.0,0.0,0.0,0.0,0.0,0.0,0.0,0.0,0.0,0.0,0.0,0.0,0.0,0.0,0.0,0.0,0.0,0.0,0.0,0.0,0.0,5.2057,5.2304,5.3042,5.4304,5.3359,5.2051,0.0,0.0,0.0,0.0,0.0,0.0,0.0,0.0,0.0,0.0,0.0,0.0,0.0,0.0,0.0,0.0,0.0,0.0,0.0,0.0,0.0,0.0,0.0,0.0,0.0,0.0,0.0,0.0,0.0,0.0,0.0,0.0,0.0,0.0,0.0,0.0,0.0,0.0,0.0,0.0,0.0,0.0,0.0,0.0,0.0,0.0,0.0,0.0,0.0,0.0,0.0,0.0,0.0,0.0,0.0,0.0,0.0,0.0,0.0,0.0,0.0,0.0,0.0,0.0,0.0,0.0,0.0,0.0,0.0,0.0,0.0,0.0,0.0,0.0,0.0,0.0,0.0,0.0,0.0,0.0,0.0,0.0,0.0,0.0,0.0,0.0,0.0,0.0,0.0,0.0,0.0,0.0,0.0,0.0,0.0,0.0,0.0,0.0,0.0,0.0,0.0,0.0,0.0,0.0,0.0,0.0,0.0,0.0,0.0,5.1994,0.0,5.3676,0.0,5.3388,5.1964,0.0,0.0,0.0,0.0,0.0,0.0,0.0,0.0,0.0,0.0,0.0,0.0,0.0,0.0,0.0,0.0,0.0,0.0,0.0,0.0,0.0,0.0,0.0,0.0,0.0,0.0,0.0,0.0,0.0,0.0,0.0,0.0,0.0,0.0,0.0,0.0,0.0,0.0,0.0,0.0,0.0,0.0,0.0,0.0,0.0,0.0,0.0,0.0,0.0,0.0,0.0,0.0,0.0,0.0,0.0,0.0,0.0,0.0,0.0,0.0,0.0,0.0,0.0,0.0,0.0,0.0,0.0,0.0,0.0,0.0,0.0,0.0,0.0,0.0,0.0,0.0,0.0,0.0,0.0,0.0,0.0,0.0,0.0,0.0,0.0,0.0,0.0,0.0,0.0,0.0,0.0,0.0,0.0,0.0,0.0,0.0,0.0,0.0,0.0,0.0,0.0,0.0,0.0,0.0,0.0,0.0,0.0,0.0,5.1978,5.361,5.4479,5.4518,5.3792,5.3676,5.2045,0.0,0.0,0.0,0.0,0.0,0.0,0.0,0.0,0.0,0.0,0.0,0.0,0.0,0.0,0.0,0.0,0.0,0.0,0.0,0.0,0.0,0.0,0.0,0.0,0.0,0.0,0.0,0.0,0.0,0.0,0.0,0.0,0.0,0.0,0.0,0.0,0.0,0.0,0.0,0.0,0.0,0.0,0.0,0.0,0.0,0.0,0.0,0.0,0.0,0.0,0.0,0.0,0.0,0.0,0.0,0.0,0.0,0.0,0.0,0.0,0.0,0.0,0.0,0.0,0.0,0.0,0.0,0.0,0.0,0.0,0.0,0.0,0.0,0.0,0.0,0.0,0.0,0.0,0.0,0.0,0.0,0.0,0.0,0.0,0.0,0.0,0.0,0.0,0.0,0.0,0.0,0.0,0.0,0.0,0.0,0.0,0.0,0.0,0.0,0.0,0.0,0.0,0.0,0.0,0.0,0.0,0.0,0.0,0.0,5.3635,5.3895,5.4477,5.5302,5.3659,5.2521,0.0,0.0,0.0,0.0,0.0,0.0,0.0,0.0,0.0,0.0,0.0,0.0,0.0,0.0,0.0,0.0,0.0,0.0,0.0,0.0,0.0,0.0,0.0,0.0,0.0,0.0,0.0,0.0,0.0,0.0,0.0,0.0,0.0,0.0,0.0,0.0,0.0,0.0,0.0,0.0,0.0,0.0,0.0,0.0,0.0,0.0,0.0,0.0,0.0,0.0,0.0,0.0,0.0,0.0,0.0,0.0,0.0,0.0,0.0,0.0,0.0,0.0,0.0,0.0,0.0,0.0,0.0,0.0,0.0,0.0,0.0,0.0,0.0,0.0,0.0,0.0,0.0,0.0,0.0,0.0,0.0,0.0,0.0,0.0,0.0,0.0,0.0,0.0,0.0,0.0,0.0,0.0,0.0,0.0,0.0,0.0,0.0,0.0,0.0,0.0,0.0,0.0,0.0,0.0,0.0,0.0,0.0,0.0,0.0,5.5482,5.5225,5.5433,5.6223,5.4629,5.3388,5.2665,0.0,0.0,0.0,0.0,0.0,0.0,0.0,0.0,0.0,0.0,0.0,0.0,0.0,0.0,0.0,0.0,0.0,0.0,0.0,0.0,0.0,0.0,0.0,0.0,0.0,0.0,0.0,0.0,0.0,0.0,0.0,0.0,0.0,0.0,0.0,0.0,0.0,0.0,0.0,0.0,0.0,0.0,0.0,0.0,0.0,0.0,0.0,0.0,0.0,0.0,0.0,0.0,0.0,0.0,0.0,0.0,0.0,0.0,0.0,0.0,0.0,0.0,0.0,0.0,0.0,0.0,0.0,0.0,0.0,0.0,0.0,0.0,0.0,0.0,0.0,0.0,0.0,0.0,0.0,0.0,0.0,0.0,0.0,0.0,0.0,0.0,0.0,0.0,0.0,0.0,0.0,0.0,0.0,0.0,0.0,0.0,0.0,0.0,0.0,0.0,0.0,0.0,0.0,0.0,0.0,0.0,0.0,0.0,5.8738,5.8071,5.7363,5.668,5.6368,5.471,0.0,0.0,0.0,0.0,0.0,0.0,0.0,0.0,0.0,0.0,0.0,0.0,0.0,0.0,0.0,0.0,0.0,0.0,0.0,0.0,0.0,0.0,0.0,0.0,0.0,0.0,0.0,0.0,0.0,0.0,0.0,0.0,0.0,0.0,0.0,0.0,0.0,0.0,0.0,0.0,0.0,0.0,0.0,0.0,0.0,0.0,0.0,0.0,0.0,0.0,0.0,0.0,0.0,0.0,0.0,0.0,0.0,0.0,0.0,0.0,0.0,0.0,0.0,0.0,0.0,0.0,0.0,0.0,0.0,0.0,0.0,0.0,0.0,0.0,0.0,0.0,0.0,0.0,0.0,0.0,0.0,0.0,0.0,0.0,0.0,0.0,0.0,0.0,0.0,0.0,0.0,0.0,0.0,0.0,0.0,0.0,0.0,0.0,0.0,0.0,0.0,0.0,0.0,0.0,0.0,0.0,0.0,0.0,0.0,5.9503,6.0034,6.0196,5.9939,5.8095,5.6397,0.0,0.0,0.0,0.0,0.0,0.0,0.0,0.0,0.0,0.0,0.0,0.0,0.0,0.0,0.0,0.0,0.0,0.0,0.0,0.0,0.0,0.0,0.0,0.0,0.0,0.0,0.0,0.0,0.0,0.0,0.0,0.0,0.0,0.0,0.0,0.0,0.0,0.0,0.0,0.0,0.0,0.0,0.0,0.0,0.0,0.0,0.0,0.0,0.0,0.0,0.0,0.0,0.0,0.0,0.0,0.0,0.0,0.0,0.0,0.0,0.0,0.0,0.0,0.0,0.0,0.0,0.0,0.0,0.0,0.0,0.0,0.0,0.0,0.0,0.0,0.0,0.0,0.0,0.0,0.0,0.0,0.0,0.0,0.0,0.0,0.0,0.0,0.0,0.0,0.0,0.0,0.0,0.0,0.0,0.0,0.0,0.0,0.0,0.0,0.0,0.0,0.0,0.0,0.0,0.0,0.0,0.0,0.0,5.8927,6.0954,6.1884,6.2521,6.2881,6.0716,5.849,0.0,0.0,0.0,0.0,0.0,0.0,0.0,0.0,0.0,0.0,0.0,0.0,0.0,0.0,0.0,0.0,0.0,0.0,0.0,0.0,0.0,0.0,0.0,0.0,0.0,0.0,0.0,0.0,0.0,0.0,0.0,0.0,0.0,0.0,0.0,0.0,0.0,0.0,0.0,0.0,0.0,0.0,0.0,0.0,0.0,0.0,0.0,0.0,0.0,0.0,0.0,0.0,0.0,0.0,0.0,0.0,0.0,0.0,0.0,0.0,0.0,0.0,0.0,0.0,0.0,0.0,0.0,0.0,0.0,0.0,0.0,0.0,0.0,0.0,0.0,0.0,0.0,0.0,0.0,0.0,0.0,0.0,0.0,0.0,0.0,0.0,0.0,0.0,0.0,0.0,0.0,0.0,0.0,0.0,0.0,0.0,0.0,0.0,0.0,0.0,0.0,0.0,0.0,0.0,0.0,0.0,0.0,0.0,6.0007,6.2444,6.3458,6.4309,6.5002,6.3413,6.0583,0.0,0.0,0.0,0.0,0.0,0.0,0.0,0.0,0.0,0.0,0.0,0.0,0.0,0.0,0.0,0.0,0.0,0.0,0.0,0.0,0.0,0.0,0.0,0.0,0.0,0.0,0.0,0.0,0.0,0.0,0.0,0.0,0.0,0.0,0.0,0.0,0.0,0.0,0.0,0.0,0.0,0.0,0.0,0.0,0.0,0.0,0.0,0.0,0.0,0.0,0.0,0.0,0.0,0.0,0.0,0.0,0.0,0.0,0.0,0.0,0.0,0.0,0.0,0.0,0.0,0.0,0.0,0.0,0.0,0.0,0.0,0.0,0.0,0.0,0.0,0.0,0.0,0.0,0.0,0.0,0.0,0.0,0.0,0.0,0.0,0.0,0.0,0.0,0.0,0.0,0.0,0.0,0.0,0.0,0.0,0.0,0.0,0.0,0.0,0.0,0.0,0.0,0.0,0.0,0.0,0.0,0.0,0.0,6.0644,6.2393,6.4058,6.4909,6.4929,6.3359,6.1131,0.0,0.0,0.0,0.0,0.0,0.0,0.0,0.0,0.0,0.0,0.0,0.0,0.0,0.0,0.0,0.0,0.0,0.0,0.0,0.0,0.0,0.0,0.0,0.0,0.0,0.0,0.0,0.0,0.0,0.0,0.0,0.0,0.0,0.0,0.0,0.0,0.0,0.0,0.0,0.0,0.0,0.0,0.0,0.0,0.0,0.0,0.0,0.0,4.6813,0.0,0.0,0.0,0.0,0.0,0.0,0.0,0.0,0.0,0.0,0.0,0.0,0.0,0.0,0.0,0.0,0.0,0.0,0.0,0.0,0.0,0.0,0.0,0.0,0.0,0.0,0.0,0.0,0.0,0.0,0.0,0.0,0.0,0.0,0.0,0.0,0.0,0.0,0.0,0.0,0.0,0.0,0.0,0.0,0.0,0.0,0.0,0.0,0.0,0.0,0.0,0.0,0.0,0.0,0.0,0.0,0.0,0.0,0.0,6.1694,6.3628,6.4556,6.5209,6.543,6.3903,6.1833,0.0,0.0,0.0,0.0,0.0,0.0,0.0,0.0,0.0,0.0,0.0,0.0,0.0,0.0,0.0,0.0,0.0,0.0,0.0,0.0,0.0,0.0,0.0,0.0,0.0,0.0,0.0,0.0,0.0,0.0,0.0,0.0,0.0,0.0,0.0,0.0,0.0,0.0,0.0,0.0,0.0,0.0,0.0,0.0,0.0,0.0,0.0,0.0,0.0,0.0,0.0,0.0,0.0,0.0,0.0,0.0,0.0,0.0,0.0,0.0,0.0,0.0,0.0,0.0,0.0,0.0,0.0,0.0,0.0,0.0,0.0,0.0,0.0,0.0,0.0,0.0,0.0,0.0,0.0,0.0,0.0,0.0,0.0,0.0,0.0,0.0,0.0,0.0,0.0,0.0,0.0,0.0,0.0,0.0,0.0,0.0,0.0,0.0,0.0,0.0,0.0,0.0,0.0,0.0,0.0,0.0,0.0,6.1033,6.2599,6.497,6.5114,6.5465,6.6126,6.45,6.249,6.0094,0.0,0.0,0.0,0.0,0.0,0.0,0.0,0.0,0.0,0.0,0.0,0.0,0.0,0.0,0.0,0.0,0.0,0.0,0.0,0.0,0.0,0.0,0.0,0.0,0.0,0.0,0.0,0.0,0.0,0.0,0.0,0.0,0.0,0.0,0.0,0.0,0.0,0.0,4.5791,4.6926,0.0,0.0,0.0,0.0,0.0,0.0,0.0,0.0,4.6014,0.0,0.0,0.0,0.0,0.0,0.0,0.0,0.0,0.0,0.0,0.0,0.0,0.0,0.0,0.0,0.0,0.0,0.0,0.0,0.0,0.0,0.0,0.0,0.0,0.0,0.0,0.0,0.0,0.0,0.0,0.0,0.0,0.0,0.0,0.0,0.0,0.0,0.0,0.0,0.0,0.0,0.0,0.0,0.0,0.0,0.0,0.0,0.0,0.0,0.0,0.0,0.0,0.0,0.0,0.0,0.0,6.12,6.1373,6.2612,6.5009,6.58,6.6162,6.6084,6.4479,6.272,6.0825,0.0,0.0,0.0,0.0,0.0,0.0,0.0,0.0,0.0,0.0,0.0,0.0,0.0,0.0,0.0,0.0,0.0,0.0,0.0,0.0,0.0,0.0,0.0,0.0,0.0,0.0,0.0,0.0,0.0,0.0,0.0,0.0,0.0,0.0,0.0,0.0,0.0,0.0,0.0,4.7401,4.7404,0.0,0.0,0.0,0.0,0.0,0.0,0.0,0.0,4.3458,0.0,0.0,0.0,0.0,0.0,0.0,0.0,0.0,0.0,0.0,0.0,0.0,0.0,0.0,0.0,0.0,0.0,0.0,0.0,0.0,0.0,0.0,0.0,0.0,0.0,0.0,0.0,0.0,0.0,0.0,0.0,0.0,0.0,0.0,0.0,0.0,0.0,0.0,0.0,0.0,0.0,0.0,0.0,0.0,0.0,0.0,0.0,0.0,0.0,0.0,0.0,0.0,0.0,0.0,0.0,6.1301,6.2756,6.4438,6.6446,6.7229,6.7406,6.6843,6.4752,6.2797,0.0,0.0,0.0,0.0,0.0,0.0,0.0,0.0,0.0,0.0,0.0,0.0,0.0,0.0,0.0,0.0,0.0,0.0,0.0,0.0,0.0,0.0,0.0,0.0,0.0,0.0,0.0,0.0,0.0,0.0,0.0,0.0,0.0,0.0,0.0,0.0,0.0,0.0,0.0,0.0,4.7822,4.7962,4.8438,0.0,0.0,0.0,0.0,0.0,0.0,4.4002,4.3172,0.0,0.0,0.0,0.0,0.0,0.0,0.0,0.0,0.0,0.0,0.0,0.0,0.0,0.0,0.0,0.0,0.0,0.0,0.0,0.0,0.0,0.0,0.0,0.0,0.0,0.0,0.0,0.0,0.0,0.0,0.0,0.0,0.0,0.0,0.0,0.0,0.0,0.0,0.0,0.0,0.0,0.0,0.0,0.0,0.0,0.0,0.0,0.0,0.0,0.0,0.0,0.0,0.0,0.0,0.0,6.1445,6.3993,6.6124,6.7772,6.8519,6.8452,6.7581,6.5373,6.3166,0.0,0.0,0.0,0.0,0.0,0.0,0.0,0.0,0.0,0.0,0.0,0.0,0.0,0.0,0.0,0.0,0.0,0.0,0.0,0.0,0.0,0.0,0.0,0.0,0.0,0.0,0.0,0.0,0.0,0.0,0.0,0.0,0.0,0.0,0.0,0.0,0.0,0.0,0.0,0.0,0.0,4.8655,4.8514,4.801,0.0,0.0,0.0,0.0,4.4741,4.4404,0.0,0.0,0.0,0.0,0.0,0.0,0.0,0.0,0.0,0.0,0.0,0.0,0.0,0.0,0.0,0.0,0.0,0.0,0.0,0.0,0.0,0.0,0.0,0.0,0.0,0.0,0.0,0.0,0.0,0.0,0.0,0.0,0.0,0.0,0.0,0.0,0.0,0.0,0.0,0.0,0.0,0.0,0.0,0.0,0.0,0.0,0.0,0.0,0.0,0.0,0.0,0.0,0.0,0.0,0.0,0.0,6.1433,6.3959,6.6088,6.7811,6.8606,6.8524,6.7619,6.6496,6.4366,0.0,0.0,0.0,0.0,0.0,0.0,0.0,0.0,0.0,0.0,0.0,0.0,0.0,0.0,0.0,0.0,0.0,0.0,0.0,0.0,0.0,0.0,0.0,0.0,0.0,0.0,0.0,0.0,0.0,0.0,0.0,0.0,0.0,0.0,0.0,0.0,0.0,0.0,0.0,0.0,0.0,4.9059,4.8505,4.7996,4.7704,0.0,0.0,4.6158,4.5995,4.5865,0.0,0.0,0.0,0.0,0.0,0.0,0.0,0.0,0.0,0.0,0.0,0.0,0.0,0.0,0.0,0.0,0.0,0.0,0.0,0.0,0.0,0.0,0.0,0.0,0.0,0.0,0.0,0.0,0.0,0.0,0.0,0.0,0.0,0.0,0.0,0.0,0.0,0.0,0.0,0.0,0.0,0.0,0.0,0.0,0.0,0.0,0.0,0.0,0.0,0.0,0.0,0.0,0.0,0.0,0.0,5.8687,6.2121,6.515,6.7514,6.925,7.006,7.0033,6.9147,6.7251,6.4831,0.0,0.0,0.0,0.0,0.0,0.0,0.0,0.0,0.0,0.0,0.0,0.0,0.0,0.0,0.0,0.0,0.0,0.0,0.0,0.0,0.0,0.0,0.0,0.0,0.0,0.0,0.0,0.0,0.0,0.0,0.0,0.0,0.0,0.0,0.0,0.0,0.0,0.0,0.0,0.0,0.0,0.0,4.9211,4.8531,0.0,0.0,0.0,4.6338,4.6374,0.0,0.0,0.0,0.0,0.0,0.0,0.0,0.0,0.0,0.0,0.0,0.0,0.0,0.0,0.0,0.0,0.0,0.0,0.0,0.0,0.0,0.0,0.0,0.0,0.0,0.0,0.0,0.0,0.0,0.0,0.0,0.0,0.0,0.0,0.0,0.0,0.0,0.0,0.0,0.0,0.0,0.0,0.0,0.0,0.0,0.0,0.0,0.0,0.0,0.0,0.0,0.0,0.0,0.0,0.0,0.0,0.0,6.2665,6.6295,6.8981,7.065,7.1319,7.1309,7.0615,6.8219,0.0,0.0,0.0,0.0,0.0,0.0,0.0,0.0,0.0,0.0,0.0,0.0,0.0,0.0,0.0,0.0,0.0,0.0,0.0,0.0,0.0,0.0,0.0,0.0,0.0,0.0,0.0,3.9564,0.0,0.0,0.0,0.0,0.0,0.0,0.0,0.0,0.0,0.0,0.0,0.0,0.0,0.0,4.9106,5.0022,4.9319,4.879,0.0,0.0,4.6925,4.6702,4.6213,4.5086,0.0,0.0,0.0,0.0,0.0,0.0,0.0,0.0,0.0,0.0,0.0,0.0,0.0,0.0,0.0,0.0,0.0,0.0,0.0,0.0,0.0,0.0,0.0,0.0,0.0,0.0,0.0,0.0,0.0,0.0,0.0,0.0,0.0,0.0,0.0,0.0,0.0,0.0,0.0,0.0,0.0,0.0,0.0,0.0,0.0,0.0,0.0,0.0,0.0,0.0,0.0,0.0,0.0,0.0,0.0,6.2726,6.6858,6.9842,7.1505,7.1669,7.1636,7.1481,6.9556,6.6552,0.0,0.0,0.0,0.0,0.0,0.0,0.0,0.0,0.0,0.0,0.0,0.0,0.0,0.0,0.0,0.0,0.0,0.0,0.0,0.0,0.0,0.0,0.0,0.0,0.0,0.0,0.0,0.0,0.0,0.0,0.0,0.0,0.0,0.0,0.0,0.0,0.0,0.0,0.0,0.0,0.0,4.8696,5.0714,5.0301,4.9973,0.0,0.0,4.8599,4.7324,4.7653,4.6469,4.194,0.0,0.0,0.0,0.0,0.0,0.0,0.0,0.0,0.0,0.0,0.0,0.0,0.0,0.0,0.0,0.0,0.0,0.0,0.0,0.0,0.0,0.0,0.0,0.0,0.0,0.0,0.0,0.0,0.0,0.0,0.0,0.0,0.0,0.0,0.0,0.0,0.0,0.0,0.0,0.0,0.0,0.0,0.0,0.0,0.0,0.0,0.0,0.0,0.0,0.0,0.0,0.0,0.0,6.0381,6.3464,6.7208,6.9943,7.1622,7.1699,7.1699,7.1645,6.9807,6.7152,0.0,0.0,0.0,0.0,0.0,0.0,0.0,0.0,0.0,0.0,0.0,0.0,0.0,0.0,0.0,0.0,0.0,0.0,0.0,0.0,0.0,0.0,0.0,0.0,0.0,0.0,0.0,0.0,4.1865,4.2103,4.1659,0.0,0.0,0.0,0.0,0.0,0.0,0.0,0.0,0.0,0.0,4.9648,5.1218,5.0862,0.0,0.0,4.9928,4.8874,4.8875,4.7849,4.6153,4.3528,4.2414,0.0,0.0,0.0,0.0,0.0,0.0,0.0,0.0,0.0,0.0,0.0,0.0,0.0,0.0,0.0,0.0,0.0,0.0,0.0,0.0,0.0,0.0,0.0,0.0,0.0,0.0,0.0,0.0,0.0,0.0,0.0,0.0,0.0,0.0,0.0,0.0,0.0,0.0,0.0,0.0,0.0,0.0,0.0,0.0,0.0,0.0,0.0,0.0,0.0,0.0,0.0,0.0,6.0793,6.3983,6.7363,7.0075,7.2025,7.2068,7.2054,7.1995,7.037,6.8098,0.0,0.0,0.0,0.0,0.0,0.0,0.0,0.0,0.0,0.0,0.0,0.0,0.0,0.0,0.0,0.0,0.0,0.0,0.0,0.0,0.0,0.0,0.0,0.0,0.0,0.0,0.0,0.0,4.2131,4.2169,4.1866,0.0,0.0,0.0,0.0,0.0,0.0,0.0,0.0,0.0,0.0,4.9798,5.1424,5.1113,5.089,5.1359,4.9789,4.8701,4.8965,4.7569,4.5845,4.4228,0.0,0.0,0.0,0.0,0.0,0.0,0.0,0.0,0.0,0.0,0.0,0.0,0.0,0.0,0.0,0.0,0.0,0.0,0.0,0.0,0.0,0.0,0.0,0.0,0.0,0.0,0.0,0.0,0.0,0.0,5.1208,0.0,0.0,0.0,0.0,0.0,0.0,0.0,0.0,0.0,0.0,0.0,0.0,0.0,0.0,0.0,0.0,0.0,0.0,0.0,0.0,0.0,0.0,6.1352,6.3983,6.7363,7.0347,7.2847,7.299,7.2874,7.2724,7.1647,6.9355,6.5731,0.0,0.0,0.0,0.0,0.0,0.0,0.0,0.0,0.0,0.0,0.0,0.0,0.0,0.0,0.0,0.0,0.0,0.0,0.0,0.0,0.0,0.0,0.0,0.0,0.0,0.0,4.2292,4.1909,4.1639,0.0,0.0,0.0,0.0,0.0,0.0,0.0,0.0,0.0,0.0,4.749,4.8834,5.1495,5.1005,5.0517,5.0992,4.9658,4.8233,4.7333,4.6854,4.5793,0.0,0.0,0.0,0.0,0.0,0.0,0.0,0.0,0.0,0.0,0.0,0.0,0.0,0.0,0.0,0.0,0.0,0.0,0.0,0.0,0.0,0.0,0.0,0.0,0.0,0.0,0.0,5.2816,5.1366,0.0,0.0,0.0,0.0,0.0,0.0,0.0,0.0,0.0,0.0,0.0,5.6309,5.7119,0.0,0.0,0.0,0.0,0.0,0.0,0.0,0.0,0.0,0.0,0.0,0.0,6.0832,6.3983,6.7354,7.0089,7.2064,7.2691,7.2935,7.2789,7.1743,6.8858,6.3991,0.0,0.0,0.0,0.0,0.0,0.0,0.0,0.0,0.0,0.0,0.0,0.0,0.0,0.0,0.0,0.0,0.0,0.0,0.0,0.0,0.0,0.0,0.0,0.0,0.0,4.2959,0.0,0.0,0.0,0.0,0.0,0.0,0.0,0.0,0.0,0.0,0.0,4.534,4.732,4.8655,5.007,5.1755,5.1663,5.1465,0.0,0.0,0.0,0.0,0.0,0.0,0.0,0.0,0.0,0.0,0.0,0.0,0.0,0.0,4.1854,3.8837,3.6937,3.5765,3.5346,0.0,0.0,0.0,0.0,0.0,0.0,0.0,0.0,0.0,0.0,0.0,0.0,0.0,0.0,5.5278,0.0,5.4702,0.0,0.0,0.0,0.0,0.0,0.0,0.0,0.0,5.7653,5.8803,5.8842,5.9665,5.9435,0.0,5.7516,5.6018,0.0,0.0,0.0,0.0,0.0,0.0,0.0,0.0,6.1259,6.4425,6.7509,6.9933,7.1675,7.2803,7.3052,7.2289,7.083,6.8048,6.3825,6.0494,5.7567,0.0,0.0,0.0,0.0,0.0,0.0,0.0,0.0,0.0,0.0,0.0,0.0,0.0,0.0,0.0,0.0,0.0,0.0,0.0,0.0,0.0,0.0,0.0,4.2783,0.0,0.0,0.0,0.0,0.0,0.0,0.0,0.0,0.0,4.3738,4.4711,4.6124,4.7947,4.8984,5.004,5.1362,0.0,0.0,0.0,0.0,0.0,0.0,0.0,4.6373,4.6075,4.5178,4.4303,4.3562,4.4117,4.4332,4.3406,0.0,0.0,3.8875,3.6851,3.5467,3.4425,3.3454,3.2434,3.1211,3.049,2.9517,0.0,0.0,0.0,0.0,0.0,0.0,0.0,0.0,5.5939,5.8364,0.0,5.7751,0.0,0.0,0.0,0.0,0.0,5.6527,0.0,0.0,6.0866,6.2113,6.2106,6.2911,6.2497,6.1142,6.1632,6.0282,5.7194,5.4746,0.0,0.0,0.0,0.0,0.0,0.0,6.2657,6.5245,6.7845,6.9974,7.1665,7.3278,7.3237,7.1394,6.9163,6.714,6.5237,6.2356,5.894,5.4839,5.3587,0.0,0.0,0.0,0.0,0.0,0.0,0.0,0.0,0.0,0.0,0.0,0.0,0.0,0.0,0.0,0.0,0.0,0.0,0.0,0.0,4.2649,0.0,0.0,0.0,0.0,0.0,0.0,0.0,0.0,0.0,0.0,4.5262,4.5471,4.6344,4.8581,0.0,0.0,0.0,0.0,4.9959,4.9314,4.8952,4.8353,4.6988,4.7247,4.7176,4.5921,0.0,0.0,4.4783,4.4908,4.4673,4.2696,4.239,4.2154,4.1121,3.8398,3.5785,3.3783,3.1929,3.0212,2.8973,2.855,2.7784,6.1646,0.0,0.0,0.0,0.0,5.853,5.8997,5.9406,5.9854,6.0144,6.0144,5.8103,0.0,0.0,0.0,0.0,0.0,0.0,5.8739,6.0134,6.1964,6.3182,6.3796,6.4078,6.3998,6.3569,6.2034,6.0762,5.9777,5.8402,5.6515,5.4227,0.0,0.0,0.0,0.0,6.312,6.5274,6.8356,7.0509,7.1591,7.2741,7.2928,7.2013,6.9923,6.7948,6.6074,6.2735,5.992,5.7707,5.5096,0.0,0.0,0.0,0.0,0.0,0.0,0.0,0.0,0.0,0.0,0.0,0.0,0.0,0.0,0.0,0.0,0.0,0.0,0.0,4.2888,4.3699,4.3697,0.0,0.0,0.0,0.0,0.0,0.0,0.0,0.0,0.0,4.6748,4.6753,4.7138,0.0,0.0,4.8984,4.9819,4.9614,4.9578,4.9952,4.9391,0.0,4.7942,4.7334,4.6851,4.6495,4.6523,4.6303,4.5797,4.5639,4.496,4.3316,4.2321,4.0978,3.8367,3.6628,3.4824,3.2557,3.0698,2.9311,2.8301,2.7244,2.6212,6.5202,6.3166,6.0965,6.0224,6.0536,6.1022,6.1889,6.2883,6.2619,6.2246,6.1717,6.0229,5.8622,5.6936,5.6626,0.0,0.0,0.0,6.068,6.2233,6.3168,6.4063,6.4895,6.5064,6.4985,6.4648,6.3174,6.2249,6.1874,6.1304,5.9604,5.6989,0.0,0.0,5.8046,6.1234,6.4015,6.6212,6.8924,7.0727,7.1559,7.2073,7.2306,7.2174,6.9941,6.8101,6.684,6.327,6.0716,5.9515,5.6106,5.3641,0.0,0.0,0.0,0.0,0.0,0.0,0.0,0.0,0.0,0.0,0.0,4.3775,0.0,0.0,0.0,0.0,4.2892,4.3528,4.4483,4.4902,0.0,0.0,0.0,0.0,0.0,0.0,0.0,4.5727,4.6221,4.702,4.8437,4.8051,4.7965,4.8951,4.9012,4.9222,4.9881,0.0,5.0058,5.0126,4.9861,4.9437,4.8849,4.8136,4.7521,4.7323,4.6827,4.6295,4.6112,4.565,4.473,4.2963,4.1494,3.9429,3.6043,3.45,3.3073,3.1186,2.9601,2.8121,2.7114,2.5996,2.5106,6.8183,6.7764,6.3867,6.2533,6.298,6.3156,6.3857,6.4888,6.4403,6.446,6.4804,6.3353,6.1783,6.0259,5.9444,0.0,6.135,6.2022,6.3137,6.46,6.4561,6.4918,6.5685,6.5923,6.5596,6.4802,6.4778,6.4354,6.3531,6.3421,6.2515,6.0815,6.021,6.025,6.0959,6.2877,6.5141,6.767,6.9467,7.0765,7.1564,7.1376,7.1502,7.1964,6.9306,6.7769,6.7382,6.3804,6.1354,6.0413,5.6833,5.4307,5.3261,0.0,0.0,0.0,0.0,0.0,0.0,0.0,0.0,0.0,0.0,0.0,0.0,0.0,0.0,0.0,4.4373,0.0,4.7009,4.6187,0.0,0.0,0.0,4.4445,4.4331,4.482,4.5696,4.7344,0.0,0.0,5.011,4.9291,4.8884,5.0116,4.9597,4.9397,5.0228,5.0698,5.0869,4.9982,5.0183,5.0241,4.9386,4.8866,4.8355,4.7781,4.7315,4.6547,4.5795,4.5042,4.3691,4.174,3.9861,3.7486,3.4134,3.2159,3.0743,2.9544,2.8221,2.6833,2.5617,2.4866,2.4124,6.9596,6.8924,6.7872,6.642,6.487,6.5522,6.56,6.526,6.5153,6.5172,6.5139,6.3379,6.2346,6.1923,6.1724,6.2504,6.4058,6.4152,6.5003,6.6384,6.5793,6.5893,6.6528,6.6115,6.5832,6.5649,6.5018,6.4609,6.4306,6.4232,6.359,6.2525,6.2962,6.2439,6.1004,6.3968,6.6221,6.7619,6.9902,7.1175,7.1369,7.1154,7.1043,7.1007,6.8947,6.7669,6.7239,6.3652,6.1422,6.0911,5.795,5.5574,5.4012,5.1377,0.0,0.0,0.0,0.0,0.0,0.0,0.0,0.0,0.0,4.5952,4.3545,0.0,4.4578,0.0,4.528,4.6228,4.7277,4.6925,0.0,0.0,4.6557,4.6716,4.6734,4.7415,4.8122,4.8709,4.9044,4.941,4.9894,4.9689,4.9559,4.9634,4.8766,4.8451,4.9161,4.898,4.9222,4.9932,4.9358,4.8764,4.8653,4.7953,4.7143,4.6467,4.5845,4.5164,4.4472,4.304,4.1412,3.9495,3.7175,3.4733,3.2369,2.9837,2.7933,2.69,2.6248,2.5391,2.4208,2.3333,2.256,7.0883,7.0406,7.0463,6.9401,6.7686,6.7413,6.679,6.5972,6.5981,6.5972,6.589,6.4376,6.3463,6.307,6.3398,6.4058,6.4907,6.5595,6.6073,6.6408,6.6343,6.6288,6.6298,6.5974,6.5884,6.5909,6.5447,6.5128,6.5025,6.4956,6.4259,6.2988,6.3876,6.3514,6.2113,6.5041,6.7123,6.8081,7.0158,7.1221,7.121,7.0991,7.0584,6.9988,6.8482,6.7306,6.6484,6.3308,6.1371,6.0833,5.7839,5.5752,5.502,5.2236,5.0128,0.0,0.0,0.0,0.0,0.0,0.0,0.0,0.0,0.0,0.0,0.0,4.5307,4.5555,4.6388,4.7288,4.8275,4.785,4.749,4.7574,4.759,4.7725,4.837,4.8572,4.8863,4.971,4.9574,4.9582,4.9775,4.9414,4.9009,4.8791,4.8324,4.8094,4.861,4.8764,4.9086,4.9555,4.9035,4.8364,4.7999,4.699,4.5919,4.5202,4.4441,4.3659,4.2464,4.0927,3.9269,3.737,3.5139,3.2665,3.048,2.8346,2.6547,2.5219,2.4452,2.3938,2.3258,2.2669,2.2191,7.1867,7.1827,7.1867,7.1399,7.0463,6.8963,6.7823,6.7024,6.7043,6.6946,6.6801,6.5848,6.4903,6.4058,6.4774,6.5139,6.5225,6.6607,6.6871,6.62,6.6786,6.671,6.5981,6.5935,6.591,6.5897,6.5795,6.5717,6.558,6.5321,6.4496,6.313,6.3714,6.3844,6.3565,6.5905,6.7734,6.9015,7.0373,7.1043,7.1025,7.0787,7.0141,6.9088,6.8054,6.6823,6.5382,6.2847,6.1167,6.0461,5.7344,5.568,5.5871,5.3207,5.12,0.0,4.9573,0.0,0.0,0.0,0.0,0.0,0.0,0.0,0.0,4.6329,4.6364,4.6986,4.7819,4.8576,4.9521,4.8848,4.8449,4.8661,4.8157,4.8235,4.9404,4.8913,4.896,5.0227,4.9523,4.9048,4.9502,4.8646,4.7911,4.7906,4.7678,4.7522,4.798,4.8884,4.9362,4.8795,4.8694,4.7809,4.6682,4.5705,4.476,4.3785,4.2973,4.1882,4.0473,3.9057,3.7387,3.5292,3.3387,3.1308,2.8607,2.7297,2.5886,2.3785,2.2924,2.2429,2.2395,2.2384,2.1922,7.1897,7.1887,7.1897,7.139,7.0562,7.0259,6.9616,6.8816,6.8827,6.8382,6.7588,6.7332,6.6687,6.578,6.6012,6.6477,6.7077,6.7366,6.8077,6.9061,6.8385,6.8037,6.7845,6.7072,6.6381,6.5858,6.5701,6.5552,6.5405,6.4717,6.4131,6.3702,6.3418,6.3559,6.4205,0.0,0.0,0.0,7.0825,7.0909,7.0767,7.0578,6.9895,6.878,6.7878,0.0,6.4308,6.2263,6.0648,5.9485,5.8137,0.0,0.0,0.0,0.0,0.0,0.0,0.0,0.0,0.0,0.0,0.0,4.8647,4.8111,4.759,4.8382,4.9076,4.9326,4.978,5.0216,5.0537,5.0105,4.9661,4.925,4.9034,4.9134,4.9785,4.9465,4.9376,4.9811,4.935,4.8941,4.8495,4.8125,4.7557,4.6935,4.6412,4.6036,4.5817,4.7172,4.8154,4.8032,4.6925,4.5657,4.4045,4.3554,4.2815,4.1516,4.1025,4.0065,3.872,3.711,3.5431,3.3492,3.1575,2.9512,2.7069,2.5727,2.4528,2.2555,2.1717,2.1338,2.1481,2.1599,2.1276,7.1838,0.0,7.1887,7.1614,0.0,7.1175,7.0931,7.0453,6.9645,6.8954,6.8412,6.8364,6.8025,6.7501,6.7501,6.7712,6.8116,6.8474,6.8805,6.9027,6.8987,6.8674,6.8196,6.7745,6.7132,6.6354,6.6203,6.5894,6.5352,6.48,6.4089,6.3193,6.3375,6.3561,6.3778,6.5974,6.8193,7.0298,7.0563,7.0652,7.0547,7.0286,6.9467,6.8033,0.0,0.0,0.0,0.0,0.0,0.0,0.0,0.0,0.0,0.0,0.0,5.1869,5.1298,5.068,5.0032,4.9767,4.9883,5.0156,4.9752,4.9378,4.8961,4.9783,5.034,5.0542,5.0549,5.0418,4.9991,4.9604,4.9144,4.8837,4.8694,4.8821,4.9406,4.9024,4.8736,4.8584,4.8145,4.7372,4.6642,4.6207,4.5653,4.4881,4.4842,4.4696,4.4225,4.53,4.6207,4.5482,4.4684,4.3525,4.2025,4.1347,4.085,3.9658,3.8951,3.8207,3.6989,3.5375,3.3731,3.2157,3.0465,2.8537,2.6553,2.5219,2.4164,2.2754,2.1787,2.1274,2.1302,2.0947,2.0455,7.1895,7.2011,7.1916,7.1955,7.2011,7.1895,7.1883,7.1934,0.0,0.0,0.0,6.9218,6.9072,6.8816,6.8668,6.8699,6.8892,6.9464,6.9398,6.8761,6.9442,6.9203,6.828,6.8348,6.7918,6.7084,6.6965,6.6389,6.5454,6.5133,6.4229,6.29,6.3404,6.3664,6.3685,6.6633,6.8712,6.9509,7.0182,7.0455,7.0386,7.0039,6.9096,6.7392,6.7002,6.5683,6.3382,6.1671,6.0726,6.0484,5.8376,5.7092,5.7117,5.6341,5.5044,5.3297,5.3585,5.3212,5.1562,5.1596,5.1489,5.1021,5.0627,5.0263,5.0325,5.055,5.0839,5.1132,5.0847,5.0258,4.9346,4.9017,4.8623,4.8341,4.8011,4.8083,4.8619,4.8133,4.7403,4.7052,4.6295,4.555,4.4667,4.429,4.3663,4.3051,4.3371,4.3331,4.2748,4.3444,4.3894,4.2827,4.2312,4.1452,4.0266,3.95,3.8779,3.7773,3.7222,3.6417,3.5193,3.3851,3.249,3.1168,2.9606,2.8057,2.6386,2.5371,2.4353,2.3032,2.2033,2.119,2.0991,2.0372,1.9771,7.2223,7.2869,7.2128,7.2245,7.2869,7.2094,7.225,7.2834,7.1784,7.0912,7.0121,7.0076,6.9576,6.8777,6.8717,6.9104,6.98,6.9849,7.0141,0.0,7.064,7.0134,6.927,6.913,6.8616,6.7782,6.7719,6.7131,6.6197,6.5403,6.4461,6.3554,6.3144,6.3732,6.5273,6.7218,6.8569,6.9221,7.0011,7.04,7.0286,7.0041,6.9284,6.8022,6.7221,6.5677,6.3326,6.2082,6.0957,5.9796,5.9259,5.8602,5.764,5.6685,5.5585,5.4364,5.3001,5.225,5.236,5.225,5.2309,5.2527,5.2013,5.1247,5.026,5.0222,5.0507,5.1096,5.1061,5.0813,5.0285,5.0011,4.9414,4.849,4.807,4.7486,4.6806,4.6289,4.5714,4.4988,4.4615,4.4104,4.3473,4.3458,4.3197,4.2724,4.2557,4.2226,4.1299,4.1686,4.2074,4.1615,4.074,3.9815,3.874,3.7838,3.6978,3.6412,3.5687,3.481,3.3529,3.2794,3.1672,2.9692,2.9005,2.8,2.6285,2.5567,2.4391,2.275,2.1563,2.0918,2.0226,1.9692,1.9471,7.2692,7.3041,7.2663,7.244,7.2362,7.1961,7.2028,7.2339,7.1952,7.1768,7.1675,7.1141,7.0603,7.0126,7.0042,7.0212,7.0551,7.0464,7.0619,7.0925,7.0843,7.0575,7.0118,6.9948,6.9622,6.9141,6.8126,6.7186,6.6281,6.541,6.4468,6.3676,6.3911,6.4756,6.607,6.7775,6.9005,6.978,7.0133,7.026,7.0076,6.9853,6.9162,6.7964,6.7417,6.6221,6.4228,6.2727,6.1822,6.1645,6.0202,5.9197,5.8765,5.7872,5.6679,5.5143,5.4228,5.3651,5.3453,5.2941,5.256,5.2299,5.1623,5.1126,5.0876,5.1102,5.1379,5.1678,5.1423,5.0944,5.002,4.9501,4.8872,4.7687,4.7056,4.6307,4.5572,4.5013,4.4275,4.3451,4.3402,4.3193,4.2294,4.2438,4.2364,4.1798,4.1337,4.0572,3.9818,3.9714,3.9714,3.9195,3.8603,3.7724,3.6978,3.6004,3.5243,3.4831,3.4199,3.337,3.2289,3.1609,3.0765,2.9547,2.8648,2.7442,2.6036,2.553,2.4415,2.2998,2.1922,2.115,2.0431,1.9771,1.9571,7.3327,7.3406,7.3196,7.2702,7.2117,7.2284,7.244,7.2546,7.2483,7.2627,7.2835,7.1952,7.1397,7.1224,7.113,7.1056,7.1005,7.0925,7.0871,7.0787,7.0787,7.0708,7.0604,7.0457,7.0319,7.0103,6.8555,6.7382,6.6511,6.5644,6.4737,6.4092,6.4807,6.5745,6.665,6.8164,6.9344,7.0179,7.019,7.0124,6.9929,6.9693,6.9064,6.8135,6.7597,6.663,6.5291,6.3566,6.2888,6.3199,6.1122,5.9847,5.9826,5.894,5.7535,5.5786,5.5339,5.4874,5.4085,5.3375,5.2854,5.2398,5.1698,5.1454,5.175,5.2051,5.2085,5.1897,5.1461,5.0735,4.9688,4.8819,4.7925,4.6824,4.5855,4.4988,4.4299,4.3772,4.3238,4.2395,4.2548,4.2452,4.175,4.1546,4.1237,4.0604,3.9836,3.9229,3.8594,3.8105,3.7535,3.6942,3.6659,3.637,3.5563,3.464,3.4075,3.3651,3.2986,3.2205,3.1332,3.052,2.9635,2.8937,2.7963,2.6903,2.6211,2.5616,2.4561,2.2987,2.2147,2.1455,2.0231,1.9606,1.9465,7.4223,7.4146,7.3445,7.3055,7.3068,7.3754,7.4338,7.4716,7.4377,7.3834,7.327,7.203,7.1436,7.1291,7.1154,7.1094,7.1043,7.0925,7.0909,7.0825,7.0729,7.0678,7.0592,7.0391,7.0251,7.0033,6.9089,6.8106,6.7237,6.6329,6.5571,6.4929,6.5313,6.6182,6.7347,6.8221,6.9057,6.9891,6.9923,6.9923,6.9891,6.959,6.9282,6.8878,6.7672,6.6777,6.6043,6.469,6.3811,6.3341,6.2061,6.102,6.0523,5.9212,5.7739,5.6258,5.5402,5.4665,5.392,5.3418,5.3409,5.3706,5.3282,5.2918,5.2545,5.2281,5.1817,5.1308,5.0758,5.0216,4.9469,4.8326,4.7262,4.6194,4.4841,4.3553,4.2846,4.2578,4.2486,4.2118,4.2082,4.2171,4.1655,4.1049,4.036,3.9453,3.8853,3.8213,3.7241,3.6883,3.6424,3.5586,3.5704,3.5651,3.5003,3.41,3.3483,3.3226,3.2344,3.1362,3.0412,2.9592,2.8628,2.7968,2.7279,2.6563,2.6248,2.5738,2.4702,2.317,2.1984,2.0761,1.9204,1.8663,1.8967,7.4795,7.4379,7.4014,7.3859,7.387,7.3726,7.4077,7.4689,7.4521,7.4184,7.3703,7.269,7.1823,7.1263,7.1632,7.1801,7.164,7.1612,7.1555,7.1419,7.0907,7.0592,7.0462,7.0328,7.0185,6.989,6.9094,6.8223,6.7276,6.5989,6.5047,6.4785,6.5803,6.667,6.7201,6.8449,6.9319,6.9699,6.9625,6.9585,6.9457,6.9378,6.9108,6.88,6.7951,6.7206,6.6478,6.5213,6.4215,6.3483,6.2094,6.131,6.1189,5.9319,5.8015,5.7446,5.5668,5.474,5.4885,5.3885,5.3377,5.3489,5.2868,5.2406,5.2078,5.1432,5.0819,5.0269,4.9967,4.9508,4.8682,4.7385,4.608,4.5135,4.3927,4.2949,4.2189,4.1978,4.177,4.1419,4.1481,4.1352,4.088,4.0121,3.9286,3.8348,3.7724,3.6997,3.6129,3.5757,3.5331,3.4683,3.4333,3.4142,3.4007,3.3015,3.2375,3.1781,3.1046,2.9983,2.9146,2.881,2.8136,2.7304,2.6613,2.6273,2.6091,2.5604,2.4921,2.3204,2.1465,2.0066,1.8689,1.8514,1.9039,7.547,7.4756,7.4521,7.4533,7.4689,7.4077,7.4311,7.4961,7.4613,7.4522,7.4612,7.3294,7.2242,7.1621,7.2097,7.2146,7.1785,7.1948,7.188,7.1513,7.0853,7.049,7.0396,7.0223,7.0041,6.9702,6.8944,6.8149,6.7315,6.6068,6.5238,6.5308,6.6473,6.7105,6.7251,6.8617,6.9336,6.9416,6.9347,6.9185,6.9072,6.8921,6.8729,6.8468,6.793,6.7305,6.6618,6.5536,6.4657,6.3931,6.2533,6.1669,6.1467,5.9667,5.8424,5.7809,5.5933,5.4816,5.5283,5.4112,5.332,5.2991,5.2469,5.1943,5.1506,5.0652,4.9858,4.9035,4.8452,4.7833,4.7561,4.6066,4.4767,4.4027,4.3075,4.2061,4.1444,4.1154,4.0976,4.0645,4.0593,4.0292,3.9313,3.8688,3.7925,3.6696,3.6272,3.6029,3.5279,3.4773,3.4434,3.3806,3.3063,3.2901,3.2917,3.2109,3.1135,3.0484,2.9816,2.8978,2.7968,2.7799,2.7461,2.6613,2.6103,2.5763,2.5592,2.5263,2.4578,2.3193,2.1465,1.9728,1.8864,1.8689,1.8864,7.6339,7.5468,7.4717,7.4847,7.5509,7.5507,7.6052,7.6599,7.5079,7.5104,7.5828,7.3782,7.253,7.2284,7.2342,7.1766,7.1094,7.1735,7.1666,7.0984,7.0598,7.0419,7.0386,7.0076,6.9816,6.9664,6.8981,6.8187,6.7429,6.6935,6.6776,6.6773,6.7223,6.7576,6.7785,6.8451,6.89,6.8997,6.8993,6.8908,6.8744,6.8305,6.8054,6.7967,6.7506,6.6889,6.6258,6.5697,6.5176,6.4636,6.3588,6.2579,6.1394,6.0358,5.8934,5.7165,5.5937,5.5027,5.4474,5.3946,5.3385,5.2953,5.2502,5.2159,5.1016,5.0017,4.8846,4.7695,4.6129,4.5405,4.5868,4.4535,4.3404,4.3279,4.1911,4.0906,4.0431,4.0287,4.0002,3.9668,3.9528,3.8863,3.7194,3.6756,3.6056,3.5051,3.4848,3.4722,3.4249,3.4189,3.3532,3.2616,3.2067,3.2098,3.2098,3.1105,3.0136,2.9481,2.881,2.7968,2.7474,2.6965,2.6443,2.5933,2.5421,2.508,2.4749,2.4235,2.3548,2.2503,2.1118,1.9902,1.9039,1.8689,1.8864,7.6481,7.5599,7.4755,7.4872,7.5651,7.5664,7.6144,7.6869,7.6155,7.5361,7.4761,7.4221,7.3998,7.3814,7.3622,7.3054,7.2402,7.3137,7.2997,7.2057,7.1422,7.0819,7.0147,7.0004,6.9815,6.9662,6.9357,6.8789,6.7957,6.7271,6.6845,6.6833,6.7285,6.756,6.7617,6.8203,6.866,6.8763,6.8721,6.8585,6.842,6.7982,6.757,6.7174,6.6794,6.6319,6.5887,6.5313,6.4564,6.3659,6.3066,6.2468,6.1792,6.0314,5.882,5.7333,5.5616,5.4722,5.4608,5.3562,5.2659,5.2117,5.159,5.0601,4.9448,4.8532,4.7289,4.5725,4.4548,4.3867,4.3287,4.2696,4.2293,4.1911,4.1164,4.041,3.9965,3.9689,3.926,3.9027,3.8334,3.6848,3.5827,3.5166,3.4637,3.402,3.3925,3.364,3.3111,3.2928,3.2484,3.1422,3.047,2.9955,2.9955,2.9635,2.9146,2.8473,2.7968,2.7292,2.6613,2.6273,2.5933,2.5421,2.4749,2.4407,2.4235,2.3892,2.3031,2.1984,2.0761,2.0076,1.9039,1.8864,1.9039,7.6612,7.6015,7.5443,7.5521,7.6015,7.6013,7.6334,7.6848,7.6361,7.5469,7.4614,7.4731,7.4755,7.467,7.4681,7.4074,7.3161,7.3586,7.3361,7.2383,7.1474,7.0682,7.0042,6.9853,6.9737,6.962,6.9574,6.9193,6.8706,6.794,6.7509,6.7373,6.7672,6.7746,6.7666,6.8148,6.842,6.8405,6.8352,6.8219,6.801,6.7539,6.7089,6.6548,6.6172,6.5796,6.5539,6.5046,6.4288,6.3484,6.3093,6.2621,6.1834,6.0027,5.8396,5.7307,5.5621,5.451,5.4331,5.3111,5.179,5.0989,5.0154,4.9019,4.7626,4.6798,4.561,4.4183,4.3227,4.2431,4.1584,4.1084,4.0906,4.0669,4.0258,3.9683,3.9218,3.88,3.8306,3.7518,3.6404,3.5299,3.4554,3.4077,3.3576,3.3,3.2986,3.266,3.1857,3.1632,3.1301,3.0317,2.9467,2.8796,2.8292,2.7954,2.7786,2.7292,2.6953,2.6273,2.5933,2.5592,2.5421,2.4738,2.4407,2.4064,2.372,2.3376,2.2675,2.1628,2.1118,2.0598,1.9737,1.9214,1.9388,7.6879,7.6731,7.684,7.6723,7.6692,7.6684,7.6731,7.6591,7.5739,7.5531,7.5503,7.5099,7.4758,7.4724,7.5187,7.4542,7.3181,7.3031,7.2538,7.1588,7.0646,7.0118,6.9891,6.9697,6.9539,6.9378,6.9402,6.9402,6.9344,6.8935,6.8676,6.8651,6.8283,6.8124,6.8033,6.8033,6.8047,6.7949,6.7901,6.7728,6.7369,6.6976,6.6582,6.6207,6.564,6.5349,6.5282,6.4843,6.4498,6.4145,6.3923,6.3102,6.1361,5.9369,5.7793,5.7008,5.5801,5.4628,5.35,5.2323,5.0961,4.9702,4.8647,4.7482,4.62,4.5257,4.4328,4.3208,4.2349,4.1383,4.0388,3.9754,3.9473,3.9625,3.9396,3.8885,3.8041,3.7806,3.7105,3.5594,3.4672,3.4077,3.3529,3.3139,3.292,3.2149,3.1956,3.1811,3.0954,3.0651,3.015,2.93,2.846,2.7954,2.6953,2.6103,2.6103,2.5933,2.5604,2.5263,2.5092,2.4749,2.4578,2.4064,2.3709,2.3376,2.3204,2.3031,2.2686,2.1984,2.1475,2.0955,2.0434,1.9911,1.9921,7.6908,7.6879,7.6883,7.6855,7.6793,7.6777,7.6729,7.663,7.6103,7.5851,7.5726,7.5442,7.5293,7.5201,7.5281,7.4673,7.3571,7.3383,7.2624,7.1333,7.0877,7.0346,6.9773,6.9536,6.9411,6.9246,6.9102,6.8929,6.89,6.8754,6.848,6.8148,6.8235,6.807,6.7667,6.7757,6.772,6.7594,6.7577,6.7415,6.7101,6.674,6.6379,6.5867,6.5247,6.4843,6.4671,6.4428,6.418,6.382,6.3371,6.2425,6.0788,5.8912,5.7496,5.6579,5.4981,5.3482,5.2301,5.1183,4.9816,4.8416,4.739,4.5935,4.4497,4.3802,4.2888,4.1811,4.1069,4.0367,3.9375,3.8583,3.8283,3.8507,3.8388,3.8021,3.7308,3.6683,3.5576,3.4127,3.3602,3.3182,3.2633,3.2444,3.1962,3.1609,3.1287,3.0568,3.0093,2.9649,2.9146,2.815,2.7461,2.694,2.6273,2.5592,2.5251,2.5116,2.4785,2.4648,2.4465,2.4178,2.3982,2.357,2.3226,2.3031,2.2859,2.2686,2.2514,2.2168,2.1649,2.1128,2.0607,2.0453,2.0308,7.684,7.6809,7.6855,7.6809,7.6726,7.6651,7.6612,7.6591,7.6276,7.588,7.5588,7.5551,7.5274,7.4941,7.4714,7.3992,7.2928,7.2696,7.1859,7.072,7.0911,7.0526,6.9872,6.9407,6.9166,6.902,6.8735,6.8591,6.8442,6.8235,6.8033,6.7789,6.7826,6.7757,6.7341,6.7433,6.7378,6.721,6.7174,6.6983,6.6656,6.6324,6.5871,6.5384,6.4706,6.4182,6.3788,6.3422,6.3233,6.3007,6.2313,6.0688,5.8723,5.7337,5.6347,5.5108,5.35,5.2028,5.0962,4.9589,4.83,4.6891,4.5693,4.4497,4.3028,4.2443,4.167,4.0657,4.0061,3.9448,3.8285,3.7489,3.7139,3.7144,3.7311,3.7187,3.6683,3.5646,3.4574,3.35,3.3242,3.2868,3.2634,3.1864,3.1325,3.1257,3.0525,2.9561,2.9104,2.8473,2.7812,2.7304,2.6783,2.6273,2.5592,2.508,2.4407,2.4281,2.4166,2.405,2.3911,2.3872,2.3578,2.3391,2.2978,2.287,2.2686,2.2686,2.2514,2.2168,2.1649,2.1302,2.0801,2.0375,2.0247,7.676,7.6687,7.676,7.669,7.6573,7.6514,7.6482,7.6508,7.6139,7.5703,7.5283,7.5344,7.4938,7.4143,7.3991,7.304,7.1483,7.1365,7.0825,7.0173,7.0319,7.046,6.9948,6.9191,6.8833,6.866,6.8457,6.8269,6.8097,6.7789,6.756,6.7451,6.7286,6.721,6.7097,6.7117,6.7055,6.6931,6.678,6.6451,6.6018,6.5541,6.5127,6.4533,6.3898,6.3165,6.2445,6.1589,6.1508,6.1975,6.0637,5.851,5.5907,5.522,5.4565,5.3078,5.1593,5.0489,4.9362,4.8094,4.6679,4.5232,4.4127,4.2776,4.1911,4.1271,4.0622,3.967,3.9128,3.8345,3.7164,3.623,3.578,3.5508,3.5925,3.6211,3.5797,3.4623,3.372,3.3465,3.3125,3.3002,3.2733,3.1971,3.1198,3.0685,2.9759,2.8615,2.7954,2.7474,2.6965,2.6613,2.6103,2.5763,2.5433,2.4749,2.4247,2.4132,2.3866,2.3631,2.362,2.337,2.339,2.3217,2.2858,2.2751,2.2708,2.2729,2.2535,2.2168,2.1822,2.1475,2.1015,2.0404,1.9981,7.6594,7.6553,7.6534,7.6471,7.6397,7.6297,7.6314,7.6255,7.5864,7.5408,7.501,7.5019,7.4863,7.4437,7.3711,7.2797,7.1886,7.1614,7.111,7.0261,7.0068,6.9752,6.922,6.8734,6.8446,6.8284,6.8068,6.7726,6.7614,6.747,6.719,6.6809,6.7092,6.6939,6.6632,6.6704,6.6873,6.6916,6.6258,6.5958,6.5717,6.4804,6.3939,6.309,6.2489,6.1669,6.0738,5.9425,5.8984,5.9599,5.8627,5.7309,5.55,5.4184,5.3001,5.1933,5.0652,4.9247,4.786,4.6654,4.5329,4.4003,4.3028,4.2038,4.0777,4.0105,3.9389,3.8523,3.7769,3.6793,3.564,3.4834,3.4147,3.3732,3.4504,3.48,3.4162,3.3614,3.3182,3.277,3.2857,3.2838,3.232,3.1407,3.0368,2.9788,2.8642,2.7461,2.7122,2.6783,2.6443,2.6286,2.5945,2.5604,2.5092,2.4578,2.4086,2.3982,2.376,2.3414,2.313,2.3021,2.3063,2.3171,2.2934,2.2794,2.2815,2.2837,2.2436,2.1843,2.1649,2.1312,2.085,2.0413,2.0018,7.6471,7.6444,7.6405,7.6335,7.625,7.6186,7.609,7.5964,7.5704,7.5201,7.479,7.4824,7.4544,7.3959,7.3081,7.2208,7.1374,7.0949,7.033,6.9776,6.9293,6.8791,6.8371,6.8197,6.8049,6.781,6.781,6.7724,6.7528,6.7375,6.7282,6.745,6.7258,6.7198,6.7249,6.6792,6.6817,6.6856,6.5942,6.5122,6.512,6.3897,6.2866,6.1883,6.1102,6.0063,5.8536,5.7057,5.6772,5.712,5.655,5.5219,5.3568,5.2337,5.1211,5.0236,4.8815,4.7367,4.6245,4.506,4.3935,4.273,4.1911,4.1035,4.0127,3.932,3.836,3.7554,3.638,3.5425,3.4353,3.3839,3.3191,3.2748,3.3092,3.35,3.3314,3.3074,3.2793,3.2616,3.2545,3.2437,3.1707,3.0513,2.9649,2.881,2.7799,2.7122,2.6443,2.6273,2.5933,2.5775,2.5604,2.5263,2.508,2.4566,2.4086,2.381,2.3671,2.3184,2.3074,2.288,2.3042,2.3192,2.2823,2.2727,2.2627,2.2452,2.1792,2.1383,2.1332,2.1025,2.0413,2.0027,1.9784,7.6374,7.6374,7.635,7.6276,7.6145,7.6062,7.5917,7.566,7.5462,7.5094,7.4636,7.4781,7.419,7.3018,7.2341,7.1357,7.0405,6.976,6.9237,6.8958,6.8679,6.8373,6.7888,6.7819,6.761,6.7356,6.775,6.777,6.7678,6.7554,6.7896,6.7948,6.7625,6.774,6.7486,6.7064,6.6872,6.6497,6.4911,6.3979,6.3631,6.2595,6.1399,6.0365,5.9161,5.7806,5.6225,5.494,5.4607,5.5379,5.4404,5.2665,5.0429,4.9938,4.9221,4.812,4.6898,4.5585,4.4622,4.3445,4.2233,4.1588,4.0777,4.0018,3.9363,3.8458,3.7482,3.6435,3.5431,3.4312,3.3134,3.2981,3.2524,3.1959,3.2211,3.2673,3.2981,3.2714,3.2414,3.2679,3.2458,3.1707,3.0905,3.0055,2.9146,2.8136,2.7122,2.6443,2.6103,2.5933,2.5775,2.5604,2.5263,2.5092,2.4738,2.4543,2.4098,2.3799,2.3593,2.3391,2.3214,2.3171,2.3203,2.3203,2.2829,2.2662,2.236,2.1924,2.1243,2.0842,2.0705,2.0185,1.9692,1.9518,1.9301,7.6198,7.6145,7.6034,7.6015,7.5925,7.5699,7.5561,7.5421,7.5171,7.4824,7.4506,7.4487,7.3883,7.2829,7.2041,7.1096,7.0301,6.9461,6.8948,6.903,6.952,6.8804,6.7934,6.7524,6.7232,6.7099,6.7509,6.7576,6.749,6.7819,6.8046,6.7753,6.7614,6.7302,6.6919,6.6144,6.561,6.5434,6.3742,6.2582,6.1983,6.087,5.9601,5.8423,5.6738,5.527,5.4083,5.2857,5.2187,5.1943,5.1562,5.0767,4.969,4.8691,4.786,4.6985,4.5764,4.4622,4.363,4.2408,4.1264,4.0732,3.9866,3.9078,3.8171,3.7652,3.6717,3.5489,3.4519,3.33,3.1859,3.1729,3.1458,3.1077,3.137,3.1858,3.1842,3.1771,3.1925,3.2232,3.2159,3.1707,3.0447,2.9523,2.8473,2.7292,2.6443,2.5775,2.5604,2.5604,2.5604,2.5433,2.508,2.4897,2.4738,2.4395,2.4086,2.3787,2.3581,2.3226,2.3228,2.3133,2.3101,2.3009,2.2936,2.2599,2.2219,2.1491,2.0657,2.044,2.0045,1.9688,1.9204,1.901,1.8766,7.6034,7.5879,7.5826,7.5801,7.5737,7.5604,7.5392,7.5171,7.4937,7.4573,7.4243,7.4214,7.3794,7.3153,7.2294,7.1471,7.0443,6.9171,6.8851,6.9191,6.9299,6.845,6.7811,6.7474,6.7244,6.6665,6.7349,6.754,6.7504,6.769,6.7976,6.7936,6.733,6.686,6.627,6.5199,6.4596,6.3958,6.2282,6.0929,6.034,5.9211,5.7555,5.6152,5.4522,5.3308,5.2028,5.1044,5.0154,4.9589,4.9019,4.8736,4.8515,4.7717,4.6849,4.6105,4.4598,4.3612,4.2683,4.1452,4.0232,3.9997,3.9231,3.8562,3.7746,3.7054,3.5931,3.4883,3.3679,3.2284,3.0718,3.0902,3.0772,3.0438,3.0637,3.0801,3.0801,3.1083,3.1435,3.1512,3.1332,3.0592,2.9467,2.8796,2.763,2.6443,2.6091,2.5592,2.5433,2.5433,2.5433,2.5263,2.4885,2.4714,2.4566,2.4407,2.4086,2.3937,2.3914,2.3398,2.3021,2.2909,2.2924,2.2841,2.2568,2.2182,2.1639,2.0915,2.018,1.958,1.9174,1.8992,1.8664,1.8575,1.8133,7.5856,7.566,7.566,7.5595,7.5532,7.5465,7.5209,7.4937,7.4733,7.4356,7.4009,7.3934,7.3714,7.3305,7.2708,7.1913,7.0785,6.9739,6.9446,6.9868,6.9249,6.8444,6.7876,6.768,6.7195,6.615,6.713,6.7478,6.7228,6.7352,6.753,6.786,6.6862,6.6072,6.5691,6.4404,6.323,6.2355,6.0522,5.8992,5.8341,5.7273,5.5789,5.3773,5.2751,5.1674,5.0378,4.9388,4.8611,4.7912,4.6874,4.6755,4.6874,4.6636,4.5963,4.5574,4.3716,4.2646,4.1993,4.0489,3.9217,3.9341,3.8387,3.7766,3.7211,3.636,3.5294,3.4126,3.2947,3.1446,3.0296,3.0376,3.0392,3.019,2.9964,2.9972,2.9903,3.0349,3.0454,3.0898,3.0642,2.9898,2.8755,2.7915,2.6758,2.5933,2.5568,2.5409,2.5421,2.5433,2.5263,2.508,2.4702,2.4531,2.4395,2.4235,2.4086,2.3754,2.3914,2.3097,2.2599,2.2091,2.1954,2.2224,2.1969,2.1439,2.0847,2.0116,1.9384,1.8643,1.8459,1.8451,1.8292,1.7949,1.7667,7.5724,7.5599,7.5462,7.5318,7.5208,7.5056,7.4857,7.4606,7.4342,7.416,7.3971,7.3875,7.3342,7.2721,7.2534,7.1839,7.105,7.0401,7.0364,7.0423,6.9913,6.9261,6.8214,6.782,6.7055,6.6593,6.6962,6.7109,6.6798,6.6885,6.6588,6.6373,6.5574,6.4951,6.3857,6.2672,6.116,6.0195,5.8493,5.6934,5.5852,5.514,5.3906,5.1674,5.0906,5.0014,4.9019,4.8003,4.7442,4.7324,4.6396,4.5914,4.5671,4.5306,4.4988,4.457,4.331,4.2051,4.1405,3.9604,3.8444,3.7811,3.7109,3.6208,3.5781,3.5364,3.4487,3.3085,3.1877,3.0716,2.9777,3.0053,2.9974,2.9754,2.9748,2.9582,2.9193,2.9079,2.9392,2.9948,2.9656,2.9188,2.8171,2.7304,2.6462,2.581,2.5495,2.5373,2.5433,2.5263,2.5263,2.4885,2.4508,2.436,2.4224,2.4064,2.3903,2.357,2.3248,2.2315,2.1659,2.1047,2.0821,2.1175,2.12,2.0692,2.0033,1.9306,1.8778,1.8416,1.8256,1.8079,1.807,1.7877,1.7529,7.5595,7.5356,7.5209,7.5056,7.4977,7.4774,7.4563,7.4297,7.4019,7.3777,7.3628,7.3476,7.2875,7.234,7.2563,7.2257,7.1746,7.0567,7.0483,7.0509,6.9868,6.8929,6.7998,6.7578,6.6692,6.5868,6.585,6.5984,6.5613,6.5474,6.505,6.4129,6.3367,6.2359,6.1216,5.9918,5.8681,5.7505,5.6388,5.5189,5.3917,5.346,5.1783,5.0378,4.9362,4.8584,4.756,4.7112,4.6516,4.6155,4.5428,4.4939,4.4446,4.4051,4.3903,4.366,4.2613,4.1309,4.0453,3.866,3.7461,3.6984,3.6111,3.5603,3.5037,3.4577,3.3448,3.1792,3.1277,3.0327,2.9308,2.9649,2.9523,2.9086,2.9061,2.889,2.8461,2.8235,2.8473,2.8804,2.844,2.7808,2.7354,2.6671,2.5974,2.5674,2.5228,2.5313,2.5409,2.5263,2.5092,2.4714,2.4349,2.4041,2.3892,2.372,2.3548,2.3215,2.2578,2.1638,2.093,2.0327,2.0101,2.0259,2.0098,1.9903,1.9401,1.8854,1.8524,1.8363,1.8144,1.8127,1.816,1.7989,1.7429,7.5389,7.5133,7.4977,7.4857,7.4729,7.4519,7.4252,7.3971,7.3641,7.3438,7.3268,7.3108,7.2613,7.2226,7.2466,7.265,7.2312,7.0387,7.0093,6.9975,6.9035,6.784,6.7256,6.6711,6.6002,6.4827,6.3822,6.402,6.4252,6.3773,6.2775,6.179,6.0729,5.9446,5.8215,5.7403,5.6093,5.5138,5.4369,5.3759,5.2751,5.1319,4.996,4.8842,4.8379,4.756,4.6541,4.5793,4.5428,4.4939,4.4299,4.3678,4.3302,4.2776,4.2464,4.2186,4.1398,4.0405,3.9035,3.74,3.6384,3.5976,3.5218,3.4907,3.4379,3.3162,3.1772,3.0484,3.005,3.0,2.9071,2.9056,2.89,2.8431,2.8118,2.7833,2.7471,2.7227,2.6947,2.7068,2.6796,2.6678,2.6466,2.6067,2.5396,2.553,2.5252,2.5119,2.5044,2.508,2.4909,2.4543,2.4201,2.372,2.3559,2.3376,2.3031,2.2514,2.1731,2.0959,2.0299,1.9608,1.9554,1.9305,1.9236,1.9005,1.8702,1.8541,1.8321,1.8127,1.816,1.8144,1.7901,1.7577,1.7242,7.5056,7.4895,7.4649,7.4432,7.4289,7.4243,7.3923,7.3527,7.3424,7.3305,7.3037,7.2982,7.2761,7.2483,7.2218,7.2094,7.1562,7.0714,6.9807,6.9314,6.8127,6.7112,6.6272,6.5326,6.4515,6.3311,6.1873,6.2094,6.2236,6.1466,6.049,5.951,5.8206,5.7049,5.605,5.5247,5.4371,5.3525,5.2844,5.1948,5.0709,4.8866,4.8153,4.7691,4.7112,4.6421,4.5696,4.4939,4.4199,4.3927,4.2799,4.2166,4.2016,4.1706,4.0595,3.9779,3.9411,3.9427,3.8212,3.6425,3.5059,3.4639,3.3731,3.2954,3.2436,3.1593,3.056,3.0253,2.9634,2.91,2.8646,2.846,2.8133,2.7805,2.7319,2.7004,2.6612,2.6347,2.606,2.56,2.5501,2.5741,2.5853,2.5261,2.4831,2.5156,2.5277,2.4973,2.4838,2.4897,2.4555,2.4189,2.3858,2.3548,2.3215,2.3042,2.2341,2.1811,2.1054,2.0286,1.9418,1.8733,1.8575,1.8317,1.8408,1.8441,1.8289,1.8289,1.8079,1.8087,1.8111,1.7861,1.7403,1.7111,1.7048,7.4695,7.4649,7.4438,7.4297,7.4056,7.3826,7.3628,7.3372,7.3145,7.2927,7.2723,7.261,7.2401,7.213,7.1369,7.1024,7.0865,7.0058,6.9095,6.8077,6.6908,6.5808,6.4704,6.3437,6.2396,6.14,5.9928,5.8765,5.9175,5.8818,5.8031,5.681,5.5883,5.4837,5.3892,5.3303,5.2618,5.182,5.11,4.9978,4.8679,4.7743,4.6949,4.661,4.6035,4.5453,4.4693,4.4175,4.3302,4.2799,4.1806,4.1013,4.0408,3.9844,3.9066,3.7595,3.7011,3.6714,3.6034,3.4897,3.4066,3.3321,3.2653,3.1943,3.1109,3.0451,2.9728,2.9434,2.8886,2.8475,2.8175,2.7833,2.7333,2.7018,2.6531,2.6215,2.5805,2.5384,2.5051,2.4551,2.4238,2.4608,2.498,2.4818,2.4603,2.4601,2.4755,2.4691,2.4543,2.4395,2.4029,2.3652,2.3331,2.3204,2.3031,2.2859,2.1811,2.1149,2.0774,1.9823,1.8535,1.8002,1.7802,1.7965,1.8239,1.8256,1.8062,1.807,1.807,1.8062,1.8062,1.762,1.7195,1.6763,1.6486,7.4476,7.4387,7.426,7.4113,7.3912,7.3527,7.332,7.3162,7.2945,7.2684,7.238,7.2108,7.1805,7.1359,7.044,6.9975,6.9884,6.8833,6.7763,6.6592,6.5259,6.4028,6.2745,6.134,6.0079,5.9175,5.7376,5.6331,5.5789,5.5294,5.4711,5.4186,5.3761,5.2678,5.1736,5.1211,5.0846,5.0037,4.9186,4.8224,4.7291,4.6831,4.625,4.5671,4.5061,4.4446,4.3678,4.3051,4.2293,4.1248,4.0495,3.9583,3.8576,3.8075,3.7463,3.6189,3.533,3.4464,3.4061,3.339,3.2862,3.2429,3.1709,3.0862,3.0269,2.9898,2.9544,2.8856,2.8431,2.8018,2.7717,2.7203,2.6702,2.6228,2.5594,2.5276,2.4996,2.4653,2.4405,2.4033,2.3734,2.3528,2.3915,2.4164,2.4186,2.4205,2.4198,2.4372,2.4064,2.3892,2.3525,2.3148,2.317,2.3031,2.2859,2.2341,2.1292,2.0453,2.0072,1.9301,1.8152,1.7723,1.7689,1.7851,1.7997,1.7965,1.7884,1.7981,1.8046,1.7908,1.7636,1.7356,1.6842,1.6591,1.573,7.4432,7.4056,7.4019,7.3875,7.3578,7.3513,7.3108,7.2705,7.2757,7.2585,7.2108,7.162,7.1074,7.0539,6.9778,6.8877,6.8111,6.7467,6.6085,6.4629,6.3242,6.195,6.0501,5.9101,5.7656,5.666,5.5041,5.392,5.3043,5.1933,5.1878,5.2212,5.1681,5.0531,4.9798,4.948,4.8991,4.8224,4.7534,4.6942,4.618,4.5671,4.5184,4.4792,4.4175,4.3553,4.2799,4.1761,4.0603,3.954,3.8639,3.7709,3.6884,3.6515,3.584,3.4897,3.3946,3.3086,3.2498,3.2107,3.1693,3.1314,3.0559,2.9885,2.9464,2.8744,2.8403,2.8218,2.779,2.7231,2.6783,2.6294,2.5924,2.5435,2.4958,2.4811,2.4332,2.3864,2.3579,2.3359,2.3143,2.3202,2.315,2.3458,2.3798,2.3812,2.3722,2.372,2.3548,2.3204,2.3031,2.2848,2.2848,2.2686,2.2514,2.1995,2.1118,2.0076,1.9453,1.8673,1.7704,1.7469,1.7583,1.7672,1.7794,1.7754,1.7746,1.7644,1.7644,1.7451,1.7254,1.6949,1.5946,1.5279,1.4397,7.4206,7.4009,7.3728,7.3564,7.3305,7.2853,7.2372,7.2002,7.2372,7.2206,7.1464,7.0704,7.0129,6.9529,6.8607,6.7673,6.6542,6.5426,6.4054,6.2554,6.1113,5.9711,5.8225,5.6855,5.5495,5.4389,5.2845,5.1516,5.0791,4.9583,4.9037,4.9196,4.9418,4.9054,4.842,4.791,4.7385,4.6951,4.632,4.5789,4.4792,4.457,4.395,4.2925,4.2799,4.2038,4.1271,4.0344,3.9299,3.8262,3.7348,3.6403,3.5412,3.5043,3.4471,3.3707,3.2681,3.2086,3.1529,3.1023,3.0647,3.0206,2.9656,2.9064,2.8744,2.8261,2.7762,2.7435,2.7162,2.6612,2.6149,2.5487,2.497,2.4652,2.4492,2.4172,2.3852,2.3371,2.3108,2.2959,2.2841,2.2905,2.2866,2.2987,2.3291,2.3425,2.332,2.3204,2.302,2.2686,2.2514,2.2341,2.2341,2.2005,2.1843,2.1312,2.0607,1.9737,1.8689,1.8058,1.7444,1.7364,1.7469,1.7543,1.7591,1.7419,1.727,1.7317,1.7104,1.7026,1.6826,1.6547,1.548,1.4171,1.3451,7.3729,7.349,7.3052,7.2939,7.2871,7.2144,7.1567,7.1216,7.1428,7.1139,7.0248,6.9601,6.9017,6.8301,6.7236,6.5746,6.4563,6.3246,6.1726,6.0178,5.8634,5.7483,5.606,5.4575,5.3115,5.2154,5.0931,4.967,4.9213,4.8379,4.7703,4.7468,4.7324,4.7205,4.7138,4.6522,4.5966,4.5478,4.5184,4.4521,4.3475,4.32,4.2822,4.1783,4.1271,4.0473,3.9625,3.8898,3.7954,3.7164,3.6211,3.5368,3.4546,3.378,3.3314,3.252,3.1759,3.1183,3.0804,3.034,2.9729,2.9258,2.8836,2.8388,2.8104,2.7619,2.7291,2.6908,2.6373,2.5818,2.5193,2.4689,2.4172,2.3852,2.3852,2.3532,2.3199,2.2889,2.2832,2.2588,2.2531,2.2499,2.2572,2.2653,2.2685,2.2955,2.2987,2.2859,2.2859,2.2514,2.2168,2.1822,2.1649,2.1322,2.0995,2.0279,1.9563,1.9214,1.8339,1.7814,1.7362,1.7274,1.7315,1.7339,1.721,1.7095,1.6829,1.6749,1.6734,1.6672,1.6162,1.5459,1.4584,1.3269,1.2904,7.2763,7.2423,7.2013,7.2115,7.2353,7.1311,7.0725,7.0314,6.9872,6.928,6.8638,6.8246,6.7649,6.6724,6.5334,6.3636,6.1948,6.1053,5.9556,5.748,5.6333,5.5477,5.436,5.2845,5.1239,5.0375,4.9301,4.8379,4.8029,4.6968,4.6396,4.5914,4.5646,4.5525,4.5746,4.5327,4.4516,4.3752,4.3659,4.3148,4.2512,4.1956,4.136,4.0735,3.9713,3.8772,3.8419,3.7577,3.676,3.6047,3.5508,3.4667,3.3783,3.3088,3.2473,3.1938,3.1157,3.0667,3.0128,2.9336,2.8857,2.8458,2.809,2.7633,2.7476,2.7162,2.6477,2.5911,2.5371,2.4676,2.4209,2.3728,2.3383,2.3211,2.3211,2.3199,2.2878,2.2647,2.2436,2.2464,2.2299,2.2107,2.2311,2.2471,2.246,2.2481,2.2675,2.2503,2.233,2.1984,2.1475,2.1312,2.0955,2.0453,1.9949,1.9223,1.8689,1.8339,1.7989,1.7463,1.7112,1.6985,1.7001,1.6993,1.692,1.6533,1.6288,1.6029,1.5687,1.5371,1.4711,1.412,1.3251,1.2739,1.255,7.2795,7.3015,7.241,7.186,7.1257,7.0071,6.9379,6.8902,6.7971,6.7152,6.6445,6.599,6.5261,6.4123,6.2502,6.0835,5.9315,5.8073,5.669,5.5089,5.4099,5.3509,5.2543,5.1405,4.9874,4.8965,4.7834,4.7205,4.6874,4.5671,4.4939,4.4546,4.3927,4.3802,4.4075,4.3765,4.2928,4.2696,4.2486,4.1949,4.1338,4.0432,3.9773,3.9305,3.8099,3.7415,3.7311,3.656,3.58,3.5463,3.4931,3.3929,3.3086,3.2256,3.1684,3.1039,3.0284,2.9679,2.8924,2.8273,2.7976,2.7776,2.749,2.6847,2.6373,2.6056,2.5332,2.4623,2.4234,2.3692,2.3419,2.3073,2.2889,2.305,2.305,2.2889,2.2602,2.2436,2.2266,2.251,2.2305,2.1863,2.1729,2.1384,2.1191,2.116,2.115,2.1231,2.0905,2.0752,2.0424,2.0269,2.0105,1.959,1.9066,1.8523,1.7989,1.7639,1.7463,1.7288,1.7112,1.6936,1.6832,1.6896,1.6441,1.5988,1.5789,1.5202,1.4567,1.3889,1.3554,1.3397,1.3081,1.255,1.2361,7.2406,7.2391,7.1479,7.0454,6.9537,6.8708,6.7914,6.6989,6.6016,6.4766,6.3517,6.3165,6.2606,6.134,5.9847,5.7917,5.6479,5.5588,5.3917,5.2465,5.1811,5.1652,5.1072,4.9843,4.8126,4.725,4.6747,4.6276,4.555,4.4669,4.3802,4.3051,4.2293,4.2166,4.2339,4.207,4.1865,4.1544,4.111,4.0716,3.9886,3.9094,3.8326,3.7611,3.6757,3.6152,3.6239,3.5887,3.5216,3.4938,3.4323,3.3318,3.2346,3.1559,3.1039,3.0062,2.9189,2.8744,2.8104,2.6833,2.6662,2.6847,2.6544,2.5898,2.5263,2.4933,2.4234,2.356,2.314,2.2878,2.2763,2.2418,2.2406,2.2728,2.2567,2.2245,2.2128,2.1959,2.1728,2.1976,2.1853,2.1402,2.0875,2.0278,1.9895,1.9675,1.9465,1.955,1.9625,1.947,1.9342,1.9214,1.9048,1.8523,1.8182,1.7998,1.7463,1.7112,1.7112,1.6936,1.6936,1.6761,1.6695,1.6433,1.5943,1.5492,1.497,1.4375,1.3709,1.3216,1.2887,1.2722,1.2739,1.255,1.2172,7.1398,7.061,6.9126,6.798,6.7235,6.6778,6.5951,6.4665,6.393,6.2094,5.9563,6.01,5.9696,5.8789,5.7659,5.5841,5.3856,5.3213,5.1604,5.0018,4.9529,4.9772,4.9368,4.809,4.6744,4.5849,4.5303,4.5037,4.4299,4.3553,4.2673,4.1783,4.0862,4.0495,4.0475,4.0367,4.0277,4.0012,3.9837,3.9157,3.8345,3.7636,3.7144,3.6367,3.572,3.5414,3.5246,3.4954,3.4667,3.4297,3.3552,3.294,3.206,3.0953,3.0237,2.9245,2.8302,2.7919,2.7175,2.5898,2.5263,2.5422,2.4786,2.4467,2.4308,2.3976,2.346,2.2968,2.2533,2.2245,2.2117,2.1933,2.1761,2.1761,2.1761,2.1621,2.1492,2.1185,2.1118,2.1022,2.0707,2.0382,1.9817,1.9269,1.8494,1.807,1.7871,1.8044,1.8104,1.794,1.8009,1.8156,1.7814,1.7288,1.7112,1.7112,1.6936,1.6585,1.6761,1.6761,1.6761,1.6593,1.6156,1.5876,1.5578,1.4979,1.4231,1.3641,1.3017,1.2688,1.2494,1.2345,1.2339,1.2356,1.2172,6.9455,6.9064,6.7945,6.6497,6.4628,6.2293,6.2514,6.4252,6.1611,5.8578,5.6419,5.6326,5.6274,5.5842,5.3963,5.2434,5.1428,5.0543,4.9829,4.8776,4.7867,4.8126,4.7782,4.6831,4.5635,4.4792,4.4328,4.4051,4.3553,4.2673,4.0991,3.9713,3.9299,3.866,3.8304,3.7986,3.8336,3.8357,3.8295,3.7677,3.6829,3.6016,3.5858,3.5572,3.4855,3.466,3.4721,3.4484,3.4162,3.3528,3.3011,3.2423,3.1188,3.042,2.9808,2.8302,2.7675,2.7217,2.6228,2.5263,2.4467,2.384,2.3187,2.3038,2.3038,2.2878,2.2556,2.2223,2.2061,2.1772,2.1783,2.161,2.1599,2.1438,2.1286,2.0984,2.0884,2.0466,2.0386,1.9881,1.9733,1.9223,1.8636,1.7904,1.7132,1.6695,1.6458,1.645,1.6631,1.6647,1.6909,1.7063,1.6928,1.6585,1.6409,1.6409,1.6233,1.6057,1.6233,1.6233,1.6057,1.5911,1.5624,1.5355,1.491,1.4094,1.3102,1.2847,1.2557,1.2399,1.2218,1.2091,1.2134,1.2134,1.2129,6.7986,6.7043,6.5865,6.3714,6.0884,5.8374,5.8824,6.0088,5.7963,5.5367,5.2842,5.3268,5.3266,5.2807,5.1316,4.9911,4.8951,4.83,4.742,4.6481,4.6424,4.627,4.5893,4.5366,4.445,4.3719,4.3239,4.2799,4.227,4.0862,3.9057,3.8416,3.7729,3.7193,3.6809,3.6674,3.6519,3.6634,3.6479,3.6169,3.5587,3.4815,3.4882,3.4642,3.3893,3.4213,3.4189,3.3769,3.3327,3.2674,3.2283,3.1363,3.0253,2.9698,2.8599,2.7347,2.6625,2.6109,2.5276,2.3988,2.3348,2.2717,2.1911,2.1492,2.1665,2.1838,2.1632,2.1599,2.1438,2.1438,2.1448,2.1448,2.1448,2.1276,2.0973,2.0507,2.021,1.9933,1.9437,1.891,1.8397,1.7887,1.7247,1.6514,1.5927,1.5647,1.5406,1.5204,1.5572,1.579,1.6063,1.6202,1.6225,1.5881,1.5881,1.5881,1.5704,1.5704,1.5881,1.5881,1.5528,1.5374,1.507,1.4661,1.4081,1.3406,1.27,1.2363,1.2236,1.208,1.1922,1.1949,1.1998,1.2042,1.2036,6.6493,6.4627,6.2795,5.9761,5.6296,5.5096,5.4602,5.4345,5.4074,5.2053,4.9647,5.0572,5.0889,5.0331,4.9197,4.8078,4.7217,4.6398,4.5589,4.3857,4.4282,4.4352,4.4101,4.3216,4.299,4.2599,4.2051,4.1399,4.0366,3.9188,3.8262,3.7482,3.6674,3.6112,3.586,3.5568,3.5158,3.4846,3.4822,3.4658,3.4418,3.4171,3.4144,3.3177,3.3134,3.3405,3.3089,3.2609,3.2074,3.1711,3.1225,3.0144,2.9279,2.8515,2.7278,2.6544,2.5844,2.5008,2.4172,2.3027,2.2073,2.1427,2.0455,2.0569,2.0774,2.1274,2.1242,2.133,2.1319,2.1481,2.1481,2.1459,2.1276,2.0952,2.0638,2.0018,1.9647,1.8913,1.8175,1.7639,1.7124,1.6745,1.6585,1.5843,1.5454,1.4974,1.459,1.4388,1.4395,1.4792,1.5038,1.5506,1.5168,1.5175,1.5352,1.5352,1.5352,1.5352,1.5352,1.5175,1.4822,1.4666,1.4694,1.4071,1.3617,1.315,1.246,1.209,1.1908,1.1786,1.1803,1.1803,1.1846,1.19,1.1933,6.3068,6.1588,5.8265,5.555,5.3499,5.2081,5.1535,5.1366,4.9635,4.8553,4.7903,4.846,4.8808,4.8415,4.7319,4.6249,4.5616,4.4815,4.4421,4.3647,4.3301,4.2901,4.2914,4.2226,4.1754,4.1361,4.0773,3.9953,3.9057,3.8129,3.7327,3.6654,3.584,3.5177,3.4822,3.4408,3.3992,3.3472,3.3214,3.3285,3.3214,3.2984,3.2595,3.2604,3.2912,3.2509,3.2156,3.1831,3.1268,3.0593,3.019,2.9182,2.7947,2.7134,2.6268,2.5538,2.5072,2.4221,2.3222,2.2234,2.1427,2.0779,2.0313,2.0283,2.0354,2.0878,2.1011,2.1263,2.1221,2.1394,2.1351,2.1308,2.1114,2.0627,2.014,1.9529,1.8922,1.7918,1.6869,1.6349,1.5813,1.566,1.5667,1.5499,1.5132,1.4759,1.4055,1.3689,1.367,1.3859,1.4204,1.4462,1.4285,1.4292,1.4646,1.4822,1.4646,1.4292,1.4115,1.4115,1.4122,1.4306,1.4142,1.361,1.2949,1.2657,1.2141,1.1905,1.1569,1.165,1.1683,1.1683,1.1683,1.1721,1.1775,6.0257,5.828,5.4749,5.2518,5.1139,4.9917,4.956,4.9415,4.7659,4.6283,4.5622,4.6366,4.695,4.6705,4.5554,4.48,4.4173,4.325,4.2627,4.2372,4.2013,4.1644,4.1319,4.0994,4.059,3.9993,3.8976,3.8026,3.7575,3.6789,3.5996,3.5704,3.4902,3.4149,3.3842,3.3372,3.2985,3.2736,3.1998,3.182,3.2039,3.2064,3.1926,3.1977,3.1926,3.1478,3.0792,3.0438,2.9974,2.9353,2.8759,2.7776,2.6751,2.6017,2.5461,2.4701,2.4073,2.3419,2.2418,2.1599,2.08,2.014,1.9642,1.9434,1.959,1.994,2.0156,2.0271,2.0196,2.0206,2.061,2.0507,2.0181,1.9845,1.9182,1.8383,1.7373,1.6438,1.5763,1.5339,1.5211,1.5108,1.4973,1.4735,1.4374,1.4228,1.3753,1.35,1.3337,1.304,1.3401,1.3761,1.3584,1.3413,1.3761,1.3761,1.3761,1.3407,1.323,1.3584,1.4122,1.3945,1.3768,1.3236,1.271,1.2183,1.1827,1.1632,1.1465,1.1542,1.1558,1.1558,1.1558,1.1569,1.1612,5.7495,5.5027,5.1929,5.0062,4.9139,4.8389,4.8209,4.8195,4.6823,4.4874,4.3269,4.4407,4.5209,4.5096,4.4332,4.3653,4.2737,4.1589,4.0946,4.0481,4.0094,3.9904,3.9752,3.9362,3.8959,3.8151,3.7258,3.6689,3.6112,3.5431,3.4902,3.4627,3.401,3.3405,3.3092,3.2788,3.236,3.1767,3.117,3.0893,3.1137,3.1596,3.1044,3.0934,3.0714,3.0577,2.9523,2.89,2.8431,2.7961,2.7319,2.6306,2.5503,2.4895,2.4308,2.3704,2.3234,2.2452,2.1665,2.0874,2.0038,1.9375,1.8865,1.8777,1.8928,1.8985,1.9199,1.9285,1.9203,1.9323,1.9736,1.9712,1.9548,1.8951,1.8119,1.7312,1.6165,1.5108,1.482,1.4543,1.4472,1.4534,1.4365,1.3954,1.3885,1.3727,1.3441,1.3346,1.3079,1.2644,1.2514,1.2875,1.3053,1.3053,1.3053,1.323,1.323,1.3053,1.3053,1.3591,1.3945,1.3945,1.3768,1.3053,1.252,1.2165,1.181,1.1455,1.1465,1.1471,1.1482,1.1504,1.1498,1.1325,1.1303,5.4306,5.169,4.9764,4.8458,4.7804,4.7215,4.691,4.6567,4.5523,4.388,4.2571,4.2207,4.2831,4.3827,4.2862,4.2125,4.1468,4.0199,3.9561,3.9304,3.8687,3.8516,3.8231,3.7712,3.7126,3.6415,3.5763,3.5412,3.4746,3.4195,3.378,3.3363,3.2806,3.2298,3.1804,3.1422,3.1003,3.0499,2.99,2.9421,2.9213,2.9502,2.9731,2.9426,2.902,2.8359,2.779,2.7476,2.7162,2.6702,2.5898,2.4882,2.4234,2.3939,2.3508,2.2889,2.2418,2.1676,2.0895,2.0283,1.9627,1.9154,1.8825,1.8843,1.8772,1.8265,1.8338,1.8438,1.8493,1.8838,1.9151,1.8951,1.8739,1.8081,1.732,1.6381,1.5315,1.4776,1.4408,1.4288,1.3954,1.3978,1.4013,1.3682,1.3594,1.3288,1.2854,1.2747,1.2589,1.2113,1.181,1.2165,1.252,1.2875,1.2875,1.2875,1.3053,1.2881,1.2881,1.3236,1.3591,1.3945,1.3591,1.2875,1.2698,1.2343,1.1988,1.1455,1.146,1.1465,1.146,1.1465,1.1455,1.1099,1.0921]},{"header":{"parameterUnit":"m.s-1","parameterCategory":1,"la1":31.0,"la2":29.5877,"lo1":-88.7671,"lo2":-86.6584,"dy":0.0162,"dx":0.0185,"nx":115,"ny":88,"refTime":"2024-11-28T06:00:00:Z","depth":0,"parameterNumber":3,"parameterNumberName":"V-component_of_WINDS"},"data":[0.0,0.0,0.0,0.0,0.0,0.0,0.0,0.0,0.0,0.0,0.0,0.0,0.0,0.0,0.0,0.0,0.0,0.0,0.0,0.0,0.0,0.0,0.0,0.0,0.0,0.0,0.0,0.0,0.0,0.0,0.0,0.0,0.0,0.0,0.0,0.0,0.0,0.0,0.0,0.0,0.0,0.0,0.0,0.0,0.0,0.0,0.0,0.0,0.0,0.0,0.0,0.0,0.0,0.0,0.0,0.0,0.0,0.0,0.0,0.0,0.0,0.0,0.0,0.0,0.0,0.0,0.0,0.0,0.0,0.0,0.0,0.0,0.0,0.0,0.0,0.0,0.0,0.0,0.0,0.0,0.0,0.0,0.0,0.0,0.0,0.0,0.0,0.0,0.0,0.0,0.0,0.0,0.0,0.0,0.0,0.0,0.0,0.0,0.0,0.0,0.0,0.0,0.0,0.0,0.0,0.0,0.0,0.0,0.0,0.0,0.0,0.0,0.0,0.0,0.0,0.0,0.0,0.0,0.0,0.0,0.0,0.0,0.0,0.0,0.0,0.0,0.0,0.0,0.0,0.0,0.0,0.0,0.0,0.0,0.0,0.0,0.0,0.0,0.0,0.0,0.0,0.0,0.0,0.0,0.0,0.0,0.0,0.0,0.0,0.0,0.0,0.0,0.0,0.0,0.0,0.0,0.0,0.0,0.0,0.0,0.0,0.0,0.0,0.0,0.0,0.0,0.0,0.0,0.0,0.0,0.0,0.0,0.0,0.0,0.0,0.0,0.0,0.0,0.0,0.0,0.0,0.0,0.0,0.0,0.0,0.0,0.0,0.0,0.0,0.0,0.0,0.0,0.0,0.0,0.0,0.0,0.0,0.0,0.0,0.0,0.0,0.0,0.0,0.0,0.0,0.0,0.0,0.0,0.0,0.0,0.0,0.0,0.0,0.0,0.0,0.0,0.0,0.0,0.0,0.0,0.0,0.0,0.0,0.0,0.0,0.0,0.0,0.0,0.0,0.0,0.0,0.0,0.0,0.0,0.0,0.0,0.0,0.0,0.0,0.0,0.0,0.0,0.0,0.0,0.0,0.0,0.0,0.0,0.0,0.0,0.0,0.0,0.0,0.0,0.0,0.0,0.0,0.0,0.0,0.0,0.0,0.0,0.0,0.0,0.0,0.0,0.0,0.0,0.0,0.0,0.0,0.0,0.0,0.0,0.0,0.0,0.0,0.0,0.0,0.0,0.0,0.0,0.0,0.0,0.0,0.0,0.0,0.0,0.0,0.0,0.0,0.0,0.0,0.0,0.0,0.0,0.0,0.0,0.0,0.0,0.0,0.0,0.0,0.0,0.0,0.0,0.0,0.0,0.0,0.0,0.0,0.0,0.0,0.0,0.0,0.0,0.0,0.0,0.0,0.0,0.0,0.0,0.0,0.0,0.0,0.0,0.0,0.0,0.0,0.0,0.0,0.0,0.0,0.0,0.0,0.0,0.0,0.0,0.0,0.0,0.0,0.0,0.0,0.0,0.0,0.0,0.0,0.0,0.0,0.0,0.0,0.0,0.0,0.0,0.0,0.0,0.0,0.0,0.0,0.0,0.0,0.0,0.0,0.0,0.0,0.0,0.0,0.0,0.0,0.0,0.0,0.0,0.0,0.0,0.0,0.0,0.0,0.0,0.0,0.0,0.0,0.0,0.0,0.0,0.0,0.0,0.0,0.0,0.0,0.0,0.0,0.0,0.0,0.0,0.0,0.0,0.0,0.0,0.0,0.0,0.0,0.0,0.0,0.0,0.0,0.0,0.0,0.0,0.0,0.0,0.0,0.0,0.0,0.0,0.0,0.0,0.0,0.0,0.0,0.0,0.0,0.0,0.0,0.0,0.0,0.0,0.0,0.0,0.0,0.0,0.0,0.0,0.0,0.0,0.0,0.0,0.0,0.0,0.0,0.0,0.0,0.0,0.0,0.0,0.0,0.0,0.0,0.0,0.0,0.0,0.0,0.0,0.0,0.0,0.0,0.0,0.0,0.0,0.0,0.0,0.0,0.0,0.0,0.0,0.0,0.0,0.0,0.0,0.0,0.0,0.0,0.0,0.0,0.0,0.0,0.0,0.0,0.0,0.0,0.0,0.0,0.0,0.0,0.0,0.0,0.0,0.0,0.0,0.0,0.0,0.0,0.0,0.0,0.0,0.0,0.0,0.0,0.0,0.0,0.0,0.0,0.0,0.0,0.0,0.0,0.0,0.0,0.0,0.0,0.0,0.0,0.0,0.0,0.0,0.0,0.0,0.0,0.0,0.0,0.0,0.0,0.0,0.0,0.0,0.0,0.0,0.0,0.0,0.0,0.0,0.0,0.0,0.0,0.0,0.0,0.0,0.0,0.0,0.0,0.0,0.0,0.0,0.0,0.0,0.0,0.0,0.0,0.0,0.0,0.0,0.0,0.0,0.0,0.0,0.0,0.0,0.0,0.0,0.0,0.0,0.0,0.0,0.0,0.0,0.0,0.0,0.0,0.0,0.0,0.0,0.0,0.0,0.0,0.0,0.0,0.0,0.0,0.0,0.0,0.0,0.0,0.0,0.0,0.0,0.0,0.0,0.0,0.0,0.0,0.0,0.0,0.0,0.0,0.0,0.0,0.0,0.0,0.0,0.0,0.0,0.0,0.0,0.0,0.0,0.0,0.0,0.0,0.0,0.0,0.0,0.0,0.0,0.0,0.0,0.0,0.0,0.0,0.0,0.0,0.0,0.0,0.0,0.0,0.0,0.0,0.0,0.0,0.0,0.0,0.0,0.0,0.0,0.0,0.0,0.0,0.0,0.0,0.0,0.0,0.0,0.0,0.0,0.0,0.0,0.0,0.0,0.0,0.0,0.0,0.0,0.0,0.0,0.0,0.0,0.0,0.0,0.0,0.0,0.0,0.0,0.0,0.0,0.0,0.0,0.0,0.0,0.0,0.0,0.0,0.0,0.0,0.0,0.0,0.0,0.0,0.0,0.0,0.0,0.0,0.0,0.0,0.0,0.0,0.0,0.0,0.0,0.0,0.0,0.0,0.0,0.0,0.0,0.0,0.0,0.0,0.0,0.0,0.0,0.0,0.0,0.0,0.0,0.0,0.0,0.0,0.0,0.0,0.0,0.0,0.0,0.0,0.0,0.0,0.0,0.0,0.0,0.0,0.0,0.0,0.0,0.0,0.0,0.0,0.0,0.0,0.0,0.0,0.0,0.0,0.0,0.0,0.0,0.0,0.0,0.0,0.0,0.0,0.0,0.0,0.0,0.0,0.0,0.0,0.0,0.0,0.0,0.0,0.0,0.0,0.0,0.0,0.0,0.0,0.0,0.0,0.0,0.0,0.0,0.0,0.0,0.0,0.0,0.0,0.0,0.0,0.0,0.0,0.0,0.0,0.0,0.0,0.0,0.0,0.0,0.0,0.0,0.0,0.0,0.0,0.0,0.0,0.0,0.0,0.0,0.0,0.0,0.0,0.0,0.0,0.0,0.0,0.0,0.0,0.0,0.0,0.0,0.0,0.0,0.0,0.0,0.0,0.0,0.0,0.0,0.0,0.0,0.0,0.0,0.0,0.0,0.0,0.0,0.0,0.0,0.0,0.0,0.0,0.0,0.0,0.0,0.0,0.0,0.0,0.0,0.0,0.0,0.0,0.0,0.0,0.0,0.0,0.0,0.0,0.0,0.0,0.0,0.0,0.0,0.0,0.0,0.0,0.0,0.0,0.0,0.0,0.0,0.0,0.0,0.0,0.0,0.0,0.0,0.0,0.0,0.0,0.0,0.0,0.0,0.0,0.0,0.0,0.0,0.0,0.0,0.0,0.0,0.0,0.0,0.0,0.0,0.0,0.0,0.0,0.0,0.0,0.0,0.0,0.0,0.0,0.0,0.0,0.0,0.0,0.0,0.0,0.0,0.0,0.0,0.0,0.0,0.0,0.0,0.0,0.0,0.0,0.0,0.0,0.0,0.0,0.0,0.0,0.0,0.0,0.0,0.0,0.0,0.0,0.0,0.0,0.0,0.0,0.0,0.0,0.0,0.0,0.0,0.0,0.0,0.0,0.0,0.0,0.0,0.0,0.0,0.0,0.0,0.0,0.0,0.0,0.0,0.0,0.0,0.0,0.0,0.0,0.0,0.0,0.0,0.0,0.0,0.0,0.0,0.0,0.0,0.0,0.0,0.0,0.0,0.0,0.0,0.0,0.0,0.0,0.0,0.0,0.0,0.0,0.0,0.0,0.0,0.0,0.0,0.0,0.0,0.0,0.0,-0.7238,0.0,0.0,0.0,0.0,0.0,0.0,0.0,0.0,0.0,0.0,0.0,0.0,0.0,0.0,0.0,0.0,0.0,0.0,0.0,0.0,0.0,0.0,0.0,0.0,0.0,0.0,0.0,0.0,0.0,0.0,0.0,0.0,0.0,0.0,0.0,0.0,0.0,0.0,0.0,0.0,0.0,0.0,0.0,0.0,0.0,0.0,0.0,0.0,0.0,0.0,0.0,0.0,0.0,0.0,0.0,0.0,0.0,0.0,0.0,0.0,0.0,0.0,0.0,0.0,0.0,0.0,0.0,0.0,0.0,0.0,0.0,0.0,0.0,0.0,0.0,0.0,0.0,0.0,0.0,0.0,0.0,0.0,0.0,0.0,0.0,0.0,0.0,0.0,0.0,0.0,0.0,0.0,0.0,0.0,0.0,0.0,0.0,0.0,0.0,0.0,0.0,0.0,0.0,0.0,0.0,0.0,0.0,0.0,0.0,0.0,-0.5605,-0.6047,-0.6381,-0.6604,-0.6932,0.0,0.0,0.0,0.0,0.0,0.0,0.0,0.0,0.0,0.0,0.0,0.0,0.0,0.0,0.0,0.0,0.0,0.0,0.0,0.0,0.0,0.0,0.0,0.0,0.0,0.0,0.0,0.0,0.0,0.0,0.0,0.0,0.0,0.0,0.0,0.0,0.0,0.0,0.0,0.0,0.0,0.0,0.0,0.0,0.0,0.0,0.0,0.0,0.0,0.0,0.0,0.0,0.0,0.0,0.0,0.0,0.0,0.0,0.0,0.0,0.0,0.0,0.0,0.0,0.0,0.0,0.0,0.0,0.0,0.0,0.0,0.0,0.0,0.0,0.0,0.0,0.0,0.0,0.0,0.0,0.0,0.0,0.0,0.0,0.0,0.0,0.0,0.0,0.0,0.0,0.0,0.0,0.0,0.0,0.0,0.0,0.0,0.0,0.0,0.0,0.0,0.0,0.0,0.0,0.0,0.0,0.0,0.0,0.0,0.0,0.0,0.0,-0.6415,-0.6852,-0.7049,0.0,0.0,0.0,0.0,0.0,0.0,0.0,0.0,0.0,0.0,0.0,0.0,0.0,0.0,0.0,0.0,0.0,0.0,0.0,0.0,0.0,0.0,0.0,0.0,0.0,0.0,0.0,0.0,0.0,0.0,0.0,0.0,0.0,0.0,0.0,0.0,0.0,0.0,0.0,0.0,0.0,0.0,0.0,0.0,0.0,0.0,0.0,0.0,0.0,0.0,0.0,0.0,0.0,0.0,0.0,0.0,0.0,0.0,0.0,0.0,0.0,0.0,0.0,0.0,0.0,0.0,0.0,0.0,0.0,0.0,0.0,0.0,0.0,0.0,0.0,0.0,0.0,0.0,0.0,0.0,0.0,0.0,0.0,0.0,0.0,0.0,0.0,0.0,0.0,0.0,0.0,0.0,0.0,0.0,0.0,0.0,0.0,0.0,0.0,0.0,0.0,0.0,0.0,0.0,0.0,0.0,0.0,0.0,0.0,0.0,-0.598,-0.5952,-0.6526,0.0,-0.7832,0.0,0.0,0.0,0.0,0.0,0.0,0.0,0.0,0.0,0.0,0.0,0.0,0.0,0.0,0.0,0.0,0.0,0.0,0.0,0.0,0.0,0.0,0.0,0.0,0.0,0.0,0.0,0.0,0.0,0.0,0.0,0.0,0.0,0.0,0.0,0.0,0.0,0.0,0.0,0.0,0.0,0.0,0.0,0.0,0.0,0.0,0.0,0.0,0.0,0.0,0.0,0.0,0.0,0.0,0.0,0.0,0.0,0.0,0.0,0.0,0.0,0.0,0.0,0.0,0.0,0.0,0.0,0.0,0.0,0.0,0.0,0.0,0.0,0.0,0.0,0.0,0.0,0.0,0.0,0.0,0.0,0.0,0.0,0.0,0.0,0.0,0.0,0.0,0.0,0.0,0.0,0.0,0.0,0.0,0.0,0.0,0.0,0.0,0.0,0.0,0.0,0.0,0.0,0.0,0.0,0.0,0.0,0.0,0.0,0.0,0.0,-0.597,-0.6541,-0.7053,0.0,0.0,0.0,0.0,0.0,0.0,0.0,0.0,0.0,0.0,0.0,0.0,0.0,0.0,0.0,0.0,0.0,0.0,0.0,0.0,0.0,0.0,0.0,0.0,0.0,0.0,0.0,0.0,0.0,0.0,0.0,0.0,0.0,0.0,0.0,0.0,0.0,0.0,0.0,0.0,0.0,0.0,0.0,0.0,0.0,0.0,0.0,0.0,0.0,0.0,0.0,0.0,0.0,0.0,0.0,0.0,0.0,0.0,0.0,0.0,0.0,0.0,0.0,0.0,0.0,0.0,0.0,0.0,0.0,0.0,0.0,0.0,0.0,0.0,0.0,0.0,0.0,0.0,0.0,0.0,0.0,0.0,0.0,0.0,0.0,0.0,0.0,0.0,0.0,0.0,0.0,0.0,0.0,0.0,0.0,0.0,0.0,0.0,0.0,0.0,0.0,0.0,0.0,0.0,0.0,0.0,0.0,0.0,0.0,0.0,-0.572,0.0,-0.624,-0.6584,-0.6961,-0.7227,0.0,0.0,0.0,0.0,0.0,0.0,0.0,0.0,0.0,0.0,0.0,0.0,0.0,0.0,0.0,0.0,0.0,0.0,0.0,0.0,0.0,0.0,0.0,0.0,0.0,0.0,0.0,0.0,0.0,0.0,0.0,0.0,0.0,0.0,0.0,0.0,0.0,0.0,0.0,0.0,0.0,0.0,0.0,0.0,0.0,0.0,0.0,0.0,0.0,0.0,0.0,0.0,0.0,0.0,0.0,0.0,0.0,0.0,0.0,0.0,0.0,0.0,0.0,0.0,0.0,0.0,0.0,0.0,0.0,0.0,0.0,0.0,0.0,0.0,0.0,0.0,0.0,0.0,0.0,0.0,0.0,0.0,0.0,0.0,0.0,0.0,0.0,0.0,0.0,0.0,0.0,0.0,0.0,0.0,0.0,0.0,0.0,0.0,0.0,0.0,0.0,0.0,0.0,0.0,0.0,0.0,0.0,0.0,0.0,-0.5664,-0.6014,-0.6925,-0.6691,-0.6888,0.0,0.0,0.0,0.0,0.0,0.0,0.0,0.0,0.0,0.0,0.0,0.0,0.0,0.0,0.0,0.0,0.0,0.0,0.0,0.0,0.0,0.0,0.0,0.0,0.0,0.0,0.0,0.0,0.0,0.0,0.0,0.0,0.0,0.0,0.0,0.0,0.0,0.0,0.0,0.0,0.0,0.0,0.0,0.0,0.0,0.0,0.0,0.0,0.0,0.0,0.0,0.0,0.0,0.0,0.0,0.0,0.0,0.0,0.0,0.0,0.0,0.0,0.0,0.0,0.0,0.0,0.0,0.0,0.0,0.0,0.0,0.0,0.0,0.0,0.0,0.0,0.0,0.0,0.0,0.0,0.0,0.0,0.0,0.0,0.0,0.0,0.0,0.0,0.0,0.0,0.0,0.0,0.0,0.0,0.0,0.0,0.0,0.0,0.0,0.0,0.0,0.0,0.0,0.0,0.0,0.0,0.0,0.0,0.0,-0.5471,-0.5728,-0.6161,-0.6788,-0.6788,-0.6853,0.0,0.0,0.0,0.0,0.0,0.0,0.0,0.0,0.0,0.0,0.0,0.0,0.0,0.0,0.0,0.0,0.0,0.0,0.0,0.0,0.0,0.0,0.0,0.0,0.0,0.0,0.0,0.0,0.0,0.0,0.0,0.0,0.0,0.0,0.0,0.0,0.0,0.0,0.0,0.0,0.0,0.0,0.0,0.0,0.0,0.0,0.0,0.0,0.0,0.0,0.0,0.0,0.0,0.0,0.0,0.0,0.0,0.0,0.0,0.0,0.0,0.0,0.0,0.0,0.0,0.0,0.0,0.0,0.0,0.0,0.0,0.0,0.0,0.0,0.0,0.0,0.0,0.0,0.0,0.0,0.0,0.0,0.0,0.0,0.0,0.0,0.0,0.0,0.0,0.0,0.0,0.0,0.0,0.0,0.0,0.0,0.0,0.0,0.0,0.0,0.0,0.0,0.0,0.0,0.0,0.0,0.0,0.0,0.0,-0.5694,0.0,-0.6116,0.0,-0.6555,-0.6611,0.0,0.0,0.0,0.0,0.0,0.0,0.0,0.0,0.0,0.0,0.0,0.0,0.0,0.0,0.0,0.0,0.0,0.0,0.0,0.0,0.0,0.0,0.0,0.0,0.0,0.0,0.0,0.0,0.0,0.0,0.0,0.0,0.0,0.0,0.0,0.0,0.0,0.0,0.0,0.0,0.0,0.0,0.0,0.0,0.0,0.0,0.0,0.0,0.0,0.0,0.0,0.0,0.0,0.0,0.0,0.0,0.0,0.0,0.0,0.0,0.0,0.0,0.0,0.0,0.0,0.0,0.0,0.0,0.0,0.0,0.0,0.0,0.0,0.0,0.0,0.0,0.0,0.0,0.0,0.0,0.0,0.0,0.0,0.0,0.0,0.0,0.0,0.0,0.0,0.0,0.0,0.0,0.0,0.0,0.0,0.0,0.0,0.0,0.0,0.0,0.0,0.0,0.0,0.0,0.0,0.0,0.0,0.0,-0.6497,-0.6345,-0.5966,-0.5971,-0.6129,-0.6116,-0.6275,0.0,0.0,0.0,0.0,0.0,0.0,0.0,0.0,0.0,0.0,0.0,0.0,0.0,0.0,0.0,0.0,0.0,0.0,0.0,0.0,0.0,0.0,0.0,0.0,0.0,0.0,0.0,0.0,0.0,0.0,0.0,0.0,0.0,0.0,0.0,0.0,0.0,0.0,0.0,0.0,0.0,0.0,0.0,0.0,0.0,0.0,0.0,0.0,0.0,0.0,0.0,0.0,0.0,0.0,0.0,0.0,0.0,0.0,0.0,0.0,0.0,0.0,0.0,0.0,0.0,0.0,0.0,0.0,0.0,0.0,0.0,0.0,0.0,0.0,0.0,0.0,0.0,0.0,0.0,0.0,0.0,0.0,0.0,0.0,0.0,0.0,0.0,0.0,0.0,0.0,0.0,0.0,0.0,0.0,0.0,0.0,0.0,0.0,0.0,0.0,0.0,0.0,0.0,0.0,0.0,0.0,0.0,0.0,0.0,-0.6467,-0.626,-0.6327,-0.6668,-0.6589,-0.6565,0.0,0.0,0.0,0.0,0.0,0.0,0.0,0.0,0.0,0.0,0.0,0.0,0.0,0.0,0.0,0.0,0.0,0.0,0.0,0.0,0.0,0.0,0.0,0.0,0.0,0.0,0.0,0.0,0.0,0.0,0.0,0.0,0.0,0.0,0.0,0.0,0.0,0.0,0.0,0.0,0.0,0.0,0.0,0.0,0.0,0.0,0.0,0.0,0.0,0.0,0.0,0.0,0.0,0.0,0.0,0.0,0.0,0.0,0.0,0.0,0.0,0.0,0.0,0.0,0.0,0.0,0.0,0.0,0.0,0.0,0.0,0.0,0.0,0.0,0.0,0.0,0.0,0.0,0.0,0.0,0.0,0.0,0.0,0.0,0.0,0.0,0.0,0.0,0.0,0.0,0.0,0.0,0.0,0.0,0.0,0.0,0.0,0.0,0.0,0.0,0.0,0.0,0.0,0.0,0.0,0.0,0.0,0.0,0.0,-0.6812,-0.6659,-0.6561,-0.653,-0.6708,-0.6555,-0.635,0.0,0.0,0.0,0.0,0.0,0.0,0.0,0.0,0.0,0.0,0.0,0.0,0.0,0.0,0.0,0.0,0.0,0.0,0.0,0.0,0.0,0.0,0.0,0.0,0.0,0.0,0.0,0.0,0.0,0.0,0.0,0.0,0.0,0.0,0.0,0.0,0.0,0.0,0.0,0.0,0.0,0.0,0.0,0.0,0.0,0.0,0.0,0.0,0.0,0.0,0.0,0.0,0.0,0.0,0.0,0.0,0.0,0.0,0.0,0.0,0.0,0.0,0.0,0.0,0.0,0.0,0.0,0.0,0.0,0.0,0.0,0.0,0.0,0.0,0.0,0.0,0.0,0.0,0.0,0.0,0.0,0.0,0.0,0.0,0.0,0.0,0.0,0.0,0.0,0.0,0.0,0.0,0.0,0.0,0.0,0.0,0.0,0.0,0.0,0.0,0.0,0.0,0.0,0.0,0.0,0.0,0.0,0.0,-0.7212,-0.6873,-0.6536,-0.5957,-0.6298,-0.6354,0.0,0.0,0.0,0.0,0.0,0.0,0.0,0.0,0.0,0.0,0.0,0.0,0.0,0.0,0.0,0.0,0.0,0.0,0.0,0.0,0.0,0.0,0.0,0.0,0.0,0.0,0.0,0.0,0.0,0.0,0.0,0.0,0.0,0.0,0.0,0.0,0.0,0.0,0.0,0.0,0.0,0.0,0.0,0.0,0.0,0.0,0.0,0.0,0.0,0.0,0.0,0.0,0.0,0.0,0.0,0.0,0.0,0.0,0.0,0.0,0.0,0.0,0.0,0.0,0.0,0.0,0.0,0.0,0.0,0.0,0.0,0.0,0.0,0.0,0.0,0.0,0.0,0.0,0.0,0.0,0.0,0.0,0.0,0.0,0.0,0.0,0.0,0.0,0.0,0.0,0.0,0.0,0.0,0.0,0.0,0.0,0.0,0.0,0.0,0.0,0.0,0.0,0.0,0.0,0.0,0.0,0.0,0.0,0.0,-0.7702,-0.7238,-0.6859,-0.6697,-0.7005,-0.705,0.0,0.0,0.0,0.0,0.0,0.0,0.0,0.0,0.0,0.0,0.0,0.0,0.0,0.0,0.0,0.0,0.0,0.0,0.0,0.0,0.0,0.0,0.0,0.0,0.0,0.0,0.0,0.0,0.0,0.0,0.0,0.0,0.0,0.0,0.0,0.0,0.0,0.0,0.0,0.0,0.0,0.0,0.0,0.0,0.0,0.0,0.0,0.0,0.0,0.0,0.0,0.0,0.0,0.0,0.0,0.0,0.0,0.0,0.0,0.0,0.0,0.0,0.0,0.0,0.0,0.0,0.0,0.0,0.0,0.0,0.0,0.0,0.0,0.0,0.0,0.0,0.0,0.0,0.0,0.0,0.0,0.0,0.0,0.0,0.0,0.0,0.0,0.0,0.0,0.0,0.0,0.0,0.0,0.0,0.0,0.0,0.0,0.0,0.0,0.0,0.0,0.0,0.0,0.0,0.0,0.0,0.0,0.0,-0.7889,-0.7754,-0.7873,-0.7815,-0.7442,-0.7455,-0.7311,0.0,0.0,0.0,0.0,0.0,0.0,0.0,0.0,0.0,0.0,0.0,0.0,0.0,0.0,0.0,0.0,0.0,0.0,0.0,0.0,0.0,0.0,0.0,0.0,0.0,0.0,0.0,0.0,0.0,0.0,0.0,0.0,0.0,0.0,0.0,0.0,0.0,0.0,0.0,0.0,0.0,0.0,0.0,0.0,0.0,0.0,0.0,0.0,0.0,0.0,0.0,0.0,0.0,0.0,0.0,0.0,0.0,0.0,0.0,0.0,0.0,0.0,0.0,0.0,0.0,0.0,0.0,0.0,0.0,0.0,0.0,0.0,0.0,0.0,0.0,0.0,0.0,0.0,0.0,0.0,0.0,0.0,0.0,0.0,0.0,0.0,0.0,0.0,0.0,0.0,0.0,0.0,0.0,0.0,0.0,0.0,0.0,0.0,0.0,0.0,0.0,0.0,0.0,0.0,0.0,0.0,0.0,0.0,-0.7767,-0.7805,-0.8777,-0.8895,-0.8125,-0.7927,-0.7573,0.0,0.0,0.0,0.0,0.0,0.0,0.0,0.0,0.0,0.0,0.0,0.0,0.0,0.0,0.0,0.0,0.0,0.0,0.0,0.0,0.0,0.0,0.0,0.0,0.0,0.0,0.0,0.0,0.0,0.0,0.0,0.0,0.0,0.0,0.0,0.0,0.0,0.0,0.0,0.0,0.0,0.0,0.0,0.0,0.0,0.0,0.0,0.0,0.0,0.0,0.0,0.0,0.0,0.0,0.0,0.0,0.0,0.0,0.0,0.0,0.0,0.0,0.0,0.0,0.0,0.0,0.0,0.0,0.0,0.0,0.0,0.0,0.0,0.0,0.0,0.0,0.0,0.0,0.0,0.0,0.0,0.0,0.0,0.0,0.0,0.0,0.0,0.0,0.0,0.0,0.0,0.0,0.0,0.0,0.0,0.0,0.0,0.0,0.0,0.0,0.0,0.0,0.0,0.0,0.0,0.0,0.0,0.0,-0.7715,-0.8491,-0.9003,-0.9122,-0.8981,-0.8341,-0.7912,0.0,0.0,0.0,0.0,0.0,0.0,0.0,0.0,0.0,0.0,0.0,0.0,0.0,0.0,0.0,0.0,0.0,0.0,0.0,0.0,0.0,0.0,0.0,0.0,0.0,0.0,0.0,0.0,0.0,0.0,0.0,0.0,0.0,0.0,0.0,0.0,0.0,0.0,0.0,0.0,0.0,0.0,0.0,0.0,0.0,0.0,0.0,0.0,-2.1334,0.0,0.0,0.0,0.0,0.0,0.0,0.0,0.0,0.0,0.0,0.0,0.0,0.0,0.0,0.0,0.0,0.0,0.0,0.0,0.0,0.0,0.0,0.0,0.0,0.0,0.0,0.0,0.0,0.0,0.0,0.0,0.0,0.0,0.0,0.0,0.0,0.0,0.0,0.0,0.0,0.0,0.0,0.0,0.0,0.0,0.0,0.0,0.0,0.0,0.0,0.0,0.0,0.0,0.0,0.0,0.0,0.0,0.0,0.0,-0.7166,-0.8094,-0.9648,-1.0037,-0.9341,-0.8981,-0.8553,0.0,0.0,0.0,0.0,0.0,0.0,0.0,0.0,0.0,0.0,0.0,0.0,0.0,0.0,0.0,0.0,0.0,0.0,0.0,0.0,0.0,0.0,0.0,0.0,0.0,0.0,0.0,0.0,0.0,0.0,0.0,0.0,0.0,0.0,0.0,0.0,0.0,0.0,0.0,0.0,0.0,0.0,0.0,0.0,0.0,0.0,0.0,0.0,0.0,0.0,0.0,0.0,0.0,0.0,0.0,0.0,0.0,0.0,0.0,0.0,0.0,0.0,0.0,0.0,0.0,0.0,0.0,0.0,0.0,0.0,0.0,0.0,0.0,0.0,0.0,0.0,0.0,0.0,0.0,0.0,0.0,0.0,0.0,0.0,0.0,0.0,0.0,0.0,0.0,0.0,0.0,0.0,0.0,0.0,0.0,0.0,0.0,0.0,0.0,0.0,0.0,0.0,0.0,0.0,0.0,0.0,0.0,-0.6011,-0.6441,-0.7402,-0.9877,-1.0662,-0.9441,-0.9496,-0.92,-0.8579,0.0,0.0,0.0,0.0,0.0,0.0,0.0,0.0,0.0,0.0,0.0,0.0,0.0,0.0,0.0,0.0,0.0,0.0,0.0,0.0,0.0,0.0,0.0,0.0,0.0,0.0,0.0,0.0,0.0,0.0,0.0,0.0,0.0,0.0,0.0,0.0,0.0,0.0,-1.9085,-2.0893,0.0,0.0,0.0,0.0,0.0,0.0,0.0,0.0,-2.2567,0.0,0.0,0.0,0.0,0.0,0.0,0.0,0.0,0.0,0.0,0.0,0.0,0.0,0.0,0.0,0.0,0.0,0.0,0.0,0.0,0.0,0.0,0.0,0.0,0.0,0.0,0.0,0.0,0.0,0.0,0.0,0.0,0.0,0.0,0.0,0.0,0.0,0.0,0.0,0.0,0.0,0.0,0.0,0.0,0.0,0.0,0.0,0.0,0.0,0.0,0.0,0.0,0.0,0.0,0.0,0.0,-0.5489,-0.483,-0.5478,-0.7407,-0.8955,-0.974,-0.9729,-0.9636,-0.9513,-0.9498,0.0,0.0,0.0,0.0,0.0,0.0,0.0,0.0,0.0,0.0,0.0,0.0,0.0,0.0,0.0,0.0,0.0,0.0,0.0,0.0,0.0,0.0,0.0,0.0,0.0,0.0,0.0,0.0,0.0,0.0,0.0,0.0,0.0,0.0,0.0,0.0,0.0,0.0,0.0,-2.3376,-2.4154,0.0,0.0,0.0,0.0,0.0,0.0,0.0,0.0,-2.4089,0.0,0.0,0.0,0.0,0.0,0.0,0.0,0.0,0.0,0.0,0.0,0.0,0.0,0.0,0.0,0.0,0.0,0.0,0.0,0.0,0.0,0.0,0.0,0.0,0.0,0.0,0.0,0.0,0.0,0.0,0.0,0.0,0.0,0.0,0.0,0.0,0.0,0.0,0.0,0.0,0.0,0.0,0.0,0.0,0.0,0.0,0.0,0.0,0.0,0.0,0.0,0.0,0.0,0.0,0.0,-0.5228,-0.4664,-0.5213,-0.6837,-0.8255,-0.9024,-0.9394,-0.9389,-0.9525,0.0,0.0,0.0,0.0,0.0,0.0,0.0,0.0,0.0,0.0,0.0,0.0,0.0,0.0,0.0,0.0,0.0,0.0,0.0,0.0,0.0,0.0,0.0,0.0,0.0,0.0,0.0,0.0,0.0,0.0,0.0,0.0,0.0,0.0,0.0,0.0,0.0,0.0,0.0,0.0,-2.4366,-2.5368,-2.63,0.0,0.0,0.0,0.0,0.0,0.0,-2.5661,-2.5684,0.0,0.0,0.0,0.0,0.0,0.0,0.0,0.0,0.0,0.0,0.0,0.0,0.0,0.0,0.0,0.0,0.0,0.0,0.0,0.0,0.0,0.0,0.0,0.0,0.0,0.0,0.0,0.0,0.0,0.0,0.0,0.0,0.0,0.0,0.0,0.0,0.0,0.0,0.0,0.0,0.0,0.0,0.0,0.0,0.0,0.0,0.0,0.0,0.0,0.0,0.0,0.0,0.0,0.0,0.0,-0.5376,-0.4896,-0.5204,-0.6526,-0.7655,-0.8556,-0.8897,-0.9188,-0.944,0.0,0.0,0.0,0.0,0.0,0.0,0.0,0.0,0.0,0.0,0.0,0.0,0.0,0.0,0.0,0.0,0.0,0.0,0.0,0.0,0.0,0.0,0.0,0.0,0.0,0.0,0.0,0.0,0.0,0.0,0.0,0.0,0.0,0.0,0.0,0.0,0.0,0.0,0.0,0.0,0.0,-2.6555,-2.6892,-2.7859,0.0,0.0,0.0,0.0,-2.7016,-2.7344,0.0,0.0,0.0,0.0,0.0,0.0,0.0,0.0,0.0,0.0,0.0,0.0,0.0,0.0,0.0,0.0,0.0,0.0,0.0,0.0,0.0,0.0,0.0,0.0,0.0,0.0,0.0,0.0,0.0,0.0,0.0,0.0,0.0,0.0,0.0,0.0,0.0,0.0,0.0,0.0,0.0,0.0,0.0,0.0,0.0,0.0,0.0,0.0,0.0,0.0,0.0,0.0,0.0,0.0,0.0,0.0,-0.551,-0.5315,-0.5637,-0.6529,-0.7211,-0.7959,-0.8902,-0.905,-0.9333,0.0,0.0,0.0,0.0,0.0,0.0,0.0,0.0,0.0,0.0,0.0,0.0,0.0,0.0,0.0,0.0,0.0,0.0,0.0,0.0,0.0,0.0,0.0,0.0,0.0,0.0,0.0,0.0,0.0,0.0,0.0,0.0,0.0,0.0,0.0,0.0,0.0,0.0,0.0,0.0,0.0,-2.7756,-2.8714,-2.9556,-2.9953,0.0,0.0,-2.969,-2.9727,-2.9928,0.0,0.0,0.0,0.0,0.0,0.0,0.0,0.0,0.0,0.0,0.0,0.0,0.0,0.0,0.0,0.0,0.0,0.0,0.0,0.0,0.0,0.0,0.0,0.0,0.0,0.0,0.0,0.0,0.0,0.0,0.0,0.0,0.0,0.0,0.0,0.0,0.0,0.0,0.0,0.0,0.0,0.0,0.0,0.0,0.0,0.0,0.0,0.0,0.0,0.0,0.0,0.0,0.0,0.0,0.0,-0.591,-0.5708,-0.5127,-0.5462,-0.6668,-0.7209,-0.7825,-0.8337,-0.8705,-0.9111,0.0,0.0,0.0,0.0,0.0,0.0,0.0,0.0,0.0,0.0,0.0,0.0,0.0,0.0,0.0,0.0,0.0,0.0,0.0,0.0,0.0,0.0,0.0,0.0,0.0,0.0,0.0,0.0,0.0,0.0,0.0,0.0,0.0,0.0,0.0,0.0,0.0,0.0,0.0,0.0,0.0,0.0,-2.9132,-3.0473,0.0,0.0,0.0,-3.1403,-3.128,0.0,0.0,0.0,0.0,0.0,0.0,0.0,0.0,0.0,0.0,0.0,0.0,0.0,0.0,0.0,0.0,0.0,0.0,0.0,0.0,0.0,0.0,0.0,0.0,0.0,0.0,0.0,0.0,0.0,0.0,0.0,0.0,0.0,0.0,0.0,0.0,0.0,0.0,0.0,0.0,0.0,0.0,0.0,0.0,0.0,0.0,0.0,0.0,0.0,0.0,0.0,0.0,0.0,0.0,0.0,0.0,0.0,-0.6172,-0.5509,-0.5732,-0.6803,-0.7181,-0.7652,-0.789,-0.8527,0.0,0.0,0.0,0.0,0.0,0.0,0.0,0.0,0.0,0.0,0.0,0.0,0.0,0.0,0.0,0.0,0.0,0.0,0.0,0.0,0.0,0.0,0.0,0.0,0.0,0.0,0.0,-1.4303,0.0,0.0,0.0,0.0,0.0,0.0,0.0,0.0,0.0,0.0,0.0,0.0,0.0,0.0,-2.8926,-2.9908,-3.1419,-3.2447,0.0,0.0,-3.3163,-3.3005,-3.3885,-3.4284,0.0,0.0,0.0,0.0,0.0,0.0,0.0,0.0,0.0,0.0,0.0,0.0,0.0,0.0,0.0,0.0,0.0,0.0,0.0,0.0,0.0,0.0,0.0,0.0,0.0,0.0,0.0,0.0,0.0,0.0,0.0,0.0,0.0,0.0,0.0,0.0,0.0,0.0,0.0,0.0,0.0,0.0,0.0,0.0,0.0,0.0,0.0,0.0,0.0,0.0,0.0,0.0,0.0,0.0,0.0,-0.6731,-0.7027,-0.7033,-0.6885,-0.7217,-0.7529,-0.7513,-0.8849,-0.9501,0.0,0.0,0.0,0.0,0.0,0.0,0.0,0.0,0.0,0.0,0.0,0.0,0.0,0.0,0.0,0.0,0.0,0.0,0.0,0.0,0.0,0.0,0.0,0.0,0.0,0.0,0.0,0.0,0.0,0.0,0.0,0.0,0.0,0.0,0.0,0.0,0.0,0.0,0.0,0.0,0.0,-3.0429,-3.1844,-3.3136,-3.4185,0.0,0.0,-3.4986,-3.5338,-3.5746,-3.5819,-3.5036,0.0,0.0,0.0,0.0,0.0,0.0,0.0,0.0,0.0,0.0,0.0,0.0,0.0,0.0,0.0,0.0,0.0,0.0,0.0,0.0,0.0,0.0,0.0,0.0,0.0,0.0,0.0,0.0,0.0,0.0,0.0,0.0,0.0,0.0,0.0,0.0,0.0,0.0,0.0,0.0,0.0,0.0,0.0,0.0,0.0,0.0,0.0,0.0,0.0,0.0,0.0,0.0,0.0,-0.6613,-0.681,-0.7064,-0.7197,-0.6896,-0.6904,-0.6904,-0.7056,-0.8417,-0.9438,0.0,0.0,0.0,0.0,0.0,0.0,0.0,0.0,0.0,0.0,0.0,0.0,0.0,0.0,0.0,0.0,0.0,0.0,0.0,0.0,0.0,0.0,0.0,0.0,0.0,0.0,0.0,0.0,-1.7234,-1.798,-1.8985,0.0,0.0,0.0,0.0,0.0,0.0,0.0,0.0,0.0,0.0,-3.1629,-3.2944,-3.3985,0.0,0.0,-3.5613,-3.5672,-3.6001,-3.6716,-3.7042,-3.6363,-3.5747,0.0,0.0,0.0,0.0,0.0,0.0,0.0,0.0,0.0,0.0,0.0,0.0,0.0,0.0,0.0,0.0,0.0,0.0,0.0,0.0,0.0,0.0,0.0,0.0,0.0,0.0,0.0,0.0,0.0,0.0,0.0,0.0,0.0,0.0,0.0,0.0,0.0,0.0,0.0,0.0,0.0,0.0,0.0,0.0,0.0,0.0,0.0,0.0,0.0,0.0,0.0,0.0,-0.6792,-0.6725,-0.708,-0.7056,-0.6777,-0.6305,-0.6462,-0.7091,-0.864,-0.9722,0.0,0.0,0.0,0.0,0.0,0.0,0.0,0.0,0.0,0.0,0.0,0.0,0.0,0.0,0.0,0.0,0.0,0.0,0.0,0.0,0.0,0.0,0.0,0.0,0.0,0.0,0.0,0.0,-1.821,-1.8996,-1.9745,0.0,0.0,0.0,0.0,0.0,0.0,0.0,0.0,0.0,0.0,-3.3117,-3.4199,-3.4801,-3.5469,-3.6297,-3.634,-3.6367,-3.6731,-3.7332,-3.7792,-3.7774,0.0,0.0,0.0,0.0,0.0,0.0,0.0,0.0,0.0,0.0,0.0,0.0,0.0,0.0,0.0,0.0,0.0,0.0,0.0,0.0,0.0,0.0,0.0,0.0,0.0,0.0,0.0,0.0,0.0,0.0,-0.4931,0.0,0.0,0.0,0.0,0.0,0.0,0.0,0.0,0.0,0.0,0.0,0.0,0.0,0.0,0.0,0.0,0.0,0.0,0.0,0.0,0.0,0.0,-0.6719,-0.6725,-0.708,-0.7084,-0.6373,-0.5584,-0.6055,-0.7644,-0.9433,-1.083,-1.1886,0.0,0.0,0.0,0.0,0.0,0.0,0.0,0.0,0.0,0.0,0.0,0.0,0.0,0.0,0.0,0.0,0.0,0.0,0.0,0.0,0.0,0.0,0.0,0.0,0.0,0.0,-1.8719,-1.9654,-2.0309,0.0,0.0,0.0,0.0,0.0,0.0,0.0,0.0,0.0,0.0,-3.4188,-3.4994,-3.5557,-3.5714,-3.62,-3.6878,-3.6913,-3.7178,-3.7819,-3.7604,-3.7917,0.0,0.0,0.0,0.0,0.0,0.0,0.0,0.0,0.0,0.0,0.0,0.0,0.0,0.0,0.0,0.0,0.0,0.0,0.0,0.0,0.0,0.0,0.0,0.0,0.0,0.0,0.0,-0.4505,-0.4494,0.0,0.0,0.0,0.0,0.0,0.0,0.0,0.0,0.0,0.0,0.0,-0.9045,-0.9175,0.0,0.0,0.0,0.0,0.0,0.0,0.0,0.0,0.0,0.0,0.0,0.0,-0.6797,-0.6725,-0.7525,-0.7676,-0.678,-0.636,-0.6702,-0.8132,-0.9604,-1.1214,-1.2874,0.0,0.0,0.0,0.0,0.0,0.0,0.0,0.0,0.0,0.0,0.0,0.0,0.0,0.0,0.0,0.0,0.0,0.0,0.0,0.0,0.0,0.0,0.0,0.0,0.0,-1.9239,0.0,0.0,0.0,0.0,0.0,0.0,0.0,0.0,0.0,0.0,0.0,-3.3093,-3.4223,-3.5839,-3.6881,-3.7087,-3.7881,-3.8606,0.0,0.0,0.0,0.0,0.0,0.0,0.0,0.0,0.0,0.0,0.0,0.0,0.0,0.0,-4.7515,-4.5272,-4.6437,-4.7247,-4.565,0.0,0.0,0.0,0.0,0.0,0.0,0.0,0.0,0.0,0.0,0.0,0.0,0.0,0.0,-0.4593,0.0,-0.4906,0.0,0.0,0.0,0.0,0.0,0.0,0.0,0.0,-0.9777,-1.0236,-1.0243,-1.0521,-1.048,0.0,-0.9883,-0.9374,0.0,0.0,0.0,0.0,0.0,0.0,0.0,0.0,-0.6844,-0.6629,-0.7543,-0.7659,-0.6744,-0.685,-0.7517,-0.8716,-1.0744,-1.2459,-1.3858,-1.4244,-1.422,0.0,0.0,0.0,0.0,0.0,0.0,0.0,0.0,0.0,0.0,0.0,0.0,0.0,0.0,0.0,0.0,0.0,0.0,0.0,0.0,0.0,0.0,0.0,-2.0636,0.0,0.0,0.0,0.0,0.0,0.0,0.0,0.0,0.0,-3.341,-3.5089,-3.6199,-3.6459,-3.7418,-3.8224,-3.8353,0.0,0.0,0.0,0.0,0.0,0.0,0.0,-4.0668,-4.1123,-4.1762,-4.297,-4.5307,-4.7309,-4.9021,-5.0153,0.0,0.0,-4.9982,-5.0721,-5.1604,-5.1038,-5.1026,-5.1404,-5.2201,-5.3347,-5.4647,0.0,0.0,0.0,0.0,0.0,0.0,0.0,0.0,-0.4157,-0.4209,0.0,-0.4545,0.0,0.0,0.0,0.0,0.0,-0.7567,0.0,0.0,-1.0459,-1.0812,-1.1511,-1.1234,-1.0879,-1.0232,-0.9899,-0.9683,-0.9443,-0.9161,0.0,0.0,0.0,0.0,0.0,0.0,-0.7,-0.6282,-0.6981,-0.6892,-0.6427,-0.7217,-0.8344,-0.9558,-1.2663,-1.4424,-1.5061,-1.5836,-1.5931,-1.508,-1.5492,0.0,0.0,0.0,0.0,0.0,0.0,0.0,0.0,0.0,0.0,0.0,0.0,0.0,0.0,0.0,0.0,0.0,0.0,0.0,0.0,-2.1264,0.0,0.0,0.0,0.0,0.0,0.0,0.0,0.0,0.0,0.0,-3.5842,-3.8665,-4.0464,-3.9692,0.0,0.0,0.0,0.0,-3.9032,-4.1197,-4.0533,-4.0215,-4.1389,-4.2916,-4.3801,-4.3199,0.0,0.0,-4.8024,-5.0759,-5.277,-5.3436,-5.5999,-5.7491,-5.5826,-5.5609,-5.6171,-5.7352,-5.7602,-5.8037,-5.8752,-5.9522,-6.0615,-0.4311,0.0,0.0,0.0,0.0,-0.4606,-0.4643,-0.4415,-0.4711,-0.4998,-0.4998,-0.5467,0.0,0.0,0.0,0.0,0.0,0.0,-0.9435,-1.0333,-1.1205,-1.171,-1.1824,-1.1587,-1.1141,-1.0638,-1.0103,-0.9896,-0.9869,-1.0035,-0.9711,-0.8953,0.0,0.0,0.0,0.0,-0.775,-0.7149,-0.6582,-0.6634,-0.7209,-0.7485,-0.8632,-1.0762,-1.3275,-1.4753,-1.5254,-1.5933,-1.6196,-1.6139,-1.6451,0.0,0.0,0.0,0.0,0.0,0.0,0.0,0.0,0.0,0.0,0.0,0.0,0.0,0.0,0.0,0.0,0.0,0.0,0.0,-2.2089,-2.3235,-2.4221,0.0,0.0,0.0,0.0,0.0,0.0,0.0,0.0,0.0,-3.9575,-3.9931,-4.0082,0.0,0.0,-4.0739,-4.0523,-4.1264,-4.2157,-4.3041,-4.3506,0.0,-4.4124,-4.5115,-4.584,-4.6091,-4.7549,-4.9437,-5.1537,-5.3436,-5.5274,-5.6964,-5.9058,-6.0753,-6.17,-6.0658,-6.0317,-6.188,-6.1908,-6.1799,-6.2826,-6.4183,-6.5286,-0.4416,-0.4417,-0.453,-0.4475,-0.4499,-0.4803,-0.4735,-0.4535,-0.4928,-0.5172,-0.54,-0.5799,-0.6161,-0.6487,-0.6452,0.0,0.0,0.0,-1.0154,-1.1254,-1.1993,-1.2308,-1.2321,-1.1619,-1.1166,-1.0818,-1.0147,-0.9999,-1.0354,-1.0672,-1.0644,-1.0177,0.0,0.0,-0.8546,-0.8606,-0.8144,-0.7544,-0.6788,-0.681,-0.7521,-0.8212,-0.9519,-1.1754,-1.3595,-1.4786,-1.5585,-1.6363,-1.6838,-1.7066,-1.7556,-1.7818,0.0,0.0,0.0,0.0,0.0,0.0,0.0,0.0,0.0,0.0,0.0,-1.9034,0.0,0.0,0.0,0.0,-2.1737,-2.388,-2.5295,-2.6055,0.0,0.0,0.0,0.0,0.0,0.0,0.0,-3.5246,-3.7765,-4.0159,-4.2106,-4.1954,-4.1696,-4.1808,-4.1676,-4.167,-4.2041,0.0,-4.3515,-4.4739,-4.5092,-4.5499,-4.6356,-4.7097,-4.7937,-4.9005,-5.0657,-5.2557,-5.447,-5.6373,-5.8293,-6.0232,-6.21,-6.4029,-6.6039,-6.5227,-6.4561,-6.5752,-6.5711,-6.5848,-6.6691,-6.7721,-6.8513,-0.432,-0.4739,-0.4466,-0.451,-0.4818,-0.4555,-0.4605,-0.4964,-0.4645,-0.4932,-0.5527,-0.5961,-0.6357,-0.6999,-0.6904,0.0,-0.9169,-0.9685,-1.0849,-1.2411,-1.2403,-1.2619,-1.2768,-1.1476,-1.083,-1.0844,-1.026,-1.0193,-1.0631,-1.104,-1.1446,-1.1821,-1.1023,-1.0353,-0.9655,-0.9257,-0.8576,-0.786,-0.7608,-0.7594,-0.7838,-0.9397,-1.1005,-1.2527,-1.3786,-1.5024,-1.6177,-1.7096,-1.7738,-1.7895,-1.8741,-1.9365,-1.9386,0.0,0.0,0.0,0.0,0.0,0.0,0.0,0.0,0.0,0.0,0.0,0.0,0.0,0.0,0.0,-2.5877,0.0,-2.9517,-2.9283,0.0,0.0,0.0,-3.1121,-3.1621,-3.3469,-3.5541,-3.7491,0.0,0.0,-4.3753,-4.4382,-4.4598,-4.4338,-4.2735,-4.2189,-4.3855,-4.3492,-4.3832,-4.6405,-4.5783,-4.5836,-4.8109,-4.9079,-5.0073,-5.1689,-5.348,-5.5227,-5.7059,-5.9234,-6.1536,-6.3062,-6.5047,-6.6937,-6.8838,-6.8964,-6.9051,-6.8766,-6.8982,-6.9449,-6.9907,-7.0219,-7.056,-0.4257,-0.4367,-0.43,-0.4353,-0.4678,-0.4869,-0.4875,-0.4707,-0.4556,-0.4843,-0.527,-0.6103,-0.6966,-0.7878,-0.7579,-0.7952,-0.8718,-0.9445,-1.0586,-1.2004,-1.2194,-1.251,-1.2932,-1.1956,-1.1312,-1.0986,-1.0735,-1.0812,-1.1194,-1.1615,-1.2073,-1.2437,-1.2239,-1.1431,-1.0345,-1.0132,-0.9602,-0.8602,-0.9513,-1.0003,-1.003,-1.0952,-1.1889,-1.3,-1.4184,-1.5467,-1.6921,-1.7652,-1.834,-1.9205,-1.9954,-2.0227,-2.006,-1.985,0.0,0.0,0.0,0.0,0.0,0.0,0.0,0.0,0.0,-2.1795,-2.183,0.0,-2.3828,0.0,-2.8157,-3.1772,-3.2797,-3.1651,0.0,0.0,-3.26,-3.3322,-3.5537,-3.6383,-3.7766,-4.0152,-4.1336,-4.2951,-4.552,-4.6947,-4.765,-4.7514,-4.5475,-4.4204,-4.5048,-4.5475,-4.6303,-4.8219,-4.8082,-4.813,-5.0382,-5.1423,-5.2587,-5.4167,-5.5862,-5.7808,-6.0101,-6.1754,-6.3465,-6.5407,-6.7065,-6.8537,-6.9814,-7.0721,-7.1369,-7.1472,-7.0674,-7.0239,-7.1316,-7.1812,-7.21,-0.4335,-0.446,-0.4155,-0.4245,-0.4733,-0.4714,-0.467,-0.4613,-0.4469,-0.4613,-0.5186,-0.634,-0.7511,-0.8443,-0.8347,-0.8718,-0.9411,-1.0096,-1.1057,-1.2308,-1.2446,-1.2735,-1.2887,-1.2079,-1.1469,-1.1325,-1.1246,-1.1484,-1.2052,-1.2626,-1.2928,-1.3101,-1.2851,-1.2058,-1.0812,-1.0593,-1.0181,-0.9568,-1.0485,-1.128,-1.1597,-1.2198,-1.2923,-1.3763,-1.4869,-1.6159,-1.7659,-1.8153,-1.891,-2.0207,-2.0624,-2.0984,-2.1258,-2.0972,-2.0764,0.0,0.0,0.0,0.0,0.0,0.0,0.0,0.0,0.0,0.0,0.0,-2.5503,-2.5381,-3.0413,-3.42,-3.5235,-3.4289,-3.4188,-3.5525,-3.5699,-3.6621,-3.8648,-3.9332,-4.0639,-4.3022,-4.3476,-4.4643,-4.7649,-4.9414,-5.0309,-5.0085,-4.9175,-4.8304,-4.7561,-4.813,-4.9301,-5.0649,-5.0556,-5.1413,-5.4492,-5.5262,-5.5953,-5.7082,-5.8709,-6.0646,-6.2955,-6.4243,-6.5679,-6.8117,-6.9339,-7.0452,-7.1806,-7.2424,-7.2936,-7.3241,-7.2553,-7.2066,-7.2657,-7.3007,-7.3153,-0.4238,-0.4865,-0.4238,-0.4211,-0.4773,-0.4369,-0.4445,-0.4687,-0.4394,-0.4681,-0.5551,-0.6921,-0.7969,-0.9003,-0.8959,-0.9445,-1.0185,-1.0699,-1.1491,-1.2568,-1.2831,-1.2816,-1.2676,-1.2072,-1.177,-1.1619,-1.1749,-1.218,-1.2896,-1.3587,-1.3709,-1.3563,-1.3253,-1.241,-1.1351,-1.0881,-1.0577,-1.0468,-1.1146,-1.1889,-1.2683,-1.312,-1.3793,-1.4843,-1.5711,-1.6816,-1.8286,-1.8616,-1.9433,-2.0819,-2.1298,-2.1933,-2.2715,-2.2311,-2.2529,0.0,-2.3911,0.0,0.0,0.0,0.0,0.0,0.0,0.0,0.0,-2.6078,-2.7038,-2.7677,-3.2559,-3.6273,-3.7486,-3.7145,-3.7345,-3.8534,-3.9346,-4.0295,-4.1455,-4.2332,-4.3698,-4.6024,-4.5578,-4.6544,-5.0154,-5.2166,-5.321,-5.274,-5.3419,-5.3244,-5.1452,-5.1513,-5.2244,-5.3251,-5.3608,-5.5486,-5.895,-5.9563,-5.9398,-6.0265,-6.1658,-6.3577,-6.5404,-6.6305,-6.7796,-7.0399,-7.1193,-7.2003,-7.4041,-7.3992,-7.4126,-7.4867,-7.44,-7.3938,-7.3826,-7.3789,-7.4009,-0.4397,-0.4554,-0.4397,-0.4366,-0.447,-0.4297,-0.4563,-0.4812,-0.4662,-0.5382,-0.6806,-0.7374,-0.8188,-0.9098,-0.8544,-0.8604,-0.9129,-0.9318,-0.9871,-1.0938,-1.1904,-1.2303,-1.2268,-1.2582,-1.2453,-1.2058,-1.2474,-1.3039,-1.3753,-1.3609,-1.3924,-1.4414,-1.3335,-1.2643,-1.219,0.0,0.0,0.0,-1.2011,-1.2663,-1.3436,-1.4199,-1.5176,-1.6037,-1.6453,0.0,-1.9049,-1.9333,-2.0145,-2.1357,-2.3047,0.0,0.0,0.0,0.0,0.0,0.0,0.0,0.0,0.0,0.0,0.0,-2.9086,-2.8765,-2.7338,-2.8074,-2.9053,-3.0227,-3.4534,-3.8185,-4.0379,-3.9855,-4.0035,-4.1878,-4.2251,-4.3089,-4.4826,-4.5526,-4.6652,-4.8736,-4.7865,-4.8728,-5.3155,-5.6347,-5.7691,-5.6684,-5.7314,-5.7617,-5.7342,-5.5722,-5.5394,-5.6989,-5.8206,-6.0042,-6.3196,-6.2491,-6.2006,-6.3023,-6.4087,-6.5701,-6.7404,-6.7993,-6.8794,-7.1014,-7.1759,-7.2589,-7.3868,-7.4718,-7.549,-7.6144,-7.5737,-7.5032,-7.4301,-7.4104,-7.4197,-0.4709,0.0,-0.4554,-0.4537,0.0,-0.4665,-0.4805,-0.4927,-0.4717,-0.5578,-0.719,-0.7638,-0.8503,-0.9487,-0.9487,-0.9667,-0.9876,-1.0386,-1.1052,-1.1861,-1.2319,-1.2728,-1.2947,-1.3015,-1.2897,-1.2598,-1.3169,-1.3706,-1.4189,-1.4514,-1.4649,-1.488,-1.3905,-1.3221,-1.2542,-1.2079,-1.1871,-1.2079,-1.2601,-1.3414,-1.4353,-1.5582,-1.6357,-1.6805,0.0,0.0,0.0,0.0,0.0,0.0,0.0,0.0,0.0,0.0,0.0,-2.7001,-2.8876,-2.9407,-2.8019,-2.8878,-2.953,-2.9988,-3.1391,-3.1761,-3.0743,-3.1563,-3.207,-3.2044,-3.6557,-4.0465,-4.2696,-4.2366,-4.2721,-4.436,-4.5209,-4.6329,-4.792,-4.881,-4.9811,-5.1421,-5.1404,-5.2381,-5.5096,-5.7831,-5.8962,-5.8226,-5.9238,-6.0129,-6.004,-5.9037,-5.8877,-6.0908,-6.1785,-6.3034,-6.5023,-6.4901,-6.4431,-6.5354,-6.6457,-6.7876,-6.9566,-7.0182,-7.1117,-7.3082,-7.3549,-7.3858,-7.5506,-7.5921,-7.6058,-7.6818,-7.6611,-7.6065,-7.553,-7.4899,-7.4387,-0.5027,-0.5036,-0.4714,-0.4716,-0.5036,-0.5027,-0.5184,-0.503,0.0,0.0,0.0,-0.7733,-0.8634,-0.9671,-1.0416,-1.0727,-1.0757,-1.1624,-1.2237,-1.2899,-1.287,-1.3295,-1.3737,-1.3595,-1.3356,-1.3344,-1.3929,-1.4566,-1.4811,-1.5337,-1.542,-1.5101,-1.4492,-1.3678,-1.2812,-1.2801,-1.2735,-1.2726,-1.3166,-1.4014,-1.5122,-1.6653,-1.7388,-1.7586,-1.8581,-1.9768,-2.1207,-2.1385,-2.2403,-2.4437,-2.493,-2.5718,-2.6786,-2.6873,-2.7744,-2.9543,-3.1093,-3.1344,-3.0221,-3.1156,-3.1707,-3.1573,-3.3351,-3.4384,-3.3945,-3.5068,-3.5268,-3.4004,-3.884,-4.2924,-4.502,-4.4916,-4.5342,-4.6886,-4.8221,-4.9575,-5.101,-5.1843,-5.2878,-5.4127,-5.4929,-5.575,-5.6659,-5.8774,-5.9823,-5.9254,-6.0804,-6.2171,-6.1909,-6.1758,-6.2109,-6.3793,-6.423,-6.5066,-6.6356,-6.6724,-6.6829,-6.7448,-6.8554,-6.9956,-7.1364,-7.2183,-7.3404,-7.5245,-7.516,-7.5544,-7.7176,-7.694,-7.6654,-7.7754,-7.7475,-7.7061,-7.6994,-7.6029,-7.5097,-0.5367,-0.5095,-0.5044,-0.5052,-0.5095,-0.5516,-0.5528,-0.5572,-0.5965,-0.6516,-0.737,-0.8139,-0.9005,-0.9666,-0.981,-0.9866,-0.9965,-1.0439,-1.1109,0.0,-1.2615,-1.2998,-1.3151,-1.4065,-1.4428,-1.4408,-1.4703,-1.519,-1.5587,-1.5551,-1.5625,-1.5552,-1.4578,-1.3547,-1.2836,-1.3066,-1.3484,-1.4398,-1.4244,-1.4483,-1.5582,-1.6815,-1.7757,-1.8704,-1.8958,-1.9923,-2.1496,-2.1984,-2.2791,-2.4159,-2.6229,-2.7482,-2.7957,-2.9509,-3.0653,-3.1229,-3.2004,-3.2333,-3.193,-3.2333,-3.3485,-3.543,-3.6589,-3.6723,-3.5685,-3.7332,-3.806,-3.7465,-4.1719,-4.5552,-4.751,-4.7459,-4.8137,-5.0213,-5.11,-5.2278,-5.4082,-5.4678,-5.521,-5.6054,-5.6849,-5.7738,-5.875,-6.0646,-6.1979,-6.2163,-6.2797,-6.4099,-6.4515,-6.4498,-6.4479,-6.5008,-6.5514,-6.6263,-6.7438,-6.8261,-6.8819,-6.9209,-7.0419,-7.1769,-7.315,-7.3226,-7.3718,-7.5378,-7.5561,-7.5898,-7.6881,-7.7534,-7.7953,-7.8691,-7.8417,-7.8066,-7.8208,-7.7538,-7.6667,-0.5881,-0.5428,-0.524,-0.5066,-0.506,-0.519,-0.5353,-0.5376,-0.5821,-0.6595,-0.7533,-0.8106,-0.8982,-1.0168,-1.0468,-1.065,-1.1016,-1.1318,-1.1818,-1.2347,-1.2811,-1.3399,-1.4107,-1.4549,-1.4957,-1.5328,-1.5572,-1.582,-1.5913,-1.5855,-1.5924,-1.5876,-1.4902,-1.4356,-1.4194,-1.4252,-1.4667,-1.5151,-1.4428,-1.4774,-1.6501,-1.7578,-1.8532,-1.9488,-1.997,-2.1198,-2.306,-2.3297,-2.4352,-2.6326,-2.7277,-2.8235,-2.9299,-3.0609,-3.1418,-3.1677,-3.3069,-3.3851,-3.3726,-3.438,-3.5452,-3.7133,-3.8199,-3.9054,-3.957,-4.0105,-4.0322,-4.0194,-4.3726,-4.7092,-4.9803,-4.9935,-5.0388,-5.2041,-5.3187,-5.4458,-5.553,-5.6085,-5.6669,-5.7401,-5.8122,-5.8908,-5.9844,-6.1174,-6.222,-6.2555,-6.3654,-6.4929,-6.5942,-6.6095,-6.6095,-6.6541,-6.7201,-6.8056,-6.8819,-6.9906,-7.0686,-7.102,-7.2105,-7.3223,-7.426,-7.4467,-7.52,-7.598,-7.6115,-7.6434,-7.7254,-7.7423,-7.8027,-7.8904,-7.9048,-7.8934,-7.9002,-7.8566,-7.777,-0.6254,-0.5777,-0.5439,-0.5243,-0.5201,-0.5055,-0.5066,-0.5232,-0.5545,-0.6194,-0.7334,-0.788,-0.8925,-1.0486,-1.1107,-1.1572,-1.1882,-1.2347,-1.2656,-1.312,-1.312,-1.3744,-1.4846,-1.4976,-1.5429,-1.5863,-1.6142,-1.6177,-1.6122,-1.6215,-1.6141,-1.598,-1.5858,-1.5632,-1.554,-1.558,-1.585,-1.588,-1.4919,-1.5225,-1.7273,-1.8511,-1.9478,-2.0021,-2.099,-2.2456,-2.4249,-2.4719,-2.5888,-2.8138,-2.8178,-2.8867,-3.0319,-3.0846,-3.1402,-3.2046,-3.4245,-3.5635,-3.5629,-3.6684,-3.77,-3.8596,-3.9849,-4.1296,-4.2849,-4.3099,-4.2935,-4.3162,-4.5529,-4.8568,-5.1229,-5.1896,-5.23,-5.3392,-5.489,-5.6054,-5.67,-5.7304,-5.7903,-5.862,-5.9376,-6.0068,-6.0747,-6.1595,-6.2599,-6.3429,-6.4374,-6.5612,-6.6846,-6.735,-6.7715,-6.8395,-6.8946,-6.9496,-7.0175,-7.1417,-7.225,-7.2578,-7.3654,-7.451,-7.5177,-7.6016,-7.67,-7.6883,-7.6827,-7.7039,-7.7772,-7.7682,-7.7899,-7.8866,-7.9188,-7.9378,-7.9658,-7.9372,-7.8803,-0.633,-0.5835,-0.578,-0.575,-0.559,-0.5319,-0.5361,-0.5552,-0.5364,-0.5811,-0.6894,-0.7889,-0.8929,-1.0019,-1.0952,-1.1578,-1.1889,-1.2347,-1.2663,-1.3127,-1.3428,-1.3898,-1.4523,-1.5283,-1.5735,-1.6168,-1.6428,-1.6508,-1.6608,-1.6538,-1.6349,-1.6339,-1.7348,-1.727,-1.6324,-1.6694,-1.7058,-1.7264,-1.6465,-1.6465,-1.7426,-1.9626,-2.0687,-2.0402,-2.1662,-2.2993,-2.4692,-2.5809,-2.6922,-2.8201,-2.8939,-2.9761,-3.0672,-3.066,-3.1025,-3.248,-3.5465,-3.722,-3.7406,-3.8988,-4.0246,-4.121,-4.2763,-4.4011,-4.4878,-4.6254,-4.6656,-4.5995,-4.7749,-5.0216,-5.2358,-5.3203,-5.3892,-5.4809,-5.6122,-5.7275,-5.7903,-5.8873,-5.9564,-5.9873,-6.0661,-6.1359,-6.1757,-6.2909,-6.4277,-6.566,-6.6289,-6.7199,-6.8589,-6.9003,-6.9599,-7.0601,-7.0453,-7.0349,-7.1371,-7.2713,-7.3472,-7.376,-7.4832,-7.5715,-7.6228,-7.6591,-7.7082,-7.7365,-7.757,-7.7694,-7.7883,-7.8053,-7.8346,-7.8854,-7.9273,-7.9562,-7.9992,-8.004,-7.9768,-0.6051,-0.5854,-0.55,-0.5489,-0.5327,-0.5155,-0.518,-0.5387,-0.5538,-0.5838,-0.6448,-0.7961,-0.9296,-1.0491,-1.1185,-1.1854,-1.2793,-1.295,-1.3262,-1.3559,-1.3944,-1.4523,-1.5138,-1.5752,-1.6203,-1.694,-1.6907,-1.6852,-1.6774,-1.6606,-1.6822,-1.7208,-1.7786,-1.802,-1.7849,-1.8021,-1.8089,-1.8025,-1.7844,-1.7996,-1.8936,-2.0222,-2.1128,-2.1199,-2.2571,-2.4129,-2.5852,-2.7012,-2.8255,-2.9771,-2.9784,-3.0235,-3.1515,-3.0879,-3.1172,-3.3,-3.6846,-3.9226,-3.9694,-4.0975,-4.2079,-4.3315,-4.4558,-4.5757,-4.6891,-4.8172,-4.8649,-4.8545,-4.9967,-5.1943,-5.383,-5.451,-5.516,-5.5986,-5.6988,-5.7778,-5.8335,-5.9398,-6.0211,-6.0548,-6.1498,-6.2476,-6.3252,-6.4519,-6.6033,-6.7437,-6.8056,-6.8854,-7.0149,-7.0558,-7.1252,-7.2307,-7.2388,-7.2392,-7.2929,-7.4154,-7.4904,-7.5328,-7.5887,-7.6607,-7.6929,-7.7056,-7.7304,-7.7643,-7.7842,-7.7957,-7.7977,-7.8221,-7.8441,-7.8966,-7.9416,-7.974,-8.0154,-8.0195,-8.0072,-0.594,-0.6048,-0.5538,-0.5375,-0.5387,-0.518,-0.5196,-0.5406,-0.5872,-0.6029,-0.6364,-0.8189,-0.9992,-1.1504,-1.1742,-1.2397,-1.3305,-1.3497,-1.3647,-1.3901,-1.4415,-1.4822,-1.5445,-1.6212,-1.6815,-1.7379,-1.735,-1.7149,-1.694,-1.7086,-1.748,-1.8112,-1.8591,-1.9084,-1.9284,-1.919,-1.9229,-1.9088,-1.8744,-1.9187,-2.0296,-2.1731,-2.2331,-2.2247,-2.3722,-2.5332,-2.7085,-2.8156,-2.9466,-3.1009,-3.0668,-3.0915,-3.1998,-3.1226,-3.2218,-3.5599,-3.9164,-4.1494,-4.1848,-4.285,-4.3954,-4.5258,-4.6217,-4.7389,-4.8664,-4.9775,-5.0295,-5.0556,-5.2186,-5.4065,-5.5442,-5.5882,-5.628,-5.6862,-5.7684,-5.8427,-5.8914,-6.0161,-6.1037,-6.1117,-6.2507,-6.3859,-6.5106,-6.634,-6.7721,-6.9015,-6.9679,-7.0332,-7.1539,-7.2091,-7.2599,-7.3754,-7.4261,-7.4333,-7.4369,-7.5188,-7.6104,-7.6409,-7.6672,-7.6993,-7.7365,-7.7426,-7.7547,-7.7842,-7.8014,-7.8127,-7.8183,-7.8332,-7.8549,-7.8929,-7.9416,-7.9865,-8.0113,-8.0154,-8.0113,-0.584,-0.6437,-0.6044,-0.5891,-0.5943,-0.5446,-0.5485,-0.6028,-0.6404,-0.6571,-0.6801,-0.8733,-1.1001,-1.3397,-1.3082,-1.2977,-1.3176,-1.3781,-1.3931,-1.3959,-1.4684,-1.4968,-1.5122,-1.6501,-1.7407,-1.7531,-1.7679,-1.7476,-1.6968,-1.7935,-1.8519,-1.8675,-2.0072,-2.066,-2.024,-2.0601,-2.0737,-2.0274,-1.9296,-1.9596,-2.151,-2.4188,-2.477,-2.3735,-2.4904,-2.6517,-2.7955,-2.925,-3.0392,-3.1525,-3.1531,-3.1886,-3.2472,-3.2093,-3.4715,-4.04,-4.2922,-4.377,-4.3525,-4.4668,-4.5999,-4.6849,-4.8109,-4.9281,-5.0352,-5.1344,-5.1925,-5.1822,-5.425,-5.6321,-5.7151,-5.7259,-5.7338,-5.7433,-5.8487,-5.9241,-5.9661,-6.1447,-6.2191,-6.2266,-6.3876,-6.5648,-6.71,-6.8407,-6.9263,-7.0301,-7.1055,-7.1985,-7.3032,-7.3319,-7.4008,-7.5012,-7.5546,-7.5618,-7.5618,-7.6032,-7.6505,-7.6801,-7.7056,-7.7365,-7.7584,-7.7762,-7.79,-7.8071,-7.8239,-7.8349,-7.8495,-7.8655,-7.8864,-7.9128,-7.9509,-7.9822,-8.0072,-8.0154,-8.0113,-0.5516,-0.5784,-0.5555,-0.5564,-0.5622,-0.5955,-0.6327,-0.6556,-0.7501,-0.7588,-0.7693,-0.9936,-1.2217,-1.4348,-1.4311,-1.4366,-1.4238,-1.4548,-1.4851,-1.5152,-1.5507,-1.57,-1.6195,-1.6968,-1.7569,-1.7854,-1.8098,-1.8111,-1.7892,-1.834,-1.8852,-1.9322,-2.0411,-2.0978,-2.132,-2.1668,-2.1648,-2.1187,-2.0519,-2.0968,-2.2396,-2.508,-2.6277,-2.5786,-2.6648,-2.781,-2.8819,-3.0283,-3.1316,-3.1913,-3.2307,-3.2866,-3.355,-3.5528,-3.8381,-4.2038,-4.3844,-4.4709,-4.5216,-4.6152,-4.7414,-4.8813,-4.982,-5.1044,-5.2108,-5.2963,-5.3451,-5.3774,-5.5506,-5.7428,-5.8499,-5.8497,-5.8211,-5.8487,-5.9062,-5.9911,-6.0957,-6.2299,-6.3444,-6.4,-6.5732,-6.7513,-6.8457,-6.9018,-6.9852,-7.1325,-7.1932,-7.2971,-7.4368,-7.4834,-7.5155,-7.5859,-7.6373,-7.6534,-7.6534,-7.67,-7.6929,-7.7181,-7.7365,-7.7607,-7.7842,-7.7957,-7.8071,-7.8239,-7.8495,-7.8602,-7.8655,-7.876,-7.9016,-7.9273,-7.9562,-7.9778,-8.0072,-8.0113,-8.0072,-0.5861,-0.5982,-0.5772,-0.5778,-0.5982,-0.6483,-0.6846,-0.723,-0.8531,-0.9099,-0.9327,-1.1335,-1.3349,-1.4853,-1.5194,-1.5239,-1.5217,-1.5473,-1.5593,-1.6047,-1.6173,-1.6481,-1.6977,-1.7578,-1.8035,-1.8329,-1.8805,-1.8864,-1.8571,-1.9001,-1.9517,-2.0117,-2.1013,-2.1686,-2.2313,-2.2472,-2.2396,-2.2061,-2.1715,-2.2001,-2.3252,-2.5926,-2.7276,-2.7565,-2.8259,-2.9122,-2.9695,-3.0852,-3.1878,-3.2347,-3.3019,-3.3824,-3.5162,-3.7874,-4.089,-4.338,-4.4841,-4.5943,-4.6815,-4.7612,-4.8932,-5.0546,-5.1484,-5.2566,-5.3831,-5.4552,-5.484,-5.5298,-5.659,-5.8401,-5.9388,-5.9499,-5.9241,-5.9452,-5.9966,-6.0815,-6.1857,-6.3315,-6.4707,-6.5977,-6.7398,-6.8906,-7.0068,-7.0258,-7.119,-7.2833,-7.3226,-7.4226,-7.5508,-7.5898,-7.6036,-7.6475,-7.6765,-7.7019,-7.7206,-7.7329,-7.7389,-7.7607,-7.7725,-7.7957,-7.8071,-7.8183,-7.8239,-7.8458,-7.8602,-7.8708,-7.8812,-7.8915,-7.9079,-7.9331,-7.9509,-7.9645,-7.9903,-8.003,-7.9988,-0.6895,-0.7219,-0.6892,-0.6881,-0.7216,-0.6878,-0.7219,-0.8219,-0.9467,-1.0447,-1.1453,-1.2736,-1.4193,-1.5373,-1.5639,-1.5674,-1.6056,-1.6191,-1.6247,-1.6199,-1.6635,-1.6996,-1.7426,-1.8187,-1.8633,-1.9077,-1.9573,-1.9573,-1.8905,-1.993,-2.0669,-2.1153,-2.2186,-2.2794,-2.3426,-2.3426,-2.3264,-2.3066,-2.2719,-2.299,-2.4022,-2.6721,-2.8091,-2.8274,-2.9568,-3.0299,-3.0442,-3.1277,-3.1982,-3.2684,-3.3454,-3.4978,-3.7052,-3.911,-4.1605,-4.4539,-4.6409,-4.7487,-4.8172,-4.9221,-5.0518,-5.192,-5.2857,-5.3906,-5.5059,-5.5888,-5.623,-5.6309,-5.7493,-5.91,-6.0161,-6.0348,-6.0206,-6.0152,-6.0955,-6.1929,-6.2999,-6.4503,-6.6255,-6.7653,-6.8787,-7.0258,-7.1903,-7.2298,-7.2655,-7.3938,-7.4829,-7.54,-7.6135,-7.6342,-7.6541,-7.6829,-7.7144,-7.7329,-7.7725,-7.8014,-7.8014,-7.8071,-7.8221,-7.8332,-7.8386,-7.8495,-7.8549,-7.8708,-7.8775,-7.8915,-7.8966,-7.9016,-7.9116,-7.9273,-7.9453,-7.9592,-7.9728,-7.986,-7.9898,-0.656,-0.6895,-0.6389,-0.6724,-0.7394,-0.7562,-0.8403,-0.9579,-1.0865,-1.2014,-1.3012,-1.4153,-1.5319,-1.6328,-1.6689,-1.6726,-1.6816,-1.728,-1.7435,-1.729,-1.7344,-1.7702,-1.8207,-1.8795,-1.9249,-1.9693,-2.0469,-2.091,-2.0737,-2.1349,-2.2085,-2.2967,-2.2831,-2.3438,-2.4462,-2.4327,-2.4314,-2.4435,-2.4596,-2.5038,-2.5758,-2.7815,-2.8863,-2.9154,-3.0425,-3.1277,-3.1542,-3.2123,-3.2701,-3.34,-3.4408,-3.586,-3.7984,-4.0489,-4.2934,-4.5207,-4.6958,-4.8367,-4.9415,-5.0517,-5.1811,-5.3069,-5.4038,-5.523,-5.6445,-5.7084,-5.7433,-5.7548,-5.8652,-5.9846,-6.0922,-6.115,-6.0969,-6.0736,-6.1733,-6.2966,-6.4295,-6.6177,-6.7618,-6.8448,-6.9663,-7.1159,-7.2442,-7.2869,-7.3508,-7.4467,-7.5069,-7.5659,-7.6396,-7.6737,-7.6929,-7.7341,-7.7547,-7.7688,-7.7957,-7.8183,-7.8294,-7.8461,-7.8607,-7.8773,-7.8789,-7.9082,-7.906,-7.8939,-7.9041,-7.9016,-7.9066,-7.9116,-7.9165,-7.9263,-7.9406,-7.9546,-7.9683,-7.9803,-7.9961,-0.6892,-0.7227,-0.6724,-0.7227,-0.8064,-0.8395,-0.9407,-1.0764,-1.2081,-1.3039,-1.4009,-1.5028,-1.6172,-1.6957,-1.7421,-1.7423,-1.734,-1.8125,-1.825,-1.8289,-1.8174,-1.8568,-1.9049,-1.9411,-1.9833,-2.0609,-2.1672,-2.2121,-2.2073,-2.2831,-2.3426,-2.4005,-2.4018,-2.4327,-2.5345,-2.5212,-2.5359,-2.58,-2.5786,-2.6385,-2.761,-2.9183,-3.0193,-3.0316,-3.1559,-3.2526,-3.3206,-3.39,-3.4333,-3.4746,-3.5976,-3.7922,-3.9796,-4.2427,-4.462,-4.6446,-4.8172,-4.9589,-5.074,-5.2028,-5.3174,-5.442,-5.543,-5.6445,-5.7621,-5.815,-5.8419,-5.8606,-5.9393,-6.0455,-6.1567,-6.1781,-6.181,-6.2125,-6.3026,-6.441,-6.6177,-6.8111,-6.8967,-6.9452,-7.0484,-7.2121,-7.3298,-7.3721,-7.4248,-7.4997,-7.5551,-7.6017,-7.682,-7.7181,-7.7463,-7.7643,-7.7783,-7.7957,-7.8183,-7.8349,-7.8602,-7.8805,-7.9044,-7.9284,-7.9448,-7.9949,-8.024,-7.9603,-7.9479,-7.9104,-7.9116,-7.9116,-7.9165,-7.9263,-7.9406,-7.95,-7.9713,-8.0226,-8.046,-0.7729,-0.806,-0.7729,-0.8399,-0.9402,-0.9564,-1.0409,-1.1605,-1.2912,-1.4031,-1.4975,-1.5843,-1.6613,-1.7117,-1.7764,-1.7873,-1.7823,-1.829,-1.8812,-1.9131,-1.9336,-1.9706,-2.0222,-2.0167,-2.0553,-2.1648,-2.2905,-2.334,-2.3116,-2.4005,-2.4757,-2.5051,-2.5492,-2.58,-2.6093,-2.5932,-2.6414,-2.7042,-2.6474,-2.7186,-2.9393,-3.1086,-3.1765,-3.1824,-3.291,-3.4296,-3.551,-3.6824,-3.6958,-3.6324,-3.8444,-4.059,-4.2705,-4.4716,-4.6603,-4.8637,-5.0041,-5.1155,-5.2244,-5.3413,-5.4654,-5.5857,-5.6735,-5.7808,-5.8487,-5.894,-5.9105,-5.9091,-5.9965,-6.1069,-6.2159,-6.2437,-6.2921,-6.4059,-6.4811,-6.6347,-6.9133,-7.0208,-7.03,-7.0162,-7.1444,-7.3261,-7.4834,-7.4865,-7.5318,-7.5949,-7.6526,-7.7045,-7.7329,-7.7584,-7.7762,-7.7842,-7.8014,-7.8127,-7.8276,-7.8495,-7.8693,-7.8932,-7.9299,-7.9777,-7.9739,-8.0179,-8.0905,-8.0305,-7.9717,-7.9341,-7.9191,-7.9266,-7.9241,-7.9263,-7.9359,-7.9453,-7.9819,-8.034,-8.0889,-0.8896,-0.9569,-0.9397,-0.9898,-1.0737,-1.0893,-1.1576,-1.2932,-1.4232,-1.5342,-1.6286,-1.7492,-1.8146,-1.8732,-1.8892,-1.8996,-1.8926,-1.9189,-1.9554,-1.9981,-2.0921,-2.1159,-2.1163,-2.1014,-2.1417,-2.2682,-2.4271,-2.4985,-2.4609,-2.5226,-2.596,-2.6823,-2.6428,-2.6706,-2.726,-2.7289,-2.77,-2.8404,-2.7955,-2.8851,-3.117,-3.3198,-3.4176,-3.4433,-3.5354,-3.6689,-3.8138,-4.0083,-4.0729,-3.9823,-4.1242,-4.2989,-4.4743,-4.6688,-4.8779,-5.0812,-5.1543,-5.2352,-5.3623,-5.4624,-5.5728,-5.6831,-5.7621,-5.8395,-5.9331,-5.9739,-5.9793,-5.9891,-6.0738,-6.2152,-6.3315,-6.3494,-6.422,-6.5847,-6.6636,-6.7933,-7.0043,-7.087,-7.1159,-7.1908,-7.2941,-7.419,-7.5226,-7.5823,-7.6119,-7.6599,-7.7118,-7.7547,-7.7666,-7.7783,-7.79,-7.7994,-7.8108,-7.8221,-7.8386,-7.8549,-7.8783,-7.906,-7.9575,-8.0329,-8.0005,-7.9629,-8.043,-8.0806,-7.998,-7.9492,-7.9567,-7.9642,-7.9553,-7.9434,-7.9406,-7.9538,-7.9902,-8.0378,-8.1041,-0.9898,-1.0404,-1.0398,-1.0898,-1.1736,-1.1896,-1.2733,-1.3908,-1.5058,-1.6328,-1.7267,-1.8309,-1.9105,-1.9644,-1.9753,-1.9686,-1.9626,-1.9843,-2.0167,-2.0669,-2.1848,-2.2518,-2.2545,-2.2323,-2.2769,-2.4179,-2.62,-2.6848,-2.66,-2.688,-2.7526,-2.7939,-2.7688,-2.7834,-2.8719,-2.8696,-2.9226,-3.0292,-3.0225,-3.1236,-3.318,-3.5237,-3.6113,-3.6634,-3.7627,-3.9192,-4.1369,-4.3387,-4.376,-4.3239,-4.3983,-4.5519,-4.6978,-4.8805,-5.0766,-5.2707,-5.2808,-5.3539,-5.4869,-5.5645,-5.6488,-5.7746,-5.8487,-5.9152,-5.9772,-6.0259,-6.0505,-6.0687,-6.1761,-6.3256,-6.4951,-6.5352,-6.6209,-6.7516,-6.8608,-6.9842,-7.1442,-7.2156,-7.2798,-7.369,-7.4404,-7.5048,-7.6079,-7.6481,-7.6737,-7.7056,-7.7426,-7.7666,-7.79,-7.7957,-7.8071,-7.8165,-7.8221,-7.8332,-7.8349,-7.8512,-7.8783,-7.9112,-7.9276,-8.0192,-8.0468,-7.9792,-8.0355,-8.0881,-8.0255,-7.9917,-8.0229,-8.0279,-7.9934,-7.9802,-7.9613,-7.9857,-8.0378,-8.1079,-8.1621,-1.0904,-1.0904,-1.107,-1.157,-1.2401,-1.2899,-1.3728,-1.4878,-1.604,-1.6992,-1.8091,-1.8645,-1.9533,-2.0421,-2.0232,-2.0125,-2.0188,-2.0168,-2.0838,-2.1742,-2.298,-2.3877,-2.4541,-2.3684,-2.4275,-2.5856,-2.8236,-2.8592,-2.8206,-2.8501,-2.8995,-2.9369,-2.9229,-2.9454,-3.0224,-3.021,-3.1006,-3.2433,-3.3074,-3.4018,-3.5635,-3.7425,-3.8553,-3.9014,-4.0471,-4.2385,-4.4523,-4.61,-4.6433,-4.5448,-4.6671,-4.8047,-4.9556,-5.1039,-5.2323,-5.3442,-5.395,-5.481,-5.6097,-5.6619,-5.7336,-5.8573,-5.9331,-5.9892,-6.0325,-6.0952,-6.1465,-6.1547,-6.2625,-6.4531,-6.6456,-6.762,-6.8187,-6.8928,-7.0274,-7.1695,-7.237,-7.3476,-7.4547,-7.5156,-7.5549,-7.6079,-7.6492,-7.6789,-7.6929,-7.7304,-7.7666,-7.79,-7.8014,-7.8071,-7.8165,-7.8221,-7.8332,-7.8386,-7.8458,-7.8437,-7.882,-7.9074,-7.9014,-7.9603,-8.0956,-8.0806,-8.0919,-8.0919,-8.0944,-8.1031,-8.1317,-8.1113,-8.0688,-8.0591,-8.0787,-8.0959,-8.1241,-8.2086,-8.2779,-1.2069,-1.2401,-1.3065,-1.3403,-1.3901,-1.4886,-1.5373,-1.5859,-1.7355,-1.8309,-1.9095,-1.9785,-2.0663,-2.1228,-2.0998,-2.0891,-2.0824,-2.0905,-2.1905,-2.3769,-2.4618,-2.5896,-2.6418,-2.5414,-2.5304,-2.6939,-2.9004,-2.9734,-2.9345,-2.9665,-3.0118,-3.1055,-3.117,-3.1563,-3.2458,-3.2619,-3.325,-3.4609,-3.5515,-3.668,-3.8356,-4.0098,-4.1347,-4.1865,-4.3931,-4.5764,-4.7221,-4.8647,-4.9308,-4.9508,-4.9793,-5.0326,-5.1008,-5.2444,-5.3623,-5.4288,-5.527,-5.6097,-5.7117,-5.7837,-5.8659,-5.9266,-5.9946,-6.0463,-6.1086,-6.2048,-6.2333,-6.2727,-6.4243,-6.6066,-6.7551,-6.8432,-6.9029,-6.98,-7.1294,-7.2402,-7.2367,-7.3506,-7.4757,-7.5476,-7.5762,-7.6079,-7.6802,-7.6911,-7.7181,-7.7607,-7.79,-7.8165,-7.8221,-7.8221,-7.8221,-7.8276,-7.8349,-7.8367,-7.8458,-7.8565,-7.8783,-7.9037,-7.8976,-7.9041,-8.0342,-8.1345,-8.1232,-8.1583,-8.2009,-8.2184,-8.2206,-8.2359,-8.2089,-8.1982,-8.1919,-8.2006,-8.2361,-8.3167,-8.3783,-1.3065,-1.3721,-1.4225,-1.4563,-1.4893,-1.5554,-1.6369,-1.7182,-1.8337,-1.946,-2.0241,-2.0931,-2.1684,-2.2191,-2.193,-2.1681,-2.1705,-2.1976,-2.3204,-2.4842,-2.591,-2.7136,-2.8088,-2.7261,-2.6998,-2.8297,-3.0339,-3.0958,-3.0941,-3.1564,-3.2423,-3.3135,-3.3569,-3.4067,-3.4866,-3.5216,-3.599,-3.7112,-3.7793,-3.9003,-4.0892,-4.204,-4.3765,-4.4866,-4.6773,-4.821,-4.9589,-5.0601,-5.1484,-5.2028,-5.2566,-5.2722,-5.2713,-5.3698,-5.4611,-5.519,-5.5816,-5.6836,-5.7683,-5.8382,-5.9088,-5.9859,-6.041,-6.1117,-6.1899,-6.2906,-6.3509,-6.3913,-6.5391,-6.7306,-6.8592,-6.9408,-6.9935,-7.0422,-7.174,-7.2562,-7.2562,-7.3672,-7.4965,-7.561,-7.5642,-7.6197,-7.6765,-7.7019,-7.7487,-7.79,-7.7977,-7.8183,-7.8276,-7.8276,-7.8276,-7.8332,-7.8329,-7.8383,-7.8512,-7.8602,-7.8783,-7.891,-7.8835,-7.899,-7.9629,-8.0556,-8.1282,-8.1671,-8.2071,-8.2783,-8.2926,-8.3112,-8.3253,-8.3155,-8.305,-8.3091,-8.3326,-8.3786,-8.4402,-1.4059,-1.4878,-1.4878,-1.5208,-1.5711,-1.6213,-1.7191,-1.8337,-1.9153,-2.0272,-2.1222,-2.19,-2.2361,-2.2762,-2.2576,-2.2502,-2.2829,-2.3504,-2.4592,-2.5949,-2.7453,-2.8701,-2.9338,-2.8903,-2.9043,-3.0146,-3.238,-3.3094,-3.3336,-3.4133,-3.5154,-3.5703,-3.6492,-3.7192,-3.7546,-3.8127,-3.8938,-4.0108,-4.0058,-4.0924,-4.2777,-4.3749,-4.5379,-4.7574,-4.8762,-4.9901,-5.1265,-5.2272,-5.3049,-5.3681,-5.4641,-5.4743,-5.4641,-5.4845,-5.5511,-5.578,-5.646,-5.737,-5.8332,-5.8912,-5.9532,-6.0292,-6.1135,-6.1932,-6.2858,-6.3939,-6.4667,-6.5555,-6.681,-6.8605,-6.9675,-7.0279,-7.074,-7.1123,-7.1896,-7.2358,-7.264,-7.3724,-7.4905,-7.5525,-7.5841,-7.6389,-7.6909,-7.7218,-7.771,-7.8071,-7.8109,-7.8202,-7.8239,-7.8276,-7.8332,-7.8349,-7.8346,-7.84,-7.8565,-7.8655,-7.8783,-7.8925,-7.8835,-7.9241,-7.9466,-8.0338,-8.1226,-8.1517,-8.199,-8.2897,-8.3612,-8.3791,-8.3963,-8.4091,-8.4131,-8.4093,-8.4248,-8.4441,-8.494,-1.4548,-1.5381,-1.604,-1.6525,-1.7018,-1.7846,-1.8664,-1.9642,-2.0617,-2.1265,-2.1911,-2.2234,-2.2773,-2.2929,-2.287,-2.2996,-2.3773,-2.4585,-2.5959,-2.7563,-2.9138,-3.0656,-3.1267,-3.0908,-3.1446,-3.3384,-3.523,-3.587,-3.5705,-3.6694,-3.7866,-3.8708,-3.9596,-4.0389,-4.0878,-4.1481,-4.1838,-4.2542,-4.2303,-4.2903,-4.4427,-4.586,-4.7482,-4.9901,-5.0685,-5.1565,-5.2566,-5.3547,-5.4097,-5.42,-5.5048,-5.5451,-5.5651,-5.5948,-5.6305,-5.6537,-5.7214,-5.8145,-5.9132,-6.012,-6.0637,-6.1401,-6.2374,-6.3351,-6.422,-6.5474,-6.6248,-6.709,-6.8751,-7.0642,-7.0577,-7.08,-7.1045,-7.1391,-7.1817,-7.2308,-7.2255,-7.3352,-7.4615,-7.5067,-7.577,-7.6537,-7.6876,-7.7105,-7.7398,-7.77,-7.7886,-7.809,-7.8276,-7.8332,-7.8332,-7.8329,-7.8325,-7.8453,-7.8618,-7.8708,-7.8798,-7.8939,-7.9116,-7.979,-8.0132,-8.0658,-8.1241,-8.1876,-8.2717,-8.3771,-8.4252,-8.4462,-8.4701,-8.482,-8.4975,-8.5053,-8.5015,-8.5016,-8.5208,-1.5208,-1.6534,-1.7191,-1.7673,-1.8174,-1.899,-1.9805,-2.0779,-2.175,-2.2556,-2.3038,-2.352,-2.3854,-2.3854,-2.3928,-2.4352,-2.4879,-2.5859,-2.7409,-2.9026,-3.0925,-3.2509,-3.3717,-3.3509,-3.4903,-3.7077,-3.8982,-3.9062,-3.8073,-3.9535,-4.0451,-4.1249,-4.234,-4.3059,-4.3263,-4.3533,-4.4219,-4.4726,-4.4253,-4.4691,-4.6458,-4.7925,-4.9788,-5.1265,-5.2244,-5.302,-5.3993,-5.4436,-5.4947,-5.525,-5.5849,-5.6244,-5.6634,-5.6892,-5.6957,-5.6898,-5.7589,-5.8722,-5.9693,-6.0685,-6.1432,-6.1857,-6.3182,-6.423,-6.5206,-6.6422,-6.7826,-6.8962,-6.9839,-7.1447,-7.1195,-7.1139,-7.1276,-7.154,-7.1929,-7.1956,-7.2253,-7.3556,-7.4176,-7.4551,-7.5066,-7.5886,-7.6714,-7.6913,-7.7069,-7.7293,-7.7645,-7.7905,-7.8202,-7.8332,-7.8386,-7.8383,-7.8416,-7.8633,-7.876,-7.8812,-7.8864,-7.9003,-7.9391,-8.0057,-8.0931,-8.1527,-8.2147,-8.2792,-8.3715,-8.4524,-8.4881,-8.5044,-8.5317,-8.5471,-8.5358,-8.5282,-8.5435,-8.5551,-8.5667,-1.6196,-1.7691,-1.8174,-1.8664,-1.9326,-1.9967,-2.0941,-2.1911,-2.2866,-2.3508,-2.416,-2.4639,-2.5003,-2.5046,-2.5306,-2.5727,-2.6319,-2.7549,-2.9213,-3.0972,-3.2743,-3.438,-3.576,-3.7169,-3.8491,-3.9921,-4.2644,-4.2979,-4.113,-4.2011,-4.3144,-4.3872,-4.4937,-4.5409,-4.5278,-4.5865,-4.624,-4.6471,-4.6231,-4.6938,-4.8762,-5.0211,-5.1509,-5.2837,-5.3261,-5.3993,-5.4976,-5.5551,-5.5849,-5.6244,-5.67,-5.718,-5.7464,-5.7808,-5.765,-5.7273,-5.8037,-5.9065,-6.0397,-6.1332,-6.2076,-6.2313,-6.3863,-6.4966,-6.6041,-6.7618,-6.9315,-7.053,-7.1225,-7.1542,-7.1504,-7.1467,-7.1531,-7.1718,-7.1842,-7.2036,-7.2509,-7.331,-7.4037,-7.4368,-7.4632,-7.5338,-7.6322,-7.679,-7.7014,-7.7423,-7.7719,-7.7885,-7.8238,-7.8349,-7.8404,-7.8437,-7.8544,-7.8812,-7.8901,-7.8915,-7.9016,-7.9165,-7.9708,-8.0318,-8.1414,-8.2466,-8.3041,-8.3621,-8.4158,-8.4851,-8.5238,-8.5393,-8.528,-8.5282,-8.5435,-8.5358,-8.513,-8.5437,-8.5704,-1.7673,-1.8673,-1.9479,-2.0292,-2.0952,-2.1114,-2.2073,-2.3359,-2.368,-2.4172,-2.497,-2.513,-2.5409,-2.5846,-2.6464,-2.7134,-2.8189,-2.9653,-3.1446,-3.3247,-3.5276,-3.701,-3.8649,-4.0228,-4.1299,-4.2704,-4.516,-4.5321,-4.4188,-4.4658,-4.5583,-4.6285,-4.6925,-4.7658,-4.7871,-4.8025,-4.8956,-4.9478,-4.9063,-4.9729,-5.1377,-5.2174,-5.278,-5.3669,-5.4436,-5.5078,-5.5681,-5.6244,-5.6827,-5.6988,-5.784,-5.8303,-5.8363,-5.8201,-5.8791,-5.9253,-5.9826,-6.0423,-6.175,-6.2459,-6.2923,-6.3467,-6.5144,-6.6458,-6.7623,-6.8925,-7.0284,-7.0417,-7.1103,-7.1576,-7.1801,-7.1791,-7.1878,-7.1964,-7.2108,-7.2226,-7.2621,-7.3382,-7.4106,-7.4349,-7.4589,-7.5291,-7.6161,-7.6606,-7.6993,-7.7422,-7.7793,-7.8014,-7.818,-7.8367,-7.8474,-7.8506,-7.8648,-7.8864,-7.9003,-7.9054,-7.9214,-7.9321,-7.997,-8.0612,-8.1668,-8.279,-8.3786,-8.4362,-8.4782,-8.4935,-8.5128,-8.5128,-8.5053,-8.5091,-8.5206,-8.4939,-8.4595,-8.5053,-8.5704,-1.9144,-1.9479,-2.012,-2.0779,-2.1761,-2.2395,-2.3038,-2.384,-2.4652,-2.5289,-2.5753,-2.607,-2.6531,-2.7148,-2.7933,-2.8695,-2.9898,-3.1743,-3.37,-3.5627,-3.7855,-3.9737,-4.1221,-4.2587,-4.369,-4.4815,-4.6192,-4.7164,-4.665,-4.6786,-4.7203,-4.7881,-4.8365,-4.8729,-4.9599,-4.9488,-4.9932,-5.0481,-5.0878,-5.198,-5.3357,-5.3727,-5.4009,-5.4815,-5.535,-5.588,-5.6439,-5.6796,-5.7464,-5.784,-5.861,-5.912,-5.9346,-5.935,-5.9585,-6.0754,-6.1294,-6.2018,-6.3046,-6.3281,-6.3732,-6.4697,-6.6214,-6.7728,-6.9059,-7.0033,-7.0894,-7.1059,-7.1494,-7.1827,-7.1987,-7.2036,-7.2144,-7.2263,-7.2401,-7.2516,-7.287,-7.3721,-7.4329,-7.4455,-7.4598,-7.5176,-7.5753,-7.6382,-7.6861,-7.7436,-7.792,-7.8309,-7.8437,-7.8565,-7.8596,-7.8588,-7.8765,-7.8966,-7.9016,-7.9066,-7.9321,-7.9622,-8.0326,-8.1008,-8.1913,-8.2912,-8.3754,-8.4518,-8.4899,-8.4975,-8.4976,-8.5015,-8.5015,-8.4976,-8.4976,-8.471,-8.4518,-8.5242,-8.5813,-2.013,-2.0455,-2.0769,-2.1427,-2.2245,-2.3359,-2.4,-2.448,-2.5474,-2.6096,-2.6702,-2.7319,-2.8104,-2.9012,-2.99,-3.0972,-3.2217,-3.4319,-3.622,-3.8253,-4.0187,-4.1979,-4.3325,-4.4566,-4.5479,-4.665,-4.7508,-4.8324,-4.8711,-4.892,-4.9046,-4.9219,-4.9914,-5.0209,-5.0399,-5.0988,-5.1516,-5.1815,-5.2516,-5.3559,-5.4643,-5.4832,-5.5119,-5.5651,-5.6145,-5.6634,-5.718,-5.7653,-5.8211,-5.8908,-5.9476,-6.0087,-6.0553,-6.0639,-6.0835,-6.2054,-6.3085,-6.414,-6.4398,-6.4485,-6.4844,-6.5759,-6.7233,-6.8912,-7.0452,-7.0865,-7.0887,-7.1422,-7.1718,-7.2048,-7.2206,-7.2277,-7.238,-7.2553,-7.2779,-7.289,-7.3111,-7.368,-7.401,-7.3967,-7.4145,-7.4621,-7.5277,-7.6058,-7.6707,-7.7356,-7.7931,-7.8491,-7.8708,-7.876,-7.8789,-7.8779,-7.8854,-7.9016,-7.9066,-7.9214,-7.9462,-7.9803,-8.0504,-8.1174,-8.1879,-8.2493,-8.3219,-8.3983,-8.4671,-8.4518,-8.4136,-8.4594,-8.49,-8.425,-8.3869,-8.4366,-8.4669,-8.5355,-8.5915,-2.0292,-2.1761,-2.175,-2.2234,-2.3199,-2.3532,-2.4639,-2.5568,-2.6122,-2.6598,-2.7319,-2.8573,-2.9804,-3.0854,-3.2353,-3.3966,-3.5646,-3.7014,-3.9122,-4.0975,-4.2457,-4.3782,-4.5178,-4.6175,-4.7107,-4.8179,-4.8911,-4.9626,-5.0336,-5.0812,-5.098,-5.1085,-5.1456,-5.2098,-5.2476,-5.2829,-5.3231,-5.3559,-5.3964,-5.4479,-5.528,-5.5651,-5.6047,-5.6311,-5.6796,-5.7275,-5.784,-5.8546,-5.9355,-6.0022,-6.0652,-6.1235,-6.1689,-6.1682,-6.2076,-6.3281,-6.5209,-6.5999,-6.5899,-6.5829,-6.6073,-6.6772,-6.8235,-6.9979,-7.1131,-7.1593,-7.1646,-7.1635,-7.1927,-7.235,-7.26,-7.2737,-7.2704,-7.2835,-7.3,-7.3091,-7.3252,-7.3447,-7.3662,-7.3527,-7.3964,-7.4723,-7.572,-7.6728,-7.7237,-7.7886,-7.82,-7.8812,-7.8864,-7.8966,-7.9016,-7.9029,-7.9029,-7.9116,-7.9165,-7.9311,-7.9509,-7.9778,-8.0254,-8.088,-8.1538,-8.2187,-8.2722,-8.3142,-8.3715,-8.3524,-8.3486,-8.3907,-8.3907,-8.299,-8.2951,-8.4249,-8.5001,-8.556,-8.603,-2.1103,-2.1922,-2.2717,-2.3371,-2.4172,-2.5263,-2.5806,-2.6029,-2.7059,-2.7717,-2.8331,-3.0377,-3.1775,-3.2977,-3.4769,-3.6553,-3.8418,-4.0289,-4.1796,-4.3395,-4.481,-4.6025,-4.715,-4.7707,-4.8454,-4.9403,-5.0148,-5.0846,-5.1461,-5.225,-5.2816,-5.2988,-5.2994,-5.3066,-5.354,-5.4153,-5.451,-5.473,-5.4958,-5.53,-5.6311,-5.6537,-5.7019,-5.7746,-5.784,-5.8395,-5.894,-5.9531,-6.0226,-6.0936,-6.1547,-6.211,-6.2591,-6.2574,-6.3158,-6.4408,-6.6636,-6.7271,-6.7232,-6.7295,-6.7639,-6.8648,-6.9865,-7.1042,-7.1593,-7.1744,-7.1854,-7.1938,-7.2167,-7.2621,-7.2831,-7.2982,-7.3037,-7.3145,-7.3199,-7.3305,-7.341,-7.3564,-7.3852,-7.3939,-7.4711,-7.5508,-7.6581,-7.7604,-7.8003,-7.8452,-7.8728,-7.8966,-7.8979,-7.9116,-7.9165,-7.9214,-7.9214,-7.9349,-7.9434,-7.9538,-7.9683,-7.9903,-8.0154,-8.0619,-8.1194,-8.169,-8.2187,-8.2531,-8.276,-8.2837,-8.3027,-8.3257,-8.3141,-8.2759,-8.3637,-8.5125,-8.5604,-8.583,-8.6143,-2.149,-2.2293,-2.356,-2.4405,-2.5092,-2.6437,-2.6758,-2.6804,-2.8316,-2.9649,-3.0545,-3.2641,-3.4035,-3.5366,-3.727,-3.9309,-4.0933,-4.266,-4.4029,-4.5348,-4.664,-4.7808,-4.8518,-4.9139,-4.9747,-5.0585,-5.1377,-5.2113,-5.2544,-5.3261,-5.3919,-5.4126,-5.42,-5.4304,-5.4466,-5.5197,-5.5762,-5.6161,-5.6298,-5.6475,-5.7432,-5.759,-5.7871,-5.8578,-5.894,-5.9443,-6.0152,-6.0765,-6.1634,-6.2159,-6.2719,-6.3154,-6.3296,-6.3531,-6.3996,-6.5583,-6.7339,-6.8425,-6.8382,-6.8546,-6.9196,-7.0202,-7.0925,-7.1609,-7.1805,-7.1951,-7.2034,-7.197,-7.2459,-7.2907,-7.3167,-7.3256,-7.3305,-7.341,-7.341,-7.3513,-7.3578,-7.3715,-7.4101,-7.4462,-7.5458,-7.6567,-7.7441,-7.8353,-7.8466,-7.8754,-7.8866,-7.9066,-7.9066,-7.9165,-7.9263,-7.9359,-7.9406,-7.9575,-7.9743,-7.9848,-7.9946,-8.003,-8.0235,-8.0354,-8.0812,-8.127,-8.1461,-8.1576,-8.1843,-8.2186,-8.2719,-8.3254,-8.3177,-8.2871,-8.4125,-8.5488,-8.5998,-8.6211,-8.6346,-2.1726,-2.2835,-2.4095,-2.5007,-2.5977,-2.6662,-2.7326,-2.8052,-2.9839,-3.1755,-3.3477,-3.4961,-3.6349,-3.7943,-3.9841,-4.1722,-4.3377,-4.4561,-4.5906,-4.7383,-4.7901,-4.8652,-4.9377,-5.0148,-5.0793,-5.1486,-5.2408,-5.3261,-5.3576,-5.4509,-5.5048,-5.5451,-5.562,-5.572,-5.5741,-5.6984,-5.8014,-5.8592,-5.8466,-5.8311,-5.8245,-5.855,-5.9068,-5.9548,-6.0001,-6.0567,-6.1483,-6.223,-6.3033,-6.3713,-6.4059,-6.4518,-6.4897,-6.4245,-6.4777,-6.6215,-6.9166,-7.011,-6.9705,-6.9957,-7.0536,-7.133,-7.1769,-7.1988,-7.2048,-7.2167,-7.2255,-7.2169,-7.265,-7.3219,-7.3416,-7.3573,-7.3601,-7.3615,-7.3615,-7.3578,-7.3678,-7.4076,-7.4548,-7.5233,-7.6504,-7.7738,-7.8452,-7.9015,-7.8978,-7.9053,-7.9079,-7.9128,-7.9177,-7.9273,-7.9453,-7.9538,-7.9592,-7.9803,-8.0011,-8.0068,-8.0154,-8.0235,-8.0314,-8.0431,-8.0506,-8.0772,-8.0849,-8.0811,-8.1345,-8.2181,-8.2828,-8.3435,-8.3619,-8.3956,-8.451,-8.5522,-8.6095,-8.6528,-8.6556,-2.2429,-2.3548,-2.511,-2.6867,-2.8429,-2.8133,-2.8384,-2.9425,-3.1515,-3.3664,-3.5702,-3.7336,-3.8826,-4.0459,-4.2158,-4.3997,-4.5514,-4.7027,-4.8204,-4.8739,-4.914,-4.9898,-5.0519,-5.0958,-5.1646,-5.2509,-5.3594,-5.4304,-5.4641,-5.5651,-5.6244,-5.6506,-5.6988,-5.7084,-5.6923,-5.7555,-5.8279,-5.8497,-5.8746,-5.9083,-5.9036,-5.9943,-6.0663,-6.1107,-6.1268,-6.1963,-6.3026,-6.3645,-6.4254,-6.4976,-6.5352,-6.5877,-6.5999,-6.5408,-6.5687,-6.7717,-7.0488,-7.1211,-7.1142,-7.1319,-7.1478,-7.1891,-7.2084,-7.2285,-7.2459,-7.2573,-7.254,-7.2536,-7.2955,-7.3461,-7.3713,-7.374,-7.3715,-7.3665,-7.3665,-7.3715,-7.3927,-7.4548,-7.517,-7.5994,-7.7153,-7.8172,-7.902,-7.9114,-7.9085,-7.8972,-7.8934,-7.9236,-7.9403,-7.9524,-7.969,-7.981,-7.9892,-8.006,-8.0186,-8.0233,-8.0314,-8.0392,-8.0431,-8.0468,-8.0506,-8.0543,-8.0924,-8.123,-8.1722,-8.2249,-8.3163,-8.4066,-8.4773,-8.5282,-8.5574,-8.5796,-8.624,-8.6556,-8.6583,-2.3526,-2.4926,-2.6547,-2.8644,-3.0416,-2.9875,-3.0415,-3.2132,-3.4001,-3.6085,-3.8165,-3.9854,-4.1438,-4.2951,-4.4487,-4.5658,-4.7182,-4.8109,-4.876,-4.9354,-4.9816,-5.0317,-5.1072,-5.1839,-5.2751,-5.3642,-5.4493,-5.5149,-5.575,-5.6409,-5.7084,-5.7653,-5.8211,-5.8303,-5.8274,-5.8709,-5.9238,-5.9607,-6.0096,-6.0081,-6.0261,-6.0778,-6.1633,-6.1981,-6.2401,-6.2933,-6.4053,-6.4742,-6.5199,-6.6056,-6.6641,-6.7193,-6.706,-6.6915,-6.6943,-6.9138,-7.0906,-7.1593,-7.1805,-7.2248,-7.227,-7.2285,-7.2438,-7.263,-7.2853,-7.2926,-7.2955,-7.3052,-7.3391,-7.3678,-7.3877,-7.3901,-7.3864,-7.3765,-7.3815,-7.3912,-7.411,-7.4731,-7.5774,-7.6638,-7.7485,-7.8502,-7.929,-7.9122,-7.9058,-7.8912,-7.8803,-7.9145,-7.9448,-7.9566,-7.9798,-8.003,-8.011,-8.0233,-8.0351,-8.0353,-8.0431,-8.0506,-8.0506,-8.0543,-8.0543,-8.058,-8.1152,-8.1683,-8.2019,-8.2583,-8.383,-8.4766,-8.5351,-8.5864,-8.623,-8.6412,-8.6528,-8.6556,-8.661,-2.5283,-2.6752,-2.828,-3.0267,-3.1889,-3.221,-3.3785,-3.6585,-3.747,-3.8989,-4.1128,-4.2474,-4.3571,-4.511,-4.6483,-4.7273,-4.8068,-4.8548,-4.9185,-4.9583,-5.0401,-5.1092,-5.2023,-5.2943,-5.3773,-5.464,-5.5448,-5.6115,-5.67,-5.7275,-5.7933,-5.8578,-5.9177,-5.9476,-5.9725,-6.0129,-6.0564,-6.0739,-6.0761,-6.0877,-6.1069,-6.1417,-6.2125,-6.2674,-6.3135,-6.3888,-6.4916,-6.5738,-6.6595,-6.7313,-6.8036,-6.8291,-6.8363,-6.8315,-6.872,-6.9741,-7.1391,-7.1794,-7.2204,-7.263,-7.2853,-7.2798,-7.3017,-7.3124,-7.3178,-7.3246,-7.329,-7.3404,-7.3703,-7.3912,-7.4073,-7.4046,-7.4056,-7.4056,-7.4056,-7.4179,-7.4338,-7.5116,-7.6149,-7.7107,-7.7961,-7.8813,-7.9481,-7.9495,-7.9318,-7.9055,-7.898,-7.8941,-7.9207,-7.9284,-7.9589,-8.0237,-8.0354,-8.0468,-8.0506,-8.0506,-8.0543,-8.0616,-8.058,-8.058,-8.058,-8.0654,-8.1221,-8.1674,-8.205,-8.2836,-8.3919,-8.4927,-8.5815,-8.618,-8.6169,-8.6467,-8.6428,-8.6544,-8.661,-2.7885,-2.8431,-3.0251,-3.2253,-3.4544,-3.7245,-3.8685,-3.8989,-3.982,-4.1783,-4.4278,-4.4205,-4.4963,-4.6238,-4.6703,-4.7837,-4.8803,-4.9886,-5.0928,-5.1399,-5.1556,-5.2751,-5.3535,-5.4111,-5.487,-5.556,-5.623,-5.6892,-5.7275,-5.7933,-5.9088,-6.0001,-6.0226,-6.0685,-6.1002,-6.1385,-6.1351,-6.1384,-6.1285,-6.1483,-6.1904,-6.2381,-6.3057,-6.3845,-6.4195,-6.5186,-6.6699,-6.6954,-6.7776,-6.8744,-6.921,-6.9531,-7.005,-6.9961,-7.0224,-7.1391,-7.2097,-7.2313,-7.2553,-7.2853,-7.3124,-7.3372,-7.354,-7.3628,-7.3628,-7.3678,-7.3777,-7.3838,-7.3886,-7.4094,-7.4131,-7.4141,-7.4104,-7.4151,-7.4235,-7.4402,-7.4673,-7.572,-7.6753,-7.7571,-7.8414,-7.9305,-7.9926,-7.9933,-7.9743,-7.9396,-7.9127,-7.9088,-7.909,-7.9167,-7.9551,-8.0277,-8.0505,-8.0616,-8.0652,-8.0652,-8.0688,-8.0723,-8.0688,-8.0688,-8.0723,-8.0911,-8.1325,-8.1853,-8.2452,-8.311,-8.3905,-8.4695,-8.5291,-8.5512,-8.5577,-8.6029,-8.6339,-8.6339,-8.63,-3.0447,-3.073,-3.2302,-3.4594,-3.731,-4.0307,-4.1572,-4.1879,-4.25,-4.3844,-4.5131,-4.5294,-4.5897,-4.672,-4.7436,-4.8409,-4.938,-5.0016,-5.0852,-5.1396,-5.2704,-5.2994,-5.3733,-5.4789,-5.5384,-5.621,-5.712,-5.784,-5.818,-5.9177,-6.043,-6.0886,-6.1268,-6.1595,-6.187,-6.1951,-6.1997,-6.1883,-6.1929,-6.2021,-6.2581,-6.346,-6.458,-6.5152,-6.5456,-6.6786,-6.8199,-6.8103,-6.8711,-6.9672,-7.0026,-7.0443,-7.0842,-7.0822,-7.1231,-7.2181,-7.2658,-7.272,-7.289,-7.3283,-7.349,-7.3728,-7.3971,-7.4338,-7.4329,-7.4319,-7.4216,-7.4104,-7.4151,-7.4151,-7.4188,-7.4188,-7.4188,-7.4197,-7.4365,-7.4576,-7.5425,-7.6387,-7.724,-7.8014,-7.8899,-7.9857,-8.0277,-8.0272,-8.0072,-7.957,-7.9259,-7.9139,-7.9186,-7.9382,-7.9845,-8.0535,-8.065,-8.0758,-8.0758,-8.0758,-8.0792,-8.0792,-8.0758,-8.0758,-8.0826,-8.0975,-8.131,-8.2099,-8.3033,-8.3461,-8.373,-8.3977,-8.4391,-8.4611,-8.483,-8.5024,-8.5372,-8.5681,-8.5643,-3.2971,-3.3285,-3.4808,-3.7343,-4.0341,-4.1707,-4.3238,-4.4799,-4.4575,-4.4852,-4.5096,-4.5936,-4.6631,-4.7347,-4.8135,-4.8924,-4.9756,-5.0414,-5.1303,-5.0899,-5.2077,-5.3091,-5.4461,-5.4819,-5.6279,-5.7307,-5.8145,-5.885,-5.9564,-6.0345,-6.0936,-6.1465,-6.1951,-6.2234,-6.2425,-6.2547,-6.2779,-6.2863,-6.3144,-6.3501,-6.3721,-6.4606,-6.559,-6.5822,-6.6456,-6.7368,-6.8219,-6.8752,-6.9176,-6.9987,-7.0547,-7.1015,-7.1123,-7.1475,-7.1998,-7.2438,-7.2981,-7.3148,-7.3305,-7.3591,-7.3923,-7.4113,-7.4387,-7.4802,-7.4907,-7.4807,-7.4694,-7.4385,-7.4347,-7.4301,-7.4301,-7.4226,-7.4197,-7.4289,-7.4418,-7.4708,-7.5291,-7.6566,-7.7948,-7.8752,-7.9705,-8.0503,-8.0616,-8.0566,-8.0443,-7.9818,-7.9691,-7.9569,-7.9607,-7.9812,-8.0164,-8.0711,-8.0855,-8.0893,-8.086,-8.086,-8.086,-8.086,-8.086,-8.0893,-8.0959,-8.1106,-8.126,-8.1886,-8.2477,-8.3027,-8.3371,-8.3386,-8.3412,-8.3863,-8.3979,-8.3979,-8.4289,-8.4675,-8.4908,-3.4959,-3.52,-3.7657,-4.0174,-4.2365,-4.3123,-4.4015,-4.5047,-4.5283,-4.5874,-4.6665,-4.6594,-4.7134,-4.8204,-4.8574,-4.938,-5.044,-5.1101,-5.2472,-5.3421,-5.3952,-5.442,-5.6435,-5.6806,-5.7734,-5.8255,-5.9049,-5.9794,-6.043,-6.102,-6.1513,-6.1917,-6.2391,-6.2813,-6.3144,-6.3371,-6.3595,-6.3958,-6.4488,-6.4627,-6.4488,-6.5438,-6.6461,-6.6848,-6.748,-6.854,-6.9353,-6.9846,-7.0229,-7.0781,-7.1123,-7.1332,-7.1405,-7.2094,-7.2663,-7.313,-7.3332,-7.3453,-7.3652,-7.3875,-7.4113,-7.4297,-7.4507,-7.5041,-7.5305,-7.5283,-7.5125,-7.4769,-7.4619,-7.461,-7.446,-7.431,-7.4243,-7.438,-7.4513,-7.4838,-7.5195,-7.6845,-7.8521,-7.9468,-8.0413,-8.0562,-8.0601,-8.0673,-8.0663,-8.0613,-8.0739,-8.0722,-8.0607,-8.0654,-8.0554,-8.0984,-8.1016,-8.1054,-8.0991,-8.0959,-8.0991,-8.1054,-8.1085,-8.1085,-8.1124,-8.1131,-8.1239,-8.133,-8.1754,-8.2235,-8.247,-8.211,-8.2316,-8.2896,-8.3128,-8.3128,-8.3128,-8.3399,-8.3786,-3.6385,-3.7128,-3.9414,-4.1402,-4.2911,-4.3201,-4.3847,-4.4886,-4.5624,-4.6082,-4.6628,-4.6772,-4.7568,-4.9003,-4.928,-4.9756,-5.1039,-5.1772,-5.2639,-5.3991,-5.5501,-5.6022,-5.7132,-5.8275,-5.851,-5.9014,-6.0017,-6.0854,-6.1317,-6.1837,-6.2347,-6.2469,-6.2966,-6.3555,-6.3984,-6.445,-6.4737,-6.5301,-6.597,-6.5969,-6.5689,-6.6848,-6.7693,-6.8187,-6.8857,-6.9878,-7.0396,-7.0847,-7.1045,-7.1304,-7.163,-7.1891,-7.2028,-7.2463,-7.2909,-7.3293,-7.3543,-7.3713,-7.3901,-7.4104,-7.4372,-7.4513,-7.4606,-7.5145,-7.575,-7.5739,-7.5884,-7.5651,-7.6035,-7.6073,-7.4952,-7.4576,-7.4664,-7.4714,-7.4846,-7.5127,-7.6008,-7.7335,-7.8352,-7.8913,-7.9177,-7.864,-7.8864,-7.9505,-7.9492,-7.9677,-8.0038,-8.0675,-8.0781,-8.1186,-8.1167,-8.1146,-8.1176,-8.1244,-8.1146,-8.1146,-8.1146,-8.1205,-8.1234,-8.1176,-8.1124,-8.1154,-8.1184,-8.1273,-8.1396,-8.1516,-8.1569,-8.1478,-8.1581,-8.2122,-8.2238,-8.2238,-8.2238,-8.2316,-8.2625,-3.7695,-3.889,-4.0571,-4.2007,-4.2905,-4.2811,-4.3599,-4.4943,-4.5813,-4.6266,-4.6604,-4.7413,-4.8481,-4.9647,-5.0329,-5.0662,-5.1386,-5.2519,-5.3121,-5.3965,-5.4932,-5.6463,-5.757,-5.8356,-5.9141,-6.0175,-6.1098,-6.1669,-6.2234,-6.2625,-6.2966,-6.3117,-6.3629,-6.417,-6.4946,-6.5406,-6.5619,-6.6601,-6.7227,-6.7398,-6.793,-6.8536,-6.8916,-6.9479,-7.0217,-7.0745,-7.1276,-7.1531,-7.1718,-7.1903,-7.2108,-7.2275,-7.2521,-7.2815,-7.3178,-7.3499,-7.3689,-7.4013,-7.4329,-7.4636,-7.4784,-7.4918,-7.4967,-7.5311,-7.5918,-7.6145,-7.6293,-7.6634,-7.7017,-7.6786,-7.5631,-7.487,-7.4913,-7.5308,-7.5472,-7.5742,-7.6873,-7.7725,-7.8059,-7.8468,-7.8084,-7.7476,-7.7508,-7.8139,-7.8746,-7.8853,-7.9259,-7.975,-8.0309,-8.0972,-8.1308,-8.1291,-8.1263,-8.1263,-8.1263,-8.1234,-8.1234,-8.1263,-8.1263,-8.1214,-8.1154,-8.1154,-8.1184,-8.1263,-8.1347,-8.14,-8.1453,-8.1504,-8.1581,-8.162,-8.1697,-8.1852,-8.1813,-8.1877,-8.1722,-3.9094,-4.0749,-4.1572,-4.2497,-4.3232,-4.3645,-4.4711,-4.5962,-4.6123,-4.7262,-4.8757,-4.9637,-5.0594,-5.1542,-5.1536,-5.1789,-5.2366,-5.3346,-5.4451,-5.5357,-5.6027,-5.7372,-5.8591,-5.9482,-6.0584,-6.1514,-6.2256,-6.2591,-6.3007,-6.3308,-6.3531,-6.375,-6.4039,-6.4428,-6.4847,-6.551,-6.6486,-6.7705,-6.8356,-6.8478,-7.0093,-7.0354,-6.962,-7.0174,-7.0934,-7.1537,-7.1927,-7.2048,-7.2167,-7.238,-7.263,-7.2778,-7.2955,-7.3135,-7.3438,-7.3715,-7.3901,-7.4366,-7.4711,-7.5041,-7.5216,-7.5418,-7.5501,-7.5577,-7.5997,-7.608,-7.6384,-7.6802,-7.703,-7.6986,-7.6104,-7.5308,-7.516,-7.6044,-7.6541,-7.7067,-7.7883,-7.7828,-7.7738,-7.8039,-7.8139,-7.7301,-7.654,-7.7592,-7.9114,-7.9404,-8.0029,-8.0481,-8.0624,-8.1053,-8.1453,-8.14,-8.1347,-8.1291,-8.1291,-8.1291,-8.1263,-8.133,-8.133,-8.1273,-8.1214,-8.1154,-8.1214,-8.1291,-8.1319,-8.1374,-8.1427,-8.1504,-8.1542,-8.1581,-8.1542,-8.1581,-8.1504,-8.1553,-8.1577]}]]